     2              OBSERVATION DATA    GPS                 RINEX VERSION / TYPE
TRRINEXO V2.8.4 LH                                          PGM / RUN BY / DATE
                                                            COMMENT
BIT 2 OF LLI (+4) FLAGS DATA COLLECTED UNDER "AS" CONDITION COMMENT
Original Marker Name: 0078                                  COMMENT
Campaign Name: coachelle valley 1990                        COMMENT
4-Character Station Name: 0078                              COMMENT
6-Character Antenna Code: TRMSST                            COMMENT
Vertical Measurement Point: TGP                             COMMENT
Vertical Offset to Rinex Ref. Point: 0.0629                 COMMENT
Radial Measurement Point: NGP                               COMMENT
Radial Offset to Rinex Ref. Point: 0.2334                   COMMENT
Antenna Height from Field Measurement: 0.8130 m             COMMENT
Original XYZ: -2367865.6816 -4741411.2386 3537180.5227      COMMENT
New XYZ position is based on association with SCEC monument COMMENT
E1D0U3A2+0011. Position of that monument is believed to be  COMMENT
valid to within 1 m horizontally; vertical accuracy         COMMENT
should be no worse than 3-times this value.                 COMMENT
                                                            COMMENT
Revised Rinex header created by UCSD GPS archive for        COMMENT
GSAC on 19-Apr-1999 (1999:109) 16:23:18 GMT                 COMMENT
For assistance contact dagnew@ucsd.edu or hjohnson@ucsd.edu COMMENT
                                                            COMMENT
GARNET 1979                                                 MARKER NAME
UNKNOWN OBSERVER CALIF INSTIT OF TECHNOLOGY                 OBSERVER / AGENCY
496 TRIMBLE 4000 SST 4.11 / 4.10                            REC # / TYPE / VERS
38 TR 4000SST L1/L2 GEO                                     ANT # / TYPE
 -2367874.0000 -4741404.0000  3537182.0000                  APPROX POSITION XYZ
        0.7159        0.0000        0.0000                  ANTENNA: DELTA H/E/N
     1     2     0                                          WAVELENGTH FACT L1/2
     3    C1    L1    L2                                    # / TYPES OF OBSERV
     0                                                      INTERVAL
  1990    10    12    11    52   45.000000                  TIME OF FIRST OBS
  1990    10    12    18    21   60.000000                  TIME OF LAST OBS
     0                                                      # OF SATELLITES
                                                            END OF HEADER
 90 10 12 11 52 45.0000000  0  5 02 18 06 11 13
  20751424.570          -0.79417
  22397869.266          -0.18416
  21408130.563          -0.87717
  24454513.641          -0.52915
  23522812.805          -0.80715
 90 10 12 11 53  0.0000000  0  6 02 18 06 11 13 09
  20751299.266        -652.250 7
  22405519.969       40204.874 6
  21401388.242      -35427.638 7
  24462158.508       40209.734 5
  23510298.266      -65768.166 5
  24380722.563          -0.10213
 90 10 12 11 53 15.0000000  0  6 02 18 06 11 13 09
  20751188.180       -1240.449 7        -0.46113
  22413185.641       80483.272 6
  21394656.375      -70806.552 7        -0.49212
  24469835.484       80494.395 5
  23497795.836     -131480.261 5
  24370853.773      -51878.901 3
 90 10 12 11 53 30.0000000  0  6 02 18 06 11 13 09
  20751086.758       -1766.869 7      -410.654 3
  22420862.359      120832.849 6
  21387932.125     -106138.705 7    -27532.040 2
  24477507.086      120851.884 5
  23485299.938     -197138.255 5
  24360976.063     -103760.401 3
 90 10 12 11 53 45.0000000  0  6 02 18 06 11 13 09
  20751001.211       -2225.753 7      -768.222 3
  22428556.219      161259.316 6
  21381218.094     -141418.207 7    -55022.554 2
  24485209.711      161287.609 5
  23472815.273     -262735.597 5
  24351110.461     -155638.299 4
 90 10 12 11 54  0.0000000  0  6 02 18 06 11 13 09
  20750926.563       -2620.614 7     -1075.905 3
  22436262.867      201758.741 6
  21374514.305     -176648.440 7    -82474.671 2
  24492910.680      201797.506 5
  23460344.055     -328275.792 5
  24341238.664     -207516.573 4
 90 10 12 11 54 15.0000000  0  6 02 18 06 11 13 09
  20750861.820       -2949.369 7     -1332.074 2
  22443982.867      242332.821 6
  21367821.039     -211827.154 7   -109886.646 2
  24500635.000      242383.307 5
  23447885.797     -393756.337 6        -0.08711
  24331366.797     -259392.839 3
 90 10 12 11 54 30.0000000  0  6 02 18 06 11 13 09
  20750814.180       -3219.339 7     -1542.440 3
  22451717.516      282974.223 6
  21361135.125     -246961.115 7   -137263.750 2
  24508377.453      283037.700 5
  23435432.641     -459183.784 5    -50982.465 1
  24321491.617     -311274.026 3
 90 10 12 11 54 45.0000000  0  6 02 18 06 11 13 09
  20750773.547       -3428.838 7
  22459464.094      323684.534 6
  21354457.813     -282048.207 7   -164604.331 2
  24516121.664      323761.912 5
  23422992.156     -524556.060 5   -101921.882 1
  24311621.781     -363158.320 4        -0.00511
 90 10 12 11 55  0.0000000  0  6 02 18 06 11 13 09
  20750744.656       -3578.849 7
  22467223.609      364462.276 6
  21347788.352     -317089.153 7   -191908.956 2
  24523884.953      364554.926 5
  23410563.375     -589873.671 5   -152818.664 1
  24301744.188     -415046.310 3    -40432.199 1
 90 10 12 11 55 15.0000000  0  6 02 18 06 11 13 09
  20750726.258       -3668.344 7
  22474997.078      405308.118 6
  21341129.984     -352082.882 7   -219176.791 2
  24531665.289      405417.234 5
  23398142.961     -655135.327 5   -203671.876 1
  24291866.055     -466937.218 3    -80866.676 1
 90 10 12 11 55 30.0000000  0  6 02 18 06 11 13 09
  20750719.227       -3695.990 7
  22482781.398      446223.233 6
  21334481.242     -387027.547 7   -246406.383 2
  24539451.617      446349.949 5
  23385735.023     -720338.938 5   -254479.849 1
  24281994.539     -518829.053 4   -121301.811 1
 90 10 12 11 55 45.0000000  0  6 02 18 06 11 13 09
  20750729.273       -3655.233 7
  22490582.477      487213.842 6
  21327842.984     -421916.268 7   -273592.388 2
  24547257.047      487359.355 5
  23373341.820     -785477.794 5   -305237.350 1
  24272121.211     -570715.386 4   -161732.725 1
 90 10 12 11 56  0.0000000  0  6 02 18 06 11 13 09
  20750747.047       -3556.000 7
  22498396.602      528269.738 6
  21321212.203     -456758.654 7   -300742.292 2
  24555073.125      528435.199 5
  23360956.188     -850561.184 5   -355951.635 1
  24262251.148     -622605.778 4   -202166.788 1
 90 10 12 11 56 15.0000000  0  6 02 18 06 11 13 09
  20750779.078       -3393.735 7
  22506221.906      569395.257 6
  21314590.617     -491549.949 7   -327852.388 2
  24562905.711      569581.743 5
  23348583.555     -915584.205 6   -406618.921 1
  24252379.812     -674495.616 4   -242600.439 1
 90 10 12 11 56 30.0000000  0  6 02 18 06 11 13 09
  20750817.648       -3176.283 7
  22514059.711      610582.202 6
  21307978.438     -526297.693 7   -354928.541 2
  24570741.750      610790.847 5
  23336218.438     -980554.052 5   -457244.698 1
  24242494.742     -726392.516 4   -283039.577 1
 90 10 12 11 56 45.0000000  0  6 02 18 06 11 13 09
  20750870.758       -2899.661 7
  22521908.156      651834.320 6
  21301373.781     -560997.656 7   -381967.463 2
  24578596.125      652066.080 5
  23323867.016    -1045466.420 6   -507825.760 1
  24232619.977     -778292.291 4   -323480.936 1
 90 10 12 11 57  0.0000000  0  6 02 18 06 11 13 09
  20750935.500       -2561.539 7
  22529772.063      693153.568 6
  21294780.719     -595647.083 7   -408967.007 2
  24586464.758      693409.756 5
  23311525.844    -1110318.474 6   -558359.771 1
  24222745.422     -830192.313 4   -363922.526 1
 90 10 12 11 57 15.0000000  0  6 02 18 06 11 13 09
  20751011.727       -2158.069 7        -0.45713
  22537648.398      734543.847 6
  21288197.742     -630241.701 7   -435923.842 2
  24594347.281      734825.406 5
  23299197.836    -1175106.000 6   -608843.551 1
  24212871.500     -882088.581 4   -404361.188 1
 90 10 12 11 57 29.9990000  0  6 02 18 06 11 13 09
  20751104.378       -1693.199 7       361.787 3
  22545536.136      775998.008 6
  21281625.745     -664782.777 7   -462838.950 2
  24602240.003      776306.203 5
  23286881.847    -1239828.024 6   -659276.258 1
  24202984.995     -933981.324 3   -444797.067 1
 90 10 12 11 57 44.9990000  0  6 02 18 06 11 13 09
  20751200.933       -1171.356 7       768.417 3
  22553437.011      817516.910 6
  21275061.472     -699279.075 7   -489719.171 2
  24610146.519      817852.673 5
  23274575.573    -1304497.251 6   -709667.818 1
  24193117.862     -985881.695 4   -485238.897 1
 90 10 12 11 57 59.9990000  0  6 02 18 06 11 13 09
  20751312.019        -590.900 7      1220.726 3
  22561348.651      859098.833 6
  21268504.167     -733726.356 7   -516561.199 2
  24618065.284      859463.597 4
  23262279.620    -1369107.104 6   -760013.137 1
  24183241.745    -1037784.223 4   -525682.436 1
 90 10 12 11 58 14.9990000  0  6 02 18 06 11 13 09
  20751433.862          45.555 7      1716.672 3
  22569274.089      900741.114 6
  21261959.417     -768126.989 7   -543366.877 2
  24625995.979      901136.109 5
  23249996.284    -1433659.847 6   -810313.946 1
  24173368.448    -1089691.469 4   -566129.599 1
 90 10 12 11 58 29.9990000  0  6 02 18 06 11 13 09
  20751564.401         743.702 7      2260.688 3
  22577209.847      942449.253 6
  21255424.323     -802474.982 7   -570131.535 2
  24633938.222      942875.451 5
  23237723.136    -1498149.449 6   -860565.550 1
  24163487.753    -1141597.755 4   -606576.084 1
 90 10 12 11 58 44.9990000  0  6 02 18 06 11 13 09
  20751709.245        1504.708 7      2853.680 3
  22585160.917      984223.918 6
  21248897.229     -836768.900 7   -596854.061 2
  24641897.159      984682.322 5
  23225464.417    -1562574.488 6   -910766.858 1
  24153611.753    -1193501.511 4   -647020.553 1
 90 10 12 11 58 59.9990000  0  6 02 18 06 11 13 09
  20751866.683        2324.703 7      3492.637 3
  22593122.636     1026061.211 6
  21242380.495     -871012.244 7   -623537.178 2
  24649863.503     1026552.768 4
  23213218.300    -1626938.118 6   -960920.287 1
  24143724.948    -1245406.486 4   -687465.988 1
 90 10 12 11 59 14.9990000  0  6 02 18 06 11 13 09
  20752033.167        3201.798 7      4176.092 3
  22601094.073     1067958.934 6
  21235873.894     -905206.596 7   -650182.113 2
  24657843.550     1068484.682 5
  23200980.956    -1691241.682 6  -1011026.941 1
  24133851.636    -1297314.200 4   -727913.525 1
 90 10 12 11 59 29.9990000  0  6 02 18 06 11 13 09
  20752211.854        4139.573 7      4906.831 3
  22609079.370     1109920.152 6
  21229376.573     -939347.996 7   -676785.791 2
  24665834.198     1110481.294 5
  23188755.159    -1755481.372 6  -1061083.812 1
  24123978.058    -1349221.122 4   -768360.470 1
 90 10 12 11 59 44.9990000  0  6 02 18 06 11 13 09
  20752400.222        5133.898 7      5681.630 3
  22617076.386     1151940.326 6
  21222889.042     -973440.504 7   -703351.371 2
  24673837.065     1152538.089 5
  23176541.706    -1819660.912 6  -1111093.829 1
  24114098.229    -1401131.086 4   -808809.783 1
 90 10 12 11 59 59.9990000  0  6 02 18 06 11 13 09
  20752602.245        6186.814 7      6502.087 3
  22625082.737     1194021.352 6
  21216411.308    -1007481.645 7   -729876.928 2
  24681854.362     1194657.006 4
  23164343.019    -1883777.646 6  -1161054.884 1
  24104219.120    -1453041.808 4   -849259.680 1
 90 10 12 12  0 14.9990000  0  6 02 18 06 11 13 09
  20752812.722        7297.345 7      7367.439 3
  22633102.347     1236162.123 6
  21209942.620    -1041471.938 7   -756362.865 2
  24689880.565     1236836.606 5
  23152151.448    -1947832.336 6  -1210967.624 1
  24094348.823    -1504954.039 5   -889710.784 1
 90 10 12 12  0 29.9990000  0  6 02 18 06 11 13 09
  20753034.878        8466.567 7      8278.524 3
  22641133.401     1278363.332 6
  21203485.651    -1075410.030 7   -782808.127 2
  24697912.581     1279077.828 5
  23139978.151    -2011823.010 6  -1260830.456 1
  24084466.300    -1556866.453 5   -930161.990 1
 90 10 12 12  0 44.9990000  0  6 02 18 06 11 13 09
  20753268.823        9694.178 7      9235.104 3
  22649175.972     1320624.739 6
  21197037.472    -1109295.794 7   -809212.610 2
  24705961.183     1321380.358 4
  23127811.667    -2075749.706 6  -1310643.430 1
  24074584.620    -1608779.126 4   -970613.403 1
 90 10 12 12  0 59.9990000  0  6 02 18 06 11 13 09
  20753513.925       10976.762 7     10234.522 3
  22657227.409     1362942.389 6
  21190599.526    -1143132.376 7   -835578.769 2
  24714018.401     1363740.219 4
  23115657.933    -2139615.183 6  -1360408.716 1
  24064706.511    -1660695.215 5  -1011067.496 1
 90 10 12 12  1 14.9990000  0  6 02 18 06 11 13 09
  20753769.440       12316.875 7     11278.770 3
  22665292.378     1405318.529 6
  21184168.753    -1176917.049 7   -861904.477 2
  24722096.237     1406159.658 5
  23103517.386    -2203416.748 6  -1410124.218 1
  24054821.917    -1712611.977 4  -1051522.126 1
 90 10 12 12  1 29.9990000  0  6 02 18 06 11 13 09
  20754035.050       13719.522 7     12371.739 3
  22673366.862     1447757.862 6
  21177750.565    -1210644.478 7   -888185.583 2
  24730177.987     1448643.433 4
  23091390.331    -2267148.847 6  -1459785.561 1
  24044941.808    -1764524.570 4  -1091973.480 1
 90 10 12 12  1 44.9990000  0  6 02 18 06 11 13 09
  20754312.495       15179.495 7     13509.382 3
  22681454.269     1490254.883 6
  21171342.581    -1244319.486 7   -914425.843 2
  24738275.815     1491185.994 5
  23079272.745    -2330816.415 6  -1509396.625 1
  24035068.792    -1816437.667 5  -1132425.229 1
 90 10 12 12  1 59.9990000  0  6 02 18 06 11 13 09
  20754601.683       16697.147 7     14691.970 3
  22689554.269     1532809.802 6
  21164945.589    -1277941.519 7   -940624.823 2
  24746388.284     1533787.202 5
  23067170.245    -2394418.651 6  -1558956.800 1
  24025187.198    -1868350.769 4  -1172877.004 1
 90 10 12 12  2 14.9990000  0  6 02 18 06 11 13 09
  20754900.464       18268.831 7     15916.656 3
  22697661.604     1575418.445 6
  21158557.542    -1311513.786 7   -966785.024 2
  24754500.456     1576443.351 5
  23055078.042    -2457958.568 6  -1608468.405 1
  24015316.589    -1920267.415 5  -1213331.519 1
 90 10 12 12  2 29.9990000  0  6 02 18 06 11 13 09
  20755211.644       19900.450 7     17188.049 3
  22705780.620     1618086.580 6
  21152178.479    -1345030.189 7   -992901.692 2
  24762630.448     1619160.038 5
  23043001.511    -2521429.799 6  -1657926.496 1
  24005428.300    -1972181.212 4  -1253783.817 1
 90 10 12 12  2 44.9990000  0  6 02 18 06 11 13 09
  20755533.886       21592.266 7     18506.351 3
  22713912.206     1660814.151 6
  21145811.362    -1378489.977 7  -1018974.244 2
  24770763.776     1661937.249 5
  23030935.722    -2584831.763 6  -1707330.588 1
  23995545.870    -2024092.021 4  -1294233.785 1
 90 10 12 12  2 59.9990000  0  6 02 18 06 11 13 09
  20755865.440       23337.704 7     19866.432 3
  22722052.190     1703594.510 6
  21139454.761    -1411899.337 7  -1045007.504 2
  24778917.589     1704768.263 5
  23018882.175    -2648170.457 6  -1756685.395 1
  23985672.659    -2076005.875 4  -1334686.157 1
 90 10 12 12  3 14.9990000  0  6 02 18 06 11 13 09
  20756207.644       25139.233 7     21270.227 3
  22730205.417     1746429.622 6
  21133107.378    -1445255.678 7  -1070999.448 2
  24787084.011     1747655.124 5
  23006842.808    -2711443.195 6  -1805988.798 1
  23975791.347    -2127920.223 4  -1375138.866 1
 90 10 12 12  3 29.9990000  0  6 02 18 06 11 13 09
  20756560.870       26994.025 7     22715.518 3
  22738366.401     1789316.193 6
  21126769.237    -1478561.540 7  -1096952.060 2
  24795254.925     1790594.616 5
  22994813.698    -2774652.358 6  -1855242.686 1
  23965903.722    -2179837.721 4  -1415594.051 1
 90 10 12 12  3 44.9990000  0  6 02 18 06 11 13 09
  20756925.151       28905.695 7     24205.132 3
  22746536.105     1832257.890 6
  21120441.854    -1511812.912 7  -1122862.218 2
  24803431.964     1833590.156 5
  22982798.276    -2837793.723 6  -1904443.707 1
  23956033.089    -2231754.786 4  -1456048.915 1
 90 10 12 12  3 59.9990000  0  6 02 18 06 11 13 09
  20757299.628       30873.125 7     25738.194 3
  22754717.933     1875253.012 6
  21114123.542    -1545010.597 7  -1148730.531 2
  24811624.542     1876640.411 5
  22970796.175    -2900867.995 6  -1953592.476 1
  23946158.190    -2283671.858 5  -1496503.768 1
 90 10 12 12  4 14.9990000  0  6 02 18 06 11 13 09
  20757684.120       32891.987 7     27311.332 3
  22762908.003     1918297.180 6
  21107816.839    -1578158.393 7  -1174559.977 2
  24819827.097     1919740.720 5
  22958804.690    -2963878.941 6  -2002691.884 1
  23936280.401    -2335593.228 4  -1536961.977 1
 90 10 12 12  4 29.9990000  0  6 02 18 06 11 13 09
  20758078.815       34970.465 7     28930.922 3
  22771111.519     1961398.239 6
  21101518.573    -1611248.044 7  -1200344.110 2
  24828038.698     1962899.029 5
  22946827.542    -3026818.058 6  -2051735.336 1
  23926389.612    -2387510.428 4  -1577416.939 1
 90 10 12 12  4 44.9990000  0  6 02 18 06 11 13 09
  20758484.519       37100.837 7     30590.955 2
  22779323.183     2004548.266 6
  21095231.011    -1644286.916 7  -1226088.678 2
  24836264.058     2006107.229 5
  22934861.612    -3089692.657 6  -2100728.504 1
  23916517.065    -2439431.203 4  -1617874.677 1
 90 10 12 12  4 59.9990000  0  6 02 18 06 11 13 09
  20758900.065       39287.419 7     32294.786 3
  22787543.269     2047751.021 6
  21088954.847    -1677270.395 7  -1251790.083 2
  24844497.714     2049369.256 5
  22922911.214    -3152498.152 6  -2149667.836 1
  23906629.198    -2491350.869 4  -1658331.536 1
 90 10 12 12  5 14.9990000  0  6 02 18 06 11 13 09
  20759326.581       41526.941 7     34039.875 3
  22795773.745     2091003.075 6
  21082688.386    -1710201.349 7  -1277450.561 2
  24852736.128     2092681.716 5
  22910975.354    -3215237.102 6  -2198555.289 1
  23896753.862    -2543272.436 4  -1698789.893 1
 90 10 12 12  5 29.9990000  0  6 02 18 06 11 13 09
  20759763.667       43819.686 7     35826.432 3
  22804013.120     2134304.339 6
  21076430.620    -1743079.328 7  -1303069.755 2
  24860988.097     2136044.555 5
  22899047.011    -3277909.151 6  -2247390.646 1
  23886874.315    -2595195.621 4  -1739249.503 1
 90 10 12 12  5 44.9990000  0  6 02 18 06 11 13 09
  20760209.901       46168.284 7     37656.518 3
  22812263.300     2177657.242 6
  21070185.706    -1775901.047 7  -1328645.110 2
  24869252.222     2179460.025 5
  22887135.105    -3340511.155 6  -2296171.412 1
  23876992.464    -2647117.297 4  -1779707.949 1
 90 10 12 12  5 59.9990000  0  6 02 18 06 11 13 09
  20760666.886       48570.885 7     39528.676 3
  22820524.534     2221059.647 6
  21063951.292    -1808668.312 7  -1354178.037 2
  24877523.378     2222926.071 5
  22875233.964    -3403044.264 6  -2344898.512 1
  23867117.503    -2699039.188 5  -1820166.532 1
 90 10 12 12  6 14.9990000  0  6 02 18 06 11 13 09
  20761135.089       51027.718 7     41443.083 3
  22828790.581     2264511.518 6
  21057725.089    -1841380.581 7  -1379668.110 2
  24885808.284     2266442.700 5
  22863349.956    -3465507.823 6  -2393571.379 1
  23857227.620    -2750960.870 4  -1860624.977 1
 90 10 12 12  6 29.9990000  0  6 02 18 06 11 13 09
  20761613.339       53541.353 7     43401.759 3
  22837069.464     2308015.445 6
  21051511.503    -1874034.940 7  -1405113.053 2
  24894097.011     2310012.121 5
  22851476.479    -3527898.984 6  -2442187.873 1
  23847357.901    -2802879.547 5  -1901081.070 1
 90 10 12 12  6 44.9990000  0  6 02 18 06 11 13 09
  20762100.706       56107.141 7     45401.072 3
  22845357.605     2351565.978 6
  21045307.472    -1906635.616 7  -1430516.172 2
  24902397.495     2353629.395 5
  22839614.956    -3590221.927 6  -2490751.179 1
  23837470.675    -2854799.809 4  -1941538.398 1
 90 10 12 12  6 59.9990000  0  6 02 18 06 11 13 09
  20762598.675       58722.464 7     47438.991 3
  22853652.386     2395160.256 6
  21039115.511    -1939184.892 7  -1455879.241 2
  24910702.081     2397291.576 5
  22827770.675    -3652478.855 6  -2539263.055 1
  23827593.331    -2906723.818 5  -1981998.670 1
 90 10 12 12  7 14.9990000  0  5 02 18 06 13 09
  20763107.589       61392.735 7     49519.721 3
  22861956.128     2438803.784 6        -0.31911
  21032931.909    -1971677.000 7  -1481197.756 2
  22815934.714    -3714663.930 6  -2587718.948 1
  23817714.542    -2958646.061 4  -2022457.528 1
 90 10 12 12  7 29.9990000  0  5 02 18 06 13 09
  20763624.917       64118.664 7     51643.820 3
  22870271.831     2482496.634 6     34046.048 1
  21026758.581    -2004111.119 7  -1506471.090 2
  22804115.698    -3776775.863 6  -2636117.828 1
  23807832.386    -3010565.511 5  -2062914.252 1
 90 10 12 12  7 44.9990000  0  5 02 18 06 13 09
  20764154.456       66899.537 7     53810.727 3
  22878596.354     2526237.841 6     68130.105 1
  21020597.565    -2036487.459 7  -1531699.397 2
  22792311.222    -3838815.068 6  -2684460.055 1
  23797956.058    -3062482.691 5  -2103369.175 1
 90 10 12 12  7 59.9990000  0  5 02 18 06 13 09
  20764693.808       69733.642 7     56019.119 3
  22886929.183     2570025.602 6    102250.430 1
  21014448.737    -2068807.509 7  -1556883.841 2
  22780518.636    -3900782.588 6  -2732746.407 1
  23788076.026    -3114399.137 5  -2143823.524 1
 90 10 12 12  8 14.9990000  0  5 02 18 06 13 09
  20765244.542       72622.694 7     58270.330 3
  22895271.901     2613861.225 6    136408.047 1
  21008308.933    -2101069.085 7  -1582022.718 2
  22768740.753    -3962676.368 6  -2780975.304 1
  23778198.972    -3166312.915 5  -2184275.825 1
 90 10 12 12  8 29.9990000  0  5 02 18 06 13 09
  20765803.300       75564.039 7     60562.297 3
  22903619.042     2657741.711 6    170600.636 1
  21002180.831    -2133274.640 7  -1607117.948 2
  22756976.964    -4024498.708 6  -2829148.547 1
  23768316.761    -3218226.401 5  -2224727.868 1
 90 10 12 12  8 44.9990000  0  5 02 18 06 13 09
  20766374.355       78560.754 7     62897.407 3
  22911979.737     2701669.865 6    204830.342 1
  20996064.800    -2165420.767 7  -1632166.868 2
  22745225.706    -4086246.160 6  -2877263.413 1
  23758439.183    -3270136.354 5  -2265177.170 1
 90 10 12 12  8 59.9990000  0  5 02 18 06 13 09
  20766954.323       81607.771 7     65271.712 3
  22920346.354     2745640.441 6    239093.131 1
  20989956.886    -2197512.253 7  -1657173.215 2
  22733488.003    -4147923.171 6  -2925323.403 1
  23748565.026    -3322047.518 5  -2305627.428 1
 90 10 12 12  9 14.9990000  0  5 02 18 06 13 09
  20767544.370       84708.437 7     67687.814 3
  22928723.667     2789656.438 6    273391.294 1
  20983861.479    -2229545.325 7  -1682134.042 2
  22721766.870    -4209526.403 6  -2973325.894 1
  23738678.792    -3373956.632 4  -2346076.069 1
 90 10 12 12  9 29.9990000  0  5 02 18 06 13 09
  20768143.972       87865.786 7     70148.085 3
  22937107.706     2833720.510 6    307726.943 1
  20977776.698    -2261516.712 7  -1707046.799 2
  22710056.628    -4271052.090 6  -3021267.985 1
  23728804.183    -3425860.184 4  -2386520.376 1
 90 10 12 12  9 44.9990000  0  5 02 18 06 13 09
  20768755.417       91073.690 7     72647.759 3
  22945501.159     2877826.065 6    342094.886 1
  20971703.761    -2293432.278 7  -1731916.069 2
  22698362.933    -4332506.052 6  -3069154.157 1
  23718934.464    -3477764.149 5  -2426965.014 1
 90 10 12 12  9 59.9990000  0  5 02 18 06 13 09
  20769375.956       94333.625 7     75187.969 3
  22953900.831     2921974.683 6    376496.417 1
  20965640.425    -2325290.007 7  -1756740.269 2
  22686682.597    -4393886.072 6  -3116982.736 1
  23709053.667    -3529666.732 5  -2467408.579 1
 90 10 12 12 10 14.9990000  0  5 02 18 06 13 09
  20770005.003       97644.307 7     77767.723 3
  22962311.159     2966164.602 6    410930.105 1
  20959590.276    -2357090.916 7  -1781520.186 2
  22675015.979    -4455193.406 6  -3164754.673 1
  23699175.659    -3581568.992 5  -2507851.875 1
 90 10 12 12 10 29.9990000  0  5 02 18 06 13 09
  20770645.331      101008.673 7     80389.301 3
  22970728.237     3010398.328 6    445397.923 1
  20953549.979    -2388831.969 7  -1806253.468 2
  22663365.487    -4516424.443 6  -3212467.157 1
  23689293.948    -3633467.942 4  -2548292.619 1
 90 10 12 12 10 44.9990000  0  5 02 18 06 13 09
  20771295.862      104423.888 7     83050.506 3
  22979155.011     3054672.538 6    479897.294 1
  20947521.448    -2420515.521 7  -1830941.946 2
  22651727.362    -4577581.745 6  -3260122.181 1
  23679413.284    -3685366.105 4  -2588732.733 1
 90 10 12 12 10 59.9990000  0  5 02 18 06 13 09
  20771955.214      107893.393 7     85754.018 3
  22987586.628     3098990.730 6    514430.944 1
  20941501.698    -2452137.853 7  -1855582.715 2
  22640105.495    -4638661.305 6  -3307716.621 1
  23669548.073    -3737259.746 5  -2629169.328 1
 90 10 12 12 11 14.9990000  0  5 02 18 06 13 09
  20772627.042      111413.831 7     88497.211 3
  22996029.206     3143349.111 6    548995.890 1
  20935496.190    -2483702.131 7  -1880178.249 2
  22628496.714    -4699666.195 6  -3355252.909 1
  23659674.331    -3789152.103 5  -2669604.904 1
 90 10 12 12 11 29.9990000  0  5 02 18 06 13 09
  20773305.081      114983.711 7     91278.939 3
  23004478.800     3187746.016 6    583590.892 1
  20929500.940    -2515209.270 7  -1904729.256 2
  22616900.589    -4760597.395 6  -3402731.739 1
  23649795.417    -3841044.470 5  -2710040.507 1
 90 10 12 12 11 44.9990000  0  5 02 18 06 13 09
  20773993.581      118605.515 7     94101.117 3
  23012934.479     3232183.638 6    618217.590 1
  20923516.823    -2546656.484 7  -1929233.573 2
  22605319.269    -4821452.187 6  -3450151.056 1
  23639921.144    -3892933.922 5  -2750473.824 1
 90 10 12 12 11 59.9990000  0  5 02 18 06 13 09
  20774693.894      122280.595 7     96964.814 3
  23021395.933     3276663.053 6    652876.872 1
  20917543.706    -2578042.168 7  -1953689.943 2
  22593754.683    -4882228.611 6  -3497509.290 1
  23630051.394    -3944819.014 5  -2790903.744 1
 90 10 12 12 12 14.9990000  0  5 02 18 06 13 09
  20775402.026      126002.292 7     99864.833 3
  23029868.542     3321177.389 6    687563.333 1
  20911582.651    -2609372.553 7  -1978103.222 2
  22582203.019    -4942932.699 6  -3544811.164 1
  23620180.964    -3996706.094 5  -2831335.239 1
 90 10 12 12 12 29.9990000  0  5 02 18 06 13 09
  20776119.776      129773.952 7    102803.782 3
  23038346.761     3365729.752 6    722279.458 1
  20905631.479    -2640643.865 7  -2002470.470 2
  22570666.120    -5003560.763 6  -3592053.803 1
  23610305.073    -4048591.397 5  -2871765.312 1
 90 10 12 12 12 44.9990000  0  5 02 18 06 13 09
  20776846.409      133596.854 7    105782.670 3
  23046833.972     3410320.931 6    757025.812 1
  20899692.581    -2671854.660 7  -2026790.565 2
  22559143.870    -5064111.483 6  -3639236.170 1
  23600429.401    -4100473.708 5  -2912193.074 1
 90 10 12 12 12 59.9990000  0  5 02 18 06 13 09
  20777584.417      137468.758 7    108799.744 3
  23055326.683     3454948.427 6    791800.474 1
  20893764.409    -2703006.666 7  -2051064.846 2
  22547635.683    -5124586.395 6  -3686359.457 1
  23590559.347    -4152354.840 5  -2952619.912 1
 90 10 12 12 13 14.9990000  0  5 02 18 06 13 09
  20778330.706      141389.749 7    111855.059 3
  23063820.519     3499612.186 6    826603.366 1
  20887848.315    -2734099.722 7  -2075293.194 2
  22536143.558    -5184985.014 6  -3733423.302 1
  23580688.128    -4204234.570 5  -2993045.657 1
 90 10 12 12 13 29.9990000  0  5 02 18 06 13 09
  20779086.894      145362.502 7    114950.714 3
  23072330.769     3544314.558 6    861436.366 1
  20881943.159    -2765130.865 7  -2099473.307 2
  22524665.229    -5245304.352 6  -3780425.369 1
  23570813.683    -4256110.039 5  -3033468.073 1
 90 10 12 12 13 44.9990000  0  5 02 18 06 13 09
  20779852.831      149391.307 7    118090.045 3
  23080846.183     3589059.123 6    896302.239 1
  20876050.011    -2796095.538 7  -2123601.613 2
  22513202.581    -5305539.566 6  -3827361.884 1
  23560944.245    -4307976.806 5  -3073883.723 1
 90 10 12 12 13 59.9990000  0  5 02 18 06 13 09
  20780628.995      153468.186 7    121266.842 3
  23089366.839     3633837.855 6    931194.744 1
  20870169.855    -2827001.087 7  -2147683.859 2
  22501754.675    -5365698.121 6  -3874238.673 1
  23551070.698    -4359842.566 5  -3114298.579 1
 90 10 12 12 14 14.9990000  0  5 02 18 06 13 09
  20781415.183      157594.950 7    124482.509 3
  23097893.425     3678652.067 6    966114.909 1
  20864298.019    -2857845.652 7  -2171718.576 2
  22490321.269    -5425778.122 6  -3921054.244 1
  23541205.261    -4411705.300 5  -3154711.117 1
 90 10 12 12 14 29.9990000  0  5 02 18 06 13 09
  20782208.972      161771.439 7    127736.928 3
  23106426.690     3723501.762 6   1001062.716 1
  20858440.542    -2888628.830 7  -2195705.466 2
  22478903.675    -5485778.970 6  -3967808.146 1
  23531333.854    -4463564.728 5  -3195121.027 1
 90 10 12 12 14 44.9990000  0  5 02 18 06 13 09
  20783013.378      165997.786 7    131030.180 3
  23114968.948     3768386.631 6   1036037.928 1
  20852594.808    -2919350.318 7  -2219644.283 2
  22467501.417    -5545700.409 6  -4014500.154 1
  23521462.370    -4515420.694 5  -3235528.247 1
 90 10 12 12 14 59.9990000  0  5 02 18 06 13 09
  20783827.854      170277.705 7    134365.177 3
  23123518.581     3813309.990 6   1071043.124 1
  20846761.479    -2950006.048 7  -2243531.858 2
  22456113.433    -5605538.286 6  -4061127.054 1
  23511602.667    -4567269.239 5  -3275929.680 1
 90 10 12 12 15 14.9990000  0  5 02 18 06 13 09
  20784651.058      174608.483 7    137739.809 3
  23132074.534     3858268.867 6   1106076.003 1
  20840940.667    -2980598.221 7  -2267369.913 2
  22444741.620    -5665294.887 6  -4107690.610 1
  23501739.753    -4619112.778 5  -3316327.238 1
 90 10 12 12 15 29.9990000  0  5 02 18 06 13 09
  20785485.151      178990.699 7    141154.525 3
  23140639.190     3903263.461 6   1141136.711 1
  20835131.495    -3011126.355 7  -2291158.066 2
  22433386.526    -5724969.165 6  -4154190.040 1
  23491867.315    -4670950.517 5  -3356720.263 1
 90 10 12 12 15 44.9990000  0  5 02 18 06 13 09
  20786328.745      183418.588 7    144604.826 3
  23149203.995     3948287.635 6   1176220.463 1
  20829333.190    -3041595.649 7  -2314900.362 2
  22422046.401    -5784566.613 6  -4200629.591 1
  23482002.456    -4722787.978 5  -3397113.058 1
 90 10 12 12 15 59.9990000  0  5 02 18 06 13 09
  20787179.870      187896.528 7    148094.133 3
  23157778.558     3993345.672 6   1211330.624 1
  20823546.667    -3072001.434 7  -2338593.174 2
  22410721.315    -5844082.372 6  -4247005.496 1
  23472144.933    -4774620.648 5  -3437502.151 1
 90 10 12 12 16 14.9990000  0  5 02 18 06 13 09
  20788041.026      192424.158 7    151622.159 3
  23166356.940     4038436.548 6   1246466.352 1
  20817772.862    -3102343.722 7  -2362236.503 2
  22399410.690    -5903516.251 6  -4293317.609 1
  23462278.472    -4826448.449 5  -3477887.435 1
 90 10 12 12 16 29.9990000  0  5 02 18 06 13 09
  20788911.769      196999.106 7    155187.053 3
  23174943.323     4083557.901 6   1281625.843 1
  20812009.511    -3132624.446 7  -2385831.865 2
  22388115.581    -5962870.431 6  -4339567.611 1
  23452419.964    -4878273.765 5  -3518270.773 1
 90 10 12 12 16 44.9990000  0  5 02 18 06 13 09
  20789791.487      201620.964 7    158788.498 3
  23183536.862     4128708.786 6   1316808.339 1
  20806260.519    -3162843.940 7  -2409379.517 2
  22376835.644    -6022144.943 6  -4385755.533 1
  23442555.972    -4930096.545 5  -3558652.160 1
 90 10 12 12 16 59.9990000  0  5 02 18 06 13 09
  20790680.737      206292.938 7    162428.996 3
  23192136.558     4173892.530 6   1352016.439 1
  20800521.972    -3192998.447 7  -2432876.531 2
  22365572.612    -6081335.912 6  -4431878.351 1
  23432698.769    -4981913.395 5  -3599028.905 1
 90 10 12 12 17 14.9990000  0  5 02 18 06 13 09
  20791578.136      211011.308 7    166105.640 3
  23200738.019     4219104.976 5   1387246.900 1
  20794794.979    -3223091.348 7  -2456325.544 2
  22354324.589    -6140446.610 6  -4477938.631 1
  23422835.120    -5033727.725 5  -3639403.686 1
 90 10 12 12 17 29.9990000  0  5 02 18 06 13 09
  20792487.612      215784.563 7    169825.059 3
  23209349.612     4264354.090 6   1422505.919 1
  20789082.698    -3253114.011 7  -2479719.821 2
  22343091.519    -6199468.322 6  -4523929.571 1
  23412979.440    -5085530.931 5  -3679769.805 1
 90 10 12 12 17 44.9990000  0  5 02 18 06 13 09
  20793404.284      220604.052 7    173580.504 3
  23217965.565     4309630.954 5   1457786.586 1
  20783380.964    -3283074.756 7  -2503065.852 2
  22331876.855    -6258409.529 6  -4569857.778 1
  23403124.394    -5137331.613 5  -3720133.953 1
 90 10 12 12 17 59.9990000  0  5 02 18 06 13 09
  20794329.870      225475.898 7    177376.747 3
  23226588.050     4354941.516 5   1493093.492 1
  20777692.769    -3312967.028 7  -2526358.524 2
  22320678.284    -6317263.525 6  -4615718.026 1
  23393264.542    -5189123.207 5  -3760491.029 1
 90 10 12 12 18 14.9990000  0  5 02 18 06 13 09
  20795268.815      230399.485 7    181213.308 3
  23235217.698     4400284.652 5   1528425.788 1
  20772016.847    -3342791.105 7  -2549598.058 2
  22309494.847    -6376030.188 6  -4661510.213 1
  23383414.987    -5240905.955 5  -3800841.191 1
 90 10 12 12 18 29.9990000  0  5 02 18 06 13 09
  20796214.019      235373.056 7    185088.825 3
  23243847.862     4445658.375 5   1563781.916 1
  20766353.292    -3372548.453 7  -2572785.599 2
  22298326.995    -6434711.257 6  -4707235.704 1
  23373563.230    -5292681.611 5  -3841185.857 1
 90 10 12 12 18 44.9990000  0  5 02 18 06 13 09
  20797170.706      240393.958 7    189001.218 3
  23252492.675     4491060.003 5   1599159.798 1
  20760704.347    -3402241.266 7  -2595922.839 2
  22287177.198    -6493308.870 6  -4752896.152 1
  23363705.542    -5344452.395 5  -3881526.718 1
 90 10 12 12 18 59.9990000  0  5 02 18 06 13 09
  20798133.245      245460.853 7    192949.447 3
  23261131.237     4536487.740 5   1634558.030 1
  20755066.503    -3431870.847 7  -2619010.822 2
  22276041.644    -6551823.958 6  -4798492.320 1
  23353860.519    -5396219.400 5  -3921864.608 1
 90 10 12 12 19 14.9990000  0  5 02 18 06 13 09
  20799108.011      250576.474 7    196935.646 3
  23269789.089     4581943.861 6   1669978.378 1
  20749439.519    -3461433.827 7  -2642046.907 2
  22264922.901    -6610253.390 6  -4844021.733 1
  23344002.940    -5447979.714 5  -3962197.319 1
 90 10 12 12 19 29.9990000  0  5 02 18 06 13 09
  20800089.104      255738.681 7    200958.144 3
  23278439.901     4627426.125 5   1705419.088 1
  20743825.683    -3490932.234 7  -2665032.668 2
  22253819.847    -6668599.027 6  -4889485.867 1
  23334161.769    -5499735.352 5  -4002526.375 1
 90 10 12 12 19 44.9990000  0  5 02 18 06 13 09
  20801080.823      260944.429 7    205014.577 3
  23287099.308     4672931.280 5   1740877.648 1
  20738224.776    -3520368.762 7  -2687970.215 2
  22242733.745    -6726863.491 6  -4934886.736 1
  23324307.706    -5551488.878 5  -4042853.770 1
 90 10 12 12 19 59.9990000  0  5 02 18 06 13 09
  20802080.628      266197.880 7    209108.175 3
  23295761.542     4718463.077 5   1776356.942 1
  20732635.526    -3549738.991 7  -2710856.104 2
  22231663.081    -6785042.258 6  -4980220.839 1
  23314461.753    -5603236.170 5  -4083176.297 1
 90 10 12 12 20 14.9990000  0  5 02 18 06 13 09
  20803088.073      271498.056 7    213238.186 3
  23304432.784     4764020.244 5   1811856.009 1
  20727059.995    -3579043.232 7  -2733690.572 2
  22220607.604    -6843135.645 6  -5025488.411 1
  23304617.847    -5654977.671 5  -4123494.345 1
 90 10 12 12 20 29.9990000  0  5 02 18 06 13 09
  20804105.534      276842.871 7    217402.977 3
  23313108.979     4809600.238 5   1847372.857 1
  20721495.800    -3608283.434 7  -2756475.138 2
  22209566.698    -6901145.347 6  -5070690.774 1
  23294769.026    -5706715.274 5  -4163809.350 1
 90 10 12 12 20 44.9990000  0  5 02 18 06 13 09
  20805131.565      282233.237 7    221603.257 3
  23321784.901     4855203.994 5   1882908.229 1
  20715942.401    -3637458.298 7  -2779208.794 2
  22198544.206    -6959070.202 6  -5115827.027 1
  23284929.339    -5758447.790 5  -4204120.375 1
 90 10 12 12 20 59.9990000  0  5 02 18 06 13 09
  20806165.862      287672.827 7    225841.900 3
  23330467.581     4900834.621 5   1918464.571 1
  20710404.433    -3666564.122 7  -2801888.653 2
  22187538.769    -7016906.161 6  -5160894.005 1
  23275083.706    -5810171.672 5  -4244424.699 1
 90 10 12 12 21 14.9990000  0  5 02 18 06 13 09
  20807210.894      293158.088 7    230116.132 3
  23339155.159     4946488.348 5   1954038.877 1
  20704879.065    -3695603.836 7  -2824516.995 2
  22176550.058    -7074656.374 6  -5205894.152 1
  23265244.026    -5861889.848 5  -4284724.535 1
 90 10 12 12 21 29.9990000  0  5 02 18 06 13 09
  20808262.011      298688.357 7    234425.431 3
  23347849.597     4992164.198 5   1989630.425 1
  20699365.503    -3724577.777 7  -2847094.087 2
  22165577.534    -7132321.158 7  -5250827.743 1
  23255404.636    -5913602.696 5  -4325020.266 1
 90 10 12 12 21 44.9990000  0  5 02 18 06 13 09
  20809325.300      304267.332 7    238772.684 3
  23356542.440     5037865.510 5   2025241.834 1
  20693865.472    -3753482.062 7  -2869616.898 2
  22154620.901    -7189896.330 6  -5295691.511 1
  23245566.229    -5965306.564 5  -4365308.956 1
 90 10 12 12 21 59.9990000  0  5 02 18 06 13 09
  20810394.948      309890.279 7    243154.200 3
  23365247.058     5083587.041 5   2060868.974 1
  20688377.120    -3782321.247 7  -2892088.987 2
  22143680.776    -7247386.466 6  -5340489.008 1
  23235726.261    -6017005.985 5  -4405594.210 1
 90 10 12 12 22 14.9990000  0  5 02 18 06 13 09
  20811474.589      315560.362 7    247572.438 3
  23373946.511     5129331.745 5   2096514.193 1
  20682902.628    -3811091.714 7  -2914507.514 2
  22132758.034    -7304787.794 7  -5385217.312 1
  23225888.284    -6068697.505 5  -4445873.295 1
 90 10 12 12 22 29.9990000  0  5 02 18 06 13 09
  20812561.800      321277.091 7    252027.036 3
  23382656.995     5175098.712 5   2132176.737 1
  20677439.917    -3839793.594 7  -2936872.611 2
  22121852.698    -7362100.682 7  -5429876.683 1
  23216050.987    -6120381.082 5  -4486146.196 1
 90 10 12 12 22 44.9990000  0  5 02 18 06 13 09
  20813659.417      327039.761 7    256517.435 3
  23391372.331     5220887.212 5   2167856.050 1
  20671991.433    -3868427.247 7  -2959184.547 2
  22110962.284    -7419325.257 7  -5474467.265 1
  23206224.183    -6172057.425 5  -4526413.465 1
 90 10 12 12 22 59.9990000  0  5 02 18 06 13 09
  20814763.526      332848.587 7    261043.791 3
  23400089.089     5266697.261 5   2203552.185 1
  20666556.808    -3896992.113 7  -2981442.878 2
  22100088.683    -7476460.915 7  -5518988.539 1
  23196385.722    -6223725.950 5  -4566674.643 1
 90 10 12 12 23 14.9990000  0  5 02 18 06 13 09
  20815875.542      338699.227 7    265602.740 3
  23408810.776     5312524.154 5   2239261.427 1
  20661133.878    -3925492.151 7  -3003650.696 2
  22089234.440    -7533511.671 7  -5563443.663 1
  23186556.120    -6275390.640 5  -4606932.818 1
 90 10 12 12 23 29.9990000  0  5 02 18 06 13 09
  20816997.370      344593.693 7    270195.826 3
  23417532.394     5358369.545 5   2274985.095 1
  20655723.683    -3953925.109 7  -3025806.241 2
  22078392.526    -7590475.134 7  -5607830.765 1
  23176722.550    -6327049.242 5  -4647186.252 1
 90 10 12 12 23 44.9990000  0  5 02 18 06 13 09
  20818128.620      350537.027 7    274826.996 3
  23426264.394     5404237.904 5   2310726.664 1
  20650325.104    -3982285.760 7  -3047905.444 2
  22067571.230    -7647345.911 7  -5652145.635 1
  23166899.019    -6378696.918 5  -4687431.183 1
 90 10 12 12 23 59.9990000  0  5 02 18 06 13 09
  20819270.050      356526.612 7    279494.206 3
  23434993.628     5450126.689 5   2346484.139 1
  20644941.472    -4010576.155 7  -3069949.908 2
  22056766.222    -7704125.854 7  -5696389.739 1
  23157068.089    -6430335.514 5  -4727669.035 1
 90 10 12 12 24 14.9990000  0  5 02 18 06 13 09
  20820417.534      362563.477 7    284198.259 3
  23443732.589     5496036.658 5   2382258.122 1
  20639572.417    -4038795.102 7  -3091938.692 2
  22045980.581    -7760813.722 7  -5740562.076 1
  23147246.097    -6481963.918 5  -4767898.929 1
 90 10 12 12 24 29.9990000  0  5 02 18 06 13 09
  20821575.597      368643.120 7    288935.636 3
  23452471.245     5541962.687 5   2418044.618 1
  20634214.823    -4066946.895 7  -3113875.146 2
  22035207.651    -7817414.167 6  -5784666.298 1
  23137427.597    -6533586.488 5  -4808124.289 1
 90 10 12 12 24 44.9990000  0  5 02 18 06 13 09
  20822740.081      374768.270 7    293708.472 3
  23461210.003     5587907.354 5   2453845.657 1
  20628871.597    -4095028.032 7  -3135756.549 2
  22024454.815    -7873923.576 7  -5828699.601 1
  23127599.659    -6585200.053 5  -4848342.647 1
 90 10 12 12 24 59.9990000  0  5 02 18 06 13 09
  20823914.370      380937.140 7    298515.383 3
  23469957.745     5633868.657 5   2489659.639 1
  20623542.175    -4123040.202 7  -3157584.204 2
  22013717.659    -7930343.405 7  -5872663.087 1
  23117779.917    -6636806.191 5  -4888555.201 1
 90 10 12 12 25 14.9990000  0  5 02 18 06 13 09
  20825097.089      387153.460 7    303359.266 3
  23478712.878     5679849.838 5   2525489.134 1
  20618223.589    -4150979.617 7  -3179355.174 2
  22003001.058    -7986669.795 6  -5916553.751 1
  23107962.573    -6688401.115 5  -4928759.013 1
 90 10 12 12 25 29.9990000  0  5 02 18 06 13 09
  20826289.495      393416.270 7    308239.373 3
  23487460.167     5725849.401 5   2561332.913 1
  20612921.253    -4178846.821 7  -3201069.877 2
  21992297.034    -8042903.266 6  -5960372.034 1
  23098143.276    -6739985.594 5  -4968954.707 1
 90 10 12 12 25 44.9990000  0  5 02 18 06 13 09
  20827489.651      399725.812 7    313155.898 3
  23496218.206     5771867.654 5   2597191.278 1
  20607631.870    -4206640.985 7  -3222727.660 2
  21981614.401    -8099043.159 6  -6004117.404 1
  23088338.300    -6791558.789 5  -5009141.575 1
 90 10 12 12 25 59.9990000  0  5 02 18 06 13 09
  20828698.104      406080.124 7    318107.311 3
  23504981.261     5817902.225 5   2633062.353 1
  20602356.104    -4234363.998 7  -3244330.003 2
  21970949.909    -8155091.032 6  -6047791.055 1
  23078522.769    -6843122.640 5  -5049321.205 1
 90 10 12 12 26 14.9990000  0  5 02 18 06 13 09
  20829916.417      412478.745 7    323093.251 3
  23513745.894     5863952.525 5   2668945.676 1
  20597093.628    -4262016.058 7  -3265877.062 2
  21960301.159    -8211047.131 6  -6091393.179 1
  23068714.925    -6894677.414 5  -5089493.719 1
 90 10 12 12 26 29.9990000  0  5 02 18 06 13 09
  20831143.558      418924.088 7    328115.600 3
  23522511.339     5910020.499 5   2704842.781 1
  20591846.159    -4289594.065 7  -3287366.409 2
  21949671.409    -8266908.397 6  -6134921.425 1
  23058900.253    -6946220.099 5  -5129656.844 1
 90 10 12 12 26 44.9990000  0  5 02 18 06 13 09
  20832377.339      425413.577 7    333172.345 3
  23531277.995     5956103.365 5   2740751.480 1
  20586611.839    -4317100.466 7  -3308799.959 2
  21939059.175    -8322677.197 6  -6178377.639 1
  23049091.456    -6997753.337 5  -5169812.593 1
 90 10 12 12 26 59.9990000  0  5 02 18 06 13 09
  20833621.097      431948.569 7    338264.541 3
  23540051.472     6002201.714 5   2776672.256 1
  20581391.433    -4344533.752 7  -3330176.540 2
  21928465.151    -8378351.833 7  -6221760.470 1
  23039294.440    -7049275.431 5  -5209959.664 1
 90 10 12 12 27 14.9990000  0  5 02 18 06 13 09
  20834872.448      438525.543 7    343389.455 3
  23548826.183     6048312.142 5   2812602.409 1
  20576184.612    -4371896.863 7  -3351498.442 2
  21917887.987    -8433935.178 7  -6265072.160 1
  23029489.073    -7100789.421 5  -5250100.409 1
 90 10 12 12 27 29.9990000  0  5 02 18 06 13 09
  20836133.386      445150.616 7    348551.852 3
  23557602.979     6094440.547 5   2848546.625 1
  20570992.956    -4399183.400 7  -3372760.668 2
  21907330.901    -8489420.797 7  -6308307.690 1
  23019684.081    -7152289.096 5  -5290230.012 1
 90 10 12 12 27 44.9990000  0  5 02 18 06 13 09
  20837402.339      451813.588 7    353743.782 3
  23566381.706     6140576.512 5   2884496.684 1
  20565813.198    -4426403.250 7  -3393970.937 2
  21896788.284    -8544818.728 7  -6351474.900 1
  23009891.823    -7203784.462 5  -5330356.259 1
 90 10 12 12 27 59.9990000  0  5 02 18 06 13 09
  20838678.440      458520.729 7    358970.126 3
  23575166.433     6186725.562 5   2920456.952 1
  20560646.815    -4453550.088 7  -3415124.315 2
  21886264.167    -8600122.404 7  -6394568.657 1
  23000094.526    -7255269.072 5  -5370474.110 1
 90 10 12 12 28 14.9990000  0  5 02 18 06 13 09
  20839964.480      465278.860 7    364236.193 3
  23583947.526     6232894.368 5   2956432.624 1
  20555496.519    -4480616.458 7  -3436214.993 2
  21875758.690    -8655324.640 7  -6437583.365 1
  22990295.847    -7306735.689 5  -5410577.948 1
 90 10 12 12 28 29.9990000  0  5 02 18 06 13 09
  20841258.058      472081.514 7    369536.963 3
  23592741.394     6279076.160 5   2992418.410 1
  20550359.737    -4507608.530 7  -3457247.779 2
  21865273.058    -8710431.462 6  -6480523.729 1
  22980506.136    -7358190.568 5  -5450672.652 1
 90 10 12 12 28 44.9990000  0  5 02 18 06 13 09
  20842561.300      478927.349 7    374871.378 3
  23601527.128     6325269.218 5   3028413.007 1
  20545236.565    -4534527.510 7  -3478223.605 2
  21854803.854    -8765443.800 7  -6523390.472 1
  22970715.605    -7409634.665 5  -5490758.932 1
 90 10 12 12 28 59.9990000  0  5 02 18 06 13 09
  20843872.339      485815.054 7    380238.417 3
  23610317.526     6371472.245 5   3064415.324 1
  20540126.925    -4561374.311 7  -3499143.180 2
  21844353.440    -8820362.721 7  -6566184.412 1
  22960928.808    -7461069.346 5  -5530837.892 1
 90 10 12 12 29 14.9990000  0  5 02 18 06 13 09
  20845189.612      492741.894 7    385635.956 3
  23619113.058     6417681.789 5   3100422.747 1
  20535033.315    -4588151.335 7  -3520008.387 2
  21833919.183    -8875190.753 7  -6608907.540 1
  22951142.370    -7512497.055 5  -5570911.407 1
 90 10 12 12 29 29.9990000  0  5 02 18 06 13 09
  20846517.370      499711.586 7    391066.881 3
  23627907.933     6463901.407 5   3136437.979 1
  20529951.425    -4614854.521 7  -3540816.064 2
  21823504.526    -8929923.624 7  -6651556.517 1
  22941364.644    -7563913.548 5  -5610976.191 1
 90 10 12 12 29 44.9990000  0  5 02 18 06 13 09
  20847852.339      506726.915 7    396533.374 3
  23636706.495     6510133.966 5   3172463.353 1
  20524884.909    -4641480.661 7  -3561563.697 2
  21813107.839    -8984557.837 7  -6694128.619 1
  22931574.464    -7615315.763 5  -5651029.836 1
 90 10 12 12 29 59.9990000  0  5 02 18 06 13 09
  20849195.542      513783.767 7    402032.226 3
  23645506.948     6556374.587 5   3208494.941 1
  20519833.167    -4668033.703 7  -3582254.381 2
  21802730.144    -9039097.346 7  -6736626.920 1
  22921796.479    -7666707.626 5  -5691075.437 1
 90 10 12 12 30 14.9990000  0  5 02 18 06 13 09
  20850545.276      520883.000 7    407564.098 3
  23654307.628     6602624.054 5   3244533.480 1
  20514792.706    -4694512.560 7  -3602887.249 2
  21792368.261    -9093541.113 7  -6779050.617 1
  22912016.815    -7718088.197 5  -5731112.227 1
 90 10 12 12 30 29.9990000  0  5 02 18 06 13 09
  20851903.823      528025.213 7    413129.460 3
  23663114.159     6648882.523 5   3280579.006 1
  20509769.378    -4720916.008 7  -3623461.359 2
  21782027.253    -9147888.174 7  -6821398.958 1
  22902248.909    -7769456.393 5  -5771139.381 1
 90 10 12 12 30 44.9990000  0  5 02 18 06 13 09
  20853272.745      535217.324 7    418733.702 3
  23671914.519     6695156.674 5   3316636.781 1
  20504759.479    -4747236.878 7  -3643971.122 2
  21771703.808    -9202131.422 7  -6863666.400 1
  22892475.776    -7820805.182 5  -5811151.395 1
 90 10 12 12 30 59.9990000  0  5 02 18 06 13 09
  20854650.034      542457.156 7    424375.126 3
  23680725.870     6741443.963 5   3352704.736 1
  20499766.604    -4773477.192 7  -3664418.113 2
  21761402.112    -9256272.414 7  -6905854.173 1
  22882705.808    -7872136.340 5  -5851149.679 1
 90 10 12 12 31 14.9990000  0  5 02 18 06 13 09
  20856036.776      549740.399 7    430050.380 3
  23689530.675     6787739.933 5   3388779.502 1
  20494787.229    -4799640.806 7  -3684805.341 2
  21751117.128    -9310315.023 7  -6947965.272 1
  22872938.636    -7923453.830 5  -5891137.320 1
 90 10 12 12 31 29.9990000  0  5 02 18 06 13 09
  20857430.253      557065.600 7    435758.322 3
  23698348.190     6834042.810 5   3424859.636 1
  20489822.136    -4825728.800 7  -3705133.647 2
  21740853.167    -9364260.393 7  -6990000.601 1
  22863176.948    -7974759.015 5  -5931115.352 1
 90 10 12 12 31 44.9990000  0  5 02 18 06 13 09
  20858833.940      564433.582 7    441499.605 3
  23707160.979     6880353.086 5   3460945.548 1
  20484873.323    -4851740.210 7  -3725402.270 2
  21730605.886    -9418107.556 7  -7031959.422 1
  22853415.339    -8026050.826 5  -5971082.980 1
 90 10 12 12 31 59.9990000  0  5 02 18 06 13 09
  20860242.604      571843.531 7    447273.595 3
  23715970.464     6926669.549 5   3497036.274 1
  20479938.331    -4877675.705 7  -3745611.736 2
  21720378.112    -9471856.919 7  -7073842.035 1
  22843663.019    -8077329.854 5  -6011040.647 1
 90 10 12 12 32 14.9990000  0  5 02 18 06 13 09
  20861661.050      579296.175 7    453080.853 3
  23724786.706     6972992.447 5   3533131.996 1
  20475018.167    -4903533.819 7  -3765760.902 2
  21710168.190    -9525507.305 7  -7115647.516 1
  22833907.026    -8128595.016 5  -6050987.513 1
 90 10 12 12 32 29.9990000  0  5 02 18 06 13 09
  20863087.542      586795.339 7    458924.354 3
  23733602.573     7019325.368 5   3569235.556 1
  20470112.292    -4929310.746 7  -3785846.811 2
  21699978.487    -9579054.715 7  -7157372.747 1
  22824148.753    -8179842.325 5  -6090920.453 1
 90 10 12 12 32 44.9990000  0  5 02 18 06 13 09
  20864523.581      594337.183 7    464801.124 3
  23742420.831     7065664.126 5   3605343.650 1
  20465222.565    -4955010.074 7  -3805872.263 2
  21689806.839    -9632502.549 7  -7199020.406 1
  22814396.417    -8231075.424 5  -6130842.327 1
 90 10 12 12 32 59.9990000  0  5 02 18 06 13 09
  20865966.862      601921.353 7    470710.859 3
  23751240.831     7112008.252 5   3641455.915 1
  20460345.409    -4980631.454 7  -3825836.967 2
  21679656.050    -9685850.636 7  -7240590.323 1
  22804652.589    -8282294.143 5  -6170752.996 1
 90 10 12 12 33 14.9990000  0  5 02 18 06 13 09
  20867419.214      609551.129 7    476656.133 3
  23760060.159     7158360.683 5   3677574.685 1
  20455485.120    -5006171.395 7  -3845738.217 2
  21669523.347    -9739095.609 7  -7282079.892 1
  22794914.097    -8333494.806 5  -6210649.607 1
 90 10 12 12 33 29.9990000  0  5 02 18 06 13 09
  20868877.261      617222.590 7    482633.904 3
  23768882.362     7204717.145 5   3713696.576 1
  20450640.237    -5031633.689 7  -3865578.960 2
  21659409.237    -9792241.225 7  -7323492.036 1
  22785168.815    -8384681.299 5  -6250535.165 1
 90 10 12 12 33 44.9990000  0  5 02 18 06 13 09
  20870346.081      624935.592 7    488644.035 3
  23777706.526     7251077.106 5   3749821.163 1
  20445810.042    -5057018.126 7  -3885359.033 2
  21649316.776    -9845287.115 7  -7364826.476 1
  22775428.058    -8435853.764 5  -6290409.792 1
 90 10 12 12 33 59.9990000  0  5 02 18 06 13 09
  20871823.034      632698.508 7    494693.058 3
  23786532.222     7297448.653 5   3785954.828 1
  20440995.808    -5082316.018 7  -3905071.672 2
  21639242.808    -9898224.630 7  -7406076.482 1
  22765693.050    -8487003.371 5  -6330266.613 1
 90 10 12 12 34 14.9990000  0  5 02 18 06 13 09
  20873306.589      640502.064 7    500773.739 3
  23795355.550     7343822.264 5   3822090.033 1
  20436197.292    -5107536.235 7  -3924723.789 2
  21629186.995    -9951062.686 7  -7447248.989 1
  22755966.612    -8538138.989 5  -6370112.542 1
 90 10 12 12 34 29.9990000  0  5 02 18 06 13 09
  20874800.417      648348.760 7    506888.053 3
  23804179.604     7390200.407 5   3858228.850 1
  20431413.065    -5132675.843 7  -3944313.092 2
  21619151.409   -10003798.234 7  -7488341.623 1
  22746242.167    -8589257.756 5  -6409945.322 1
 90 10 12 12 34 44.9990000  0  5 02 18 06 13 09
  20876304.011      656243.145 7    513039.522 3
  23813008.448     7436586.990 5   3894374.182 1
  20426645.847    -5157730.095 7  -3963835.872 2
  21609137.034   -10056426.434 7  -7529350.599 1
  22736521.901    -8640355.009 5  -6449761.338 1
 90 10 12 12 34 59.9990000  0  5 02 18 06 13 09
  20877812.831      664180.289 7    519224.309 3
  23821834.644     7482976.740 5   3930522.052 1
  20421893.854    -5182703.742 7  -3983295.850 2
  21599142.909   -10108952.106 7  -7570279.678 1
  22726797.409    -8691435.497 5  -6489564.295 1
 90 10 12 12 35 14.9990000  0  5 02 18 06 13 09
  20879332.534      672161.452 7    525443.393 3
  23830662.440     7529370.844 5   3966673.213 1
  20417155.761    -5207595.134 7  -4002691.741 2
  21589167.112   -10161373.465 7  -7611127.497 1
  22717078.151    -8742497.491 5  -6529352.822 1
 90 10 12 12 35 29.9990000  0  5 02 18 06 13 09
  20880858.722      680183.861 7    531694.644 3
  23839488.886     7575765.924 5   4002825.269 1
  20412434.940    -5232406.862 7  -4022025.553 2
  21579209.690   -10213693.066 7  -7651896.002 1
  22707362.901    -8793543.867 5  -6569129.208 1
 90 10 12 12 35 44.9990000  0  5 02 18 06 13 09
  20882393.667      688247.786 7    537978.217 3
  23848320.737     7622162.306 5   4038978.197 1
  20407728.706    -5257138.079 7  -4041296.632 2
  21569274.683   -10265910.049 7  -7692584.532 1
  22697655.276    -8844573.796 5  -6608892.760 1
 90 10 12 12 35 59.9990000  0  5 02 18 06 13 09
  20883937.354      696356.908 7    544297.018 3
  23857151.565     7668562.926 5   4075134.499 1
  20403037.987    -5281784.881 7  -4060501.928 2
  21559356.948   -10318020.938 7  -7733190.425 1
  22687948.401    -8895583.414 5  -6648640.507 1
 90 10 12 12 36 14.9990000  0  5 02 18 06 13 09
  20885489.042      704507.775 7    550648.341 3
  23865979.964     7714964.252 5   4111291.378 1
  20398363.964    -5306350.467 7  -4079643.936 2
  21549461.784   -10370028.554 7  -7773715.850 1
  22678246.440    -8946575.852 5  -6688374.843 1
 90 10 12 12 36 29.9990000  0  5 02 18 06 13 09
  20887045.690      712698.627 7    557030.818 3
  23874811.026     7761364.269 5   4147447.127 1
  20393704.401    -5330836.420 7  -4098723.890 2
  21539583.862   -10421934.297 7  -7814161.899 1
  22668546.120    -8997552.566 5  -6728096.940 1
 90 10 12 12 36 44.9990000  0  5 02 18 06 13 09
  20888612.479      720933.380 7    563447.503 3
  23883640.972     7807766.372 5   4183604.660 1
  20389061.112    -5355238.335 7  -4117738.369 2
  21529726.886   -10473733.908 7  -7854525.220 1
  22658849.573    -9048509.489 5  -6767803.611 1
 90 10 12 12 36 59.9990000  0  5 02 18 06 13 09
  20890189.933      729214.170 7    569900.057 3
  23892468.378     7854172.518 5   4219765.244 1
  20384433.933    -5379553.615 7  -4136685.334 2
  21519889.995   -10525424.961 7  -7894803.946 1
  22649155.526    -9099443.961 5  -6807492.788 1
 90 10 12 12 37 14.9990000  0  5 02 18 06 13 09
  20891772.761      737534.689 7    576383.578 3
  23901300.526     7900576.261 5   4255923.953 1
  20379822.456    -5403788.552 7  -4155569.696 2
  21510073.628   -10577013.485 7  -7935002.770 1
  22639464.104    -9150362.248 5  -6847169.362 1
 90 10 12 12 37 29.9990000  0  5 02 18 06 13 09
  20893364.784      745899.893 7    582901.923 3
  23910130.362     7946982.232 5   4292084.403 1
  20375226.675    -5427937.641 7  -4174387.167 2
  21500275.472   -10628494.110 7  -7975117.528 1
  22629782.854    -9201259.001 5  -6886829.145 1
 90 10 12 12 37 44.9990000  0  5 02 18 06 13 09
  20894963.972      754311.127 7    589456.135 3
  23918962.331     7993391.232 5   4328247.267 1
  20370648.315    -5451999.354 7  -4193136.554 2
  21490502.003   -10679865.358 7  -8015147.072 1
  22620098.558    -9252132.524 5  -6926470.837 1
 90 10 12 12 37 59.9990000  0  5 02 18 06 13 09
  20896574.073      762766.531 7    596044.748 3
  23927796.440     8039801.377 5   4364410.933 1
  20366085.417    -5475975.144 7  -4211818.985 2
  21480746.690   -10731128.587 7  -8055092.442 1
  22610421.800    -9302984.457 5  -6966095.697 1
 90 10 12 12 38 14.9990000  0  5 02 18 06 13 09
  20898191.237      771264.424 7    602666.473 3
  23936626.151     8086210.233 5   4400573.704 1
  20361538.972    -5499866.454 7  -4230435.577 2
  21471011.011   -10782285.443 7  -8094954.912 1
  22600749.831    -9353816.515 5  -7005705.070 1
 90 10 12 12 38 29.9990000  0  5 02 18 06 13 09
  20899817.151      779803.663 7    609320.422 3
  23945459.261     8132616.852 5   4436734.609 1
  20357009.003    -5523674.276 7  -4248987.118 2
  21461296.034   -10833336.362 7  -8134734.843 1
  22591080.612    -9404629.257 6  -7045299.387 1
 90 10 12 12 38 44.9990000  0  5 02 18 06 13 09
  20901449.901      788386.870 7    616008.639 3
  23954286.987     8179023.527 5   4472895.660 1
  20352494.128    -5547395.281 7  -4267471.014 2
  21451601.745   -10884278.591 7  -8174430.063 1
  22581415.292    -9455419.706 6  -7084876.354 1
 90 10 12 12 38 59.9990000  0  5 02 18 06 13 09
  20903091.573      797013.390 7    622730.601 3
  23963119.683     8225428.878 5   4509055.620 1
  20347996.659    -5571030.104 7  -4285887.757 2
  21441928.214   -10935112.619 7
  22571759.425    -9506188.454 6
 90 10 12 12 39 14.9990000  0  5 02 18 06 13 09
  20904740.823      805685.129 7    629487.804 3
  23971948.448     8271834.358 5   4545215.712 1
  20343515.690    -5594576.732 7  -4304235.777 2
  21432276.886   -10985835.981 7
  22562099.722    -9556933.321 6
 90 10 12 12 39 29.9990000  0  5 02 18 06 13 09
  20906400.823      814400.765 7    636279.206 3
  23980780.479     8318238.736 5   4581374.952 1
  20339052.933    -5618035.963 7  -4322515.698 2
  21422644.042   -11036449.807 7  -8293004.983 1
  22552449.753    -9607655.483 6  -7203501.567 1
 90 10 12 12 39 44.9990000  0  5 02 18 06 13 09
  20908065.667      823158.969 7    643103.775 3
  23989609.604     8364640.597 5   4617532.202 1
  20334605.753    -5641408.639 7  -4340728.174 2
  21413033.183   -11086955.113 7  -8332359.737 1
  22542801.440    -9658355.658 6  -7243008.182 1
 90 10 12 12 39 59.9990000  0  5 02 18 06 13 09
  20909740.636      831956.524 7    649959.011 3
  23998440.909     8411036.132 5   4653684.535 1
  20330173.042    -5664697.806 7  -4358875.577 2
  21403442.534   -11137354.740 7  -8371632.137 1
  22533155.167    -9709036.851 6  -7282500.005 1
 90 10 12 12 40 14.9990000  0  5 02 18 06 13 09
  20911422.526      840792.761 7    656844.384 3
  24007264.073     8457424.226 4   4689831.042 1
  20325756.808    -5687904.068 7  -4376958.367 2
  21393873.472   -11187649.360 7  -8410822.733 1
  22523511.331    -9759699.583 6  -7321977.438 1
 90 10 12 12 40 29.9990000  0  5 02 18 06 13 09
  20913111.175      849669.541 7    663761.353 3
  24016094.776     8503806.394 5   4725972.978 1
  20321357.245    -5711024.950 7  -4394974.637 2
  21384322.784   -11237836.599 7  -8449929.669 1
  22513875.784    -9810341.836 6  -7361438.918 1
 90 10 12 12 40 44.9990000  0  5 02 18 06 13 09
  20914808.995      858588.764 7    670711.393 3
  24024919.058     8550184.797 5   4762111.924 1
  20316973.925    -5734058.331 7  -4412922.728 2
  21374792.261   -11287914.129 7  -8488951.105 1
  22504244.386    -9860961.037 6  -7400882.424 1
 90 10 12 12 40 59.9990000  0  5 02 18 06 13 09
  20916513.784      867554.235 7    677697.468 3
  24033744.448     8596562.477 4   4798250.390 1
  20312607.933    -5757000.196 7  -4430799.502 2
  21365285.690   -11337878.065 7  -8527884.022 1
  22494617.315    -9911553.330 6  -7440304.972 1
 90 10 12 12 41 14.9990000  0  5 02 18 06 13 09
  20918228.573      876563.137 7    684717.393 3
  24042565.479     8642936.666 4   4834386.059 1
  20308258.651    -5779852.744 7  -4448606.671 2
  21355798.495   -11387730.544 7  -8566730.101 1
  22484994.448    -9962121.084 6  -7479708.386 1
 90 10 12 12 41 29.9990000  0  5 02 18 06 13 09
  20919951.987      885616.117 7    691771.656 3
  24051394.456     8689307.237 4   4870518.925 1
  20303927.628    -5802615.140 7  -4466343.600 2
  21346334.097   -11437470.865 7  -8605488.787 1
  22475376.550   -10012663.575 6  -7519092.132 1
 90 10 12 12 41 44.9990000  0  5 02 18 06 13 09
  20921682.050      894709.686 7    698857.557 3
  24060216.073     8735670.709 4   4906646.246 1
  20299613.706    -5825290.776 7  -4484012.920 2
  21336887.870   -11487102.271 7  -8644162.607 1
  22465762.886   -10063183.907 6  -7558458.604 1
 90 10 12 12 41 59.9990000  0  5 02 18 06 13 09
  20923420.464      903843.293 7    705974.652 3
  24069036.292     8782025.925 5   4942767.207 1
  20295314.104    -5847879.840 7  -4501614.786 2
  21327464.464   -11536624.915 7  -8682751.676 1
  22456153.894   -10113682.390 6  -7597808.065 1
 90 10 12 12 42 14.9990000  0  5 02 18 06 13 09
  20925164.831      913019.181 7    713124.691 3
  24077856.761     8828375.019 4   4978883.306 1
  20291032.698    -5870379.887 7  -4519147.278 2
  21318063.261   -11586036.484 7  -8721254.190 1
  22446545.659   -10164156.709 6  -7637138.684 1
 90 10 12 12 42 29.9990000  0  5 02 18 06 13 09
  20926920.823      922237.020 7    720307.426 3
  24086675.198     8874717.012 5   5014993.941 1
  20286768.245    -5892790.860 7  -4536610.371 2
  21308680.870   -11635336.948 7  -8759670.130 1
  22436946.620   -10214606.760 6  -7676450.391 1
 90 10 12 12 42 44.9990000  0  5 02 18 06 13 09
  20928682.362      931495.664 7    727521.961 3
  24095493.597     8921051.074 5   5051098.329 1
  20282520.722    -5915113.488 7  -4554004.627 2
  21299319.503   -11684526.979 7  -8798000.008 1
  22427354.386   -10265033.311 6  -7715743.797 1
 90 10 12 12 42 59.9990000  0  5 02 18 06 13 09
  20930451.706      940796.372 7    734769.266 3
  24104306.542     8967377.792 4   5087197.075 1
  20278289.042    -5937346.401 7  -4571328.974 2
  21289981.175   -11733605.207 7  -8836242.771 1
  22417761.573   -10315434.908 6  -7755017.742 1
 90 10 12 12 43 14.9990000  0  5 02 18 06 13 09
  20932229.808      950139.117 7    742049.311 3
  24113118.167     9013696.946 5   5123289.870 1
  20274075.886    -5959489.105 7  -4588583.022 2
  21280662.886   -11782571.062 7  -8874397.984 1
  22408174.698   -10365811.139 6  -7794271.933 1
 90 10 12 12 43 29.9990000  0  5 02 18 06 13 09
  20934017.167      959527.297 7    749364.775 3
  24121932.604     9060011.337 4   5159378.979 1
  20269879.870    -5981538.100 7  -4605764.055 2
  21271366.683   -11831421.199 7  -8912463.017 1
  22398593.519   -10416158.565 6  -7833503.665 1
 90 10 12 12 43 44.9990000  0  5 02 18 06 13 09
  20935809.386      968954.967 7    756711.009 3
  24130744.534     9106314.937 4   5195459.673 1
  20265701.854    -6003498.856 7  -4622876.324 2
  21262090.979   -11880161.250 7  -8950442.270 1
  22389015.847   -10466482.689 6  -7872717.252 1
 90 10 12 12 43 59.9990000  0  5 02 18 06 13 09
  20937612.886      978425.590 7    764090.715 3
  24139554.683     9152610.745 4   5231534.258 1
  20261539.550    -6025367.883 7  -4639917.122 2
  21252839.269   -11928787.334 7  -8988332.724 1
  22379448.112   -10516779.967 6  -7911909.920 1
 90 10 12 12 44 14.9990000  0  5 02 18 06 13 09
  20939422.901      987938.227 7    771503.152 3
  24148363.097     9198897.663 4   5267601.951 1
  20257395.854    -6047145.535 7  -4656886.714 2
  21243607.120   -11977300.143 7  -9026134.907 1
  22369880.651   -10567050.769 6  -7951081.947 1
 90 10 12 12 44 29.9990000  0  5 02 18 06 13 09
  20941240.081      997489.409 7    778945.623 3
  24157168.495     9245172.182 4   5303659.971 1
  20253268.550    -6068835.018 7  -4673787.610 2
  21234395.198   -12025702.948 7  -9063851.378 1
  22360315.612   -10617298.360 6  -7990235.905 1
 90 10 12 12 44 44.9990000  0  5 02 18 06 13 09
  20943067.222     1007083.652 7    786421.651 3
  24165973.308     9291438.213 5   5339711.407 1
  20249158.581    -6090431.666 7  -4690616.173 2
  21225207.644   -12073990.951 7  -9101478.388 1
  22350755.776   -10667518.069 6  -8029368.120 1
 90 10 12 12 44 59.9990000  0  5 02 18 06 13 09
  20944901.097     1016723.278 7    793933.045 3
  24174771.894     9337697.991 4   5375757.954 1
  20245067.104    -6111932.755 7  -4707370.272 2
  21216040.690   -12122161.354 7  -9139013.760 1
  22341211.229   -10717707.064 6  -8068476.422 1
 90 10 12 12 45 14.9990000  0  5 02 18 06 13 09
  20946742.651     1026402.916 7    801475.611 3
  24183577.526     9383945.538 5   5411794.923 1
  20240992.347    -6133343.359 7  -4724053.852 2
  21206895.401   -12170219.226 7  -9176461.451 1
  22331666.386   -10767870.591 6  -8107564.866 1
 90 10 12 12 45 29.9990000  0  5 02 18 06 13 09
  20948593.581     1036125.695 7    809051.799 3
  24192376.456     9430183.915 4   5447824.828 1
  20236936.425    -6154659.955 7  -4740664.179 2
  21197773.659   -12218161.199 7  -9213818.855 1
  22322123.253   -10818005.147 6  -8146630.731 1
 90 10 12 12 45 44.9990000  0  5 02 18 06 13 09
  20950449.284     1045888.113 7    816658.879 3
  24201173.745     9476409.119 5   5483844.385 1
  20232896.940    -6175886.107 7  -4757204.046 2
  21188671.284   -12265990.597 7  -9251088.528 1
  22312588.112   -10868114.045 6  -8185676.611 1
 90 10 12 12 45 59.9990000  0  5 02 18 06 13 09
  20952317.339     1055694.618 7    824300.297 3
  24209968.206     9522625.138 4   5519856.860 1
  20228874.511    -6197016.772 7  -4773669.495 2
  21179592.706   -12313702.643 7  -9288266.753 1
  22303057.722   -10918192.577 6  -8224698.831 1
 90 10 12 12 46 14.9990000  0  5 02 18 06 13 09
  20954190.440     1065542.030 7    831973.600 3
  24218758.269     9568828.698 4   5555859.567 1
  20224872.737    -6218054.937 7  -4790062.859 2
  21170535.183   -12361300.295 7  -9325355.829 1
  22293536.620   -10968243.615 6  -8263699.618 1
 90 10 12 12 46 29.9990000  0  5 02 18 06 13 09
  20956072.612     1075432.469 7    839680.437 3
  24227552.276     9615021.757 4   5591854.125 1
  20220887.565    -6238997.967 7  -4806382.105 2
  21161498.081   -12408781.134 7  -9362353.867 1
  22284017.065   -11018264.547 6  -8302676.958 1
 90 10 12 12 46 44.9990000  0  5 02 18 06 13 09
  20957962.753     1085362.620 7    847418.216 3
  24236338.409     9661200.471 4   5627837.506 1
  20216919.042    -6259849.219 7  -4822629.827 2
  21152486.081   -12456148.428 7  -9399263.430 1
  22274500.433   -11068258.564 6  -8341633.319 1
 90 10 12 12 46 59.9990000  0  5 02 18 06 13 09
  20959860.167     1095336.771 7    855190.273 2
  24245124.065     9707368.864 4   5663812.813 1
  20212969.948    -6280604.110 7  -4838802.469 2
  21143494.472   -12503397.692 7  -9436081.022 1
  22264995.050   -11118221.172 6  -8380565.201 1
 90 10 12 12 47 14.9990000  0  5 02 18 06 13 09
  20961766.034     1105353.619 7    862995.607 2
  24253911.792     9753525.516 4   5699778.932 1
  20209038.628    -6301263.366 7  -4854900.581 2
  21134525.784   -12550529.681 7  -9472807.222 1
  22255492.987   -11168153.036 6  -8419473.142 1
 90 10 12 12 47 29.9990000  0  5 02 18 06 13 09
  20963680.300     1115409.865 7    870831.637 3
  24262688.276     9799666.557 4   5735733.012 1
  20205124.487    -6321830.209 7  -4870926.689 2
  21125576.948   -12597547.379 7  -9509444.367 1
  22245997.800   -11218057.758 6  -8458359.915 1
 90 10 12 12 47 44.9990000  0  5 02 18 06 13 09
  20965601.980     1125507.385 7    878699.833 3
  24271463.925     9845793.648 4   5771676.113 1
  20201229.198    -6342302.430 7  -4886879.064 2
  21116652.503   -12644448.612 7  -9545990.783 1
  22236505.698   -11267932.805 6  -8497223.572 1
 90 10 12 12 47 59.9990000  0  5 02 18 06 13 09
  20967532.995     1135649.228 7    886602.568 3
  24280239.214     9891909.496 3   5807610.516 1
  20197350.956    -6362676.892 7  -4902755.262 2
  21107750.714   -12691230.177 7  -9582443.956 1
  22227018.839   -11317774.866 6  -8536061.520 1
 90 10 12 12 48 14.9990000  0  5 02 18 06 13 09
  20969469.073     1145833.550 7    894538.407 2
  24289014.456     9938012.169 4   5843534.644 1
  20193493.206    -6382954.800 7  -4918556.227 2
  21098870.737   -12737893.829 7  -9618805.240 1
  22217542.542   -11367585.528 6  -8574875.000 1
 90 10 12 12 48 29.9990000  0  5 02 18 06 13 09
  20971415.472     1156055.631 7    902503.656 2
  24297782.331     9984096.251 4   5879444.278 1
  20189651.261    -6403140.815 7  -4934285.583 2
  21090012.636   -12784444.110 7  -9655078.191 1
  22208068.558   -11417369.292 6  -8613667.538 1
 90 10 12 12 48 44.9990000  0  5 02 18 06 13 09
  20973366.894     1166318.759 7    910500.893 2
  24306550.651    10030164.997 4   5915341.898 1
  20185828.206    -6423231.329 7  -4949940.527 2
  21081178.339   -12830877.072 7  -9691259.712 1
  22198601.003   -11467122.515 6  -8652436.265 1
 90 10 12 12 48 59.9990000  0  5 02 18 06 13 09
  20975328.308     1176622.140 7    918529.497 3
  24315312.479    10076217.298 4   5951226.806 1
  20182023.894    -6443226.626 7  -4965521.275 2
  21072364.034   -12877193.287 7  -9727350.251 1
  22189138.378   -11516845.673 6  -8691181.562 1
 90 10 12 12 49 14.9990000  0  5 02 18 06 13 09
  20977296.972     1186967.110 7    926590.498 3
  24324075.979    10122254.055 4   5987099.506 1
  20178236.940    -6463125.339 7  -4981026.762 2
  21063573.050   -12923391.175 7  -9763348.594 1
  22179680.925   -11566537.007 6  -8729902.066 1
 90 10 12 12 49 29.9990000  0  5 02 18 06 13 09
  20979274.651     1197353.864 7    934684.059 3
  24332834.331    10168275.236 4   6022960.195 1
  20174468.198    -6482926.907 7  -4996456.557 2
  21054802.628   -12969470.308 7  -9799254.403 1
  22170236.347   -11616196.181 6  -8768597.513 1
 90 10 12 12 49 44.9990000  0  5 02 18 06 13 09
  20981258.370     1207784.288 7    942811.654 3
  24341586.722    10214282.367 4   6058809.791 1
  20170720.542    -6502629.177 7  -5011808.973 2
  21046058.128   -13015428.797 7  -9835066.195 1
  22160788.105   -11665821.176 6  -8807266.325 1
 90 10 12 12 49 59.9990000  0  5 02 18 06 13 09
  20983250.128     1218253.396 7    950969.397 2
  24350334.808    10260270.169 4   6094644.391 1
  20166988.433    -6522236.684 7  -5027087.545 2
  21037334.230   -13061271.038 7  -9870787.418 1
  22151354.964   -11715416.185 6  -8845911.771 1
 90 10 12 12 50 14.9990000  0  5 02 18 06 13 09
  20985250.136     1228764.703 7    959160.028 2
  24359088.987    10306241.962 3   6130466.576 1
  20163276.323    -6541745.807 7  -5042289.470 2
  21028633.214   -13106993.294 7  -9906415.136 1
  22141920.737   -11764977.658 6  -8884531.084 1
 90 10 12 12 50 29.9990000  0  5 02 18 06 13 09
  20987259.612     1239318.736 7    967383.935 2
  24367830.808    10352198.081 4   6166276.425 1
  20159582.237    -6561155.822 7  -5057414.157 2
  21019955.073   -13152595.210 7  -9941949.086 1
  22132496.120   -11814505.085 6  -8923123.864 1
 90 10 12 12 50 44.9990000  0  5 02 18 06 13 09
  20989275.581     1249915.152 7    975640.876 3
  24376571.144    10398137.339 3   6202073.231 1
  20155908.230    -6580466.607 7  -5072461.519 2
  21011301.354   -13198076.621 7  -9977389.134 1
  22123077.073   -11863998.272 6  -8961689.966 1
 90 10 12 12 50 59.9990000  0  5 02 18 06 13 09
  20991299.776     1260549.584 7    983927.444 2
  24385311.409    10444055.463 4   6237853.530 1
  20152251.214    -6599682.379 7  -5087434.841 2
  21002667.706   -13243441.728 7 -10012738.550 1
  22113666.065   -11913461.294 6  -9000232.563 1
 90 10 12 12 51 14.9990000  0  5 02 18 06 13 09
  20993329.995     1271227.071 7    992247.553 3
  24394044.409    10489957.275 3   6273621.114 1
  20148613.862    -6618797.727 7  -5102329.919 2
  20994057.550   -13288685.109 7 -10047993.128 1
  22104260.284   -11962888.812 6  -9038747.499 1
 90 10 12 12 51 29.9990000  0  5 02 18 06 13 09
  20995371.581     1281945.958 7   1000599.926 2
  24402779.605    10535840.941 3   6309374.502 1
  20144995.011    -6637813.861 7  -5117147.684 2
  20985472.362   -13333807.940 7 -10083153.765 1
  22094859.597   -12012281.977 6  -9077235.656 1
 90 10 12 12 51 44.9990000  0  5 02 18 06 13 09
  20997418.745     1292708.879 7   1008986.614 2
  24411505.972    10581708.382 3   6345115.381 1
  20141395.612    -6656728.051 7  -5131886.015 2
  20976909.542   -13378807.599 7 -10118218.421 1
  22085467.362   -12061638.078 6  -9115694.941 1
 90 10 12 12 51 59.9990000  0  5 02 18 06 13 09
  20999474.167     1303512.133 7   1017404.726 2
  24420226.308    10627555.815 3   6380840.552 1
  20137815.183    -6675543.806 7  -5146547.641 2
  20968368.565   -13423687.564 7 -10153189.815 1
  22076080.354   -12110960.368 6  -9154127.875 1
 90 10 12 12 52 14.9990000  0  5 02 18 06 13 09
  21001538.800     1314360.145 7   1025857.715 2
  24428950.409    10673387.230 4
  20134253.745    -6694256.321 7  -5161128.823 2
  20959851.229   -13468443.179 7 -10188064.313 1
  22066703.745   -12160244.254 6  -9192530.881 1
 90 10 12 12 52 29.9990000  0  5 02 18 06 13 09
  21003611.808     1325251.089 7   1034344.159 2
  24437665.292    10719200.773 2
  20130711.558    -6712867.009 7  -5175630.657 2
  20951358.722   -13513075.725 7 -10222842.905 1
  22057331.362   -12209491.338 6  -9230905.216 1
 90 10 12 12 52 44.9990000  0  5 02 18 06 13 09
  21005691.479     1336181.839 7   1042861.619 2
  24446381.229    10764992.772 3
  20127190.901    -6731378.932 7  -5190055.521 2
  20942888.761   -13557588.381 7 -10257528.083 1
  22047968.339   -12258704.336 6  -9269252.993 1
 90 10 12 12 52 59.9990000  0  5 02 18 06 13 09
  21007779.362     1347152.004 7   1051409.786 2
  24455094.323    10810762.721 3
  20123685.972    -6749792.275 7  -5204403.573 2
  20934440.714   -13601981.364 7 -10292120.013 1
  22038608.940   -12307883.447 6  -9307574.366 1
 90 10 12 12 53 14.9990000  0  5 02 18 06 13 09
  21009875.222     1358162.548 7   1059989.421 2
  24463800.229    10856511.128 3
  20120200.933    -6768105.716 7  -5218673.788 2
  20926016.495   -13646253.465 7 -10326617.743 1
  22029257.651   -12357027.422 6  -9345868.357 1
 90 10 12 12 53 29.9990000  0  5 02 18 06 13 09
  21011978.487     1369213.645 7   1068600.661 2
  24472506.050    10902237.782 4
  20116735.800    -6786318.635 7  -5232865.669 2
  20917613.823   -13690404.319 7 -10361020.992 1
  22019914.331   -12406135.683 6  -9384134.518 1
 90 10 12 12 53 44.9990000  0  4 02 06 13 09
  21014087.839     1380304.931 7   1077243.217 2
  20113288.495    -6804431.317 7  -5246979.445 2
  20909235.034   -13734434.038 7 -10395329.856 1
  22010575.558   -12455208.365 6  -9422372.954 1
 90 10 12 12 53 59.9990000  0  4 02 06 13 09
  21016207.175     1391439.012 7   1085919.115 2
  20109862.636    -6822440.911 7  -5261012.896 2
  20900880.761   -13778339.655 7 -10429542.026 1
  22001243.948   -12504242.446 6  -9460581.310 1
 90 10 12 12 54 14.9990000  0  4 02 06 13 09
  21018333.550     1402614.213 7   1094627.055 2
  20106453.495    -6840348.790 7  -5274967.087 2
  20892548.612   -13822122.608 7 -10463658.599 1
  21991920.534   -12553239.489 6  -9498760.803 1
 90 10 12 12 54 29.9990000  0  4 02 06 13 09
  21020468.925     1413834.709 7   1103370.299 2
  20103067.222    -6858150.223 7  -5288838.338 2
  20884241.503   -13865778.596 7 -10497676.243 1
  21982602.362   -12602194.873 6  -9536907.842 1
 90 10 12 12 54 44.9990000  0  4 02 06 13 09
  21022612.479     1425100.849 7   1112149.097 2
  20099699.628    -6875844.924 7  -5302626.420 2
  20875958.683   -13909307.054 7 -10531594.509 1
  21973295.433   -12651107.997 6  -9575021.942 1
 90 10 12 12 54 59.9990000  0  4 02 06 13 09
  21024763.745     1436403.952 7   1120956.703 2
  20096350.667    -6893441.217 7  -5316337.819 2
  20867697.370   -13952716.429 7 -10565419.990 1
  21963993.433   -12699987.196 6  -9613109.620 1
 90 10 12 12 55 14.9990000  0  4 02 06 13 09
  21026922.386     1447748.995 7   1129796.987 2
  20093021.597    -6910933.780 7  -5329968.384 2
  20859460.175   -13996001.629 7 -10599148.703 1
  21954701.222   -12748827.236 6  -9651166.777 1
 90 10 12 12 55 29.9990000  0  4 02 06 13 09
  21029086.839     1459130.644 7   1138665.799 2
  20089712.386    -6928327.759 7  -5343522.132 2
  20851246.956   -14039167.754 7 -10632784.633 1
  21945413.089   -12797633.307 6  -9689197.467 1
 90 10 12 12 55 44.9990000  0  4 02 06 13 09
  21031263.409     1470558.045 7   1147570.261 2
  20086422.323    -6945613.706 7  -5356991.697 2
  20843057.144   -14082205.393 7 -10666320.442 1
  21936133.284   -12846395.602 6  -9727194.051 1
 90 10 12 12 55 59.9990000  0  4 02 06 13 09
  21033443.425     1482025.442 7   1156505.891 2
  20083152.847    -6962797.171 7  -5370381.405 2
  20834889.440   -14125119.910 7 -10699760.316 1
  21926864.026   -12895119.813 6  -9765160.951 1
 90 10 12 12 56 14.9990000  0  4 02 06 13 09
  21035635.394     1493536.441 7   1165475.488 2
  20079903.323    -6979874.141 7  -5383688.134 2
  20826747.808   -14167907.555 7 -10733101.329 1
  21917598.003   -12943801.947 6  -9803095.063 1
 90 10 12 12 56 29.9980000  0  4 02 06 13 09
  21037834.959     1505091.360 7   1174479.317 2
  20076674.506    -6996842.427 7  -5396910.179 2
  20818631.178   -14210564.359 7 -10766340.386 1
  21908343.522   -12992437.599 6  -9840992.960 1
 90 10 12 12 56 44.9980000  0  4 02 06 13 09
  21040040.232     1516690.650 7   1183517.716 2
  20073465.217    -7013705.069 7  -5410049.898 2
  20810536.857   -14253096.951 7 -10799482.657 1
  21899095.561   -13041034.013 6  -9878860.276 1
 90 10 12 12 56 59.9980000  0  4 02 06 13 09
  21042256.061     1528329.976 7   1192587.310 2
  20070275.818    -7030464.069 6  -5423108.854 2
  20802467.014   -14295505.633 7 -10832528.377 1
  21889853.709   -13089591.044 6  -9916696.914 1
 90 10 12 12 57 14.9980000  0  4 02 06 13 09
  21044478.607     1540008.849 7   1201687.722 2
  20067105.357    -7047119.493 6  -5436087.102 2
  20794419.967   -14337790.698 7 -10865477.766 1
  21880623.107   -13138108.940 6  -9954503.044 1
 90 10 12 12 57 29.9980000  0  4 02 06 13 09
  21046711.217     1551734.721 7   1210824.758 2
  20063957.576    -7063663.877 6  -5448978.831 2
  20786397.459   -14379944.776 7 -10898325.093 1
  21871400.576   -13186579.884 6  -9992272.595 1
 90 10 12 12 57 44.9980000  0  4 02 06 13 09
  21048948.139     1563498.710 7   1219991.504 2
  20060829.787    -7080105.862 7  -5461790.770 2
  20778399.678   -14421976.196 7 -10931076.840 1
  21862184.545   -13235012.325 6 -10030012.147 1
 90 10 12 12 57 59.9980000  0  4 02 06 13 09
  21051194.795     1575303.347 7   1229189.917 2
  20057719.936    -7096442.410 7  -5474520.550 2
  20770424.928   -14463882.331 7 -10963730.956 1
  21852975.373   -13283403.646 6 -10067719.650 1
 90 10 12 12 58 14.9980000  0  4 02 06 13 09
  21053449.217     1587152.285 7   1238422.839 2
  20054632.561    -7112669.684 7  -5487165.178 2
  20762476.482   -14505659.283 7 -10996284.419 1
  21843772.553   -13331749.667 6 -10105391.859 1
 90 10 12 12 58 29.9980000  0  4 02 06 13 09
  21055713.732     1599043.935 7   1247689.052 2
  20051565.287    -7128789.079 7  -5499725.752 2
  20754549.779   -14547308.205 7 -11028738.117 1
  21834582.646   -13380051.845 6 -10143029.917 1
 90 10 12 12 58 44.9980000  0  4 02 06 13 09
  21057984.107     1610974.361 7   1256985.479 2
  20048517.896    -7144804.243 7  -5512205.100 2
  20746647.928   -14588833.003 7 -11061095.091 1
  21825399.264   -13428313.766 6 -10180636.601 1
 90 10 12 12 58 59.9980000  0  4 02 06 13 09
  21060258.607     1622942.856 7   1266311.570 2
  20045490.467    -7160715.623 7  -5524603.582 2
  20738770.428   -14630234.232 7 -11093355.778 1
  21816222.693   -13476535.757 6 -10218212.163 1
 90 10 12 12 59 14.9980000  0  4 02 06 13 09
  21062545.436     1634952.329 7   1275669.591 2
  20042482.342    -7176520.282 7  -5536918.896 2
  20730915.576   -14671508.952 7 -11125517.888 1
  21807056.654   -13524714.973 6 -10255754.394 1
 90 10 12 12 59 29.9980000  0  4 02 06 13 09
  21064840.678     1647006.154 7   1285062.174 2
  20039495.873    -7192214.409 7  -5549148.089 2
  20723086.678   -14712653.582 7 -11157578.632 1
  21797896.006   -13572847.483 6 -10293260.231 1
 90 10 12 12 59 44.9980000  0  4 02 06 13 09
  21067141.889     1659099.845 7   1294485.816 2
  20036529.326    -7207802.218 7  -5561294.436 2
  20715279.873   -14753672.394 7 -11189541.331 1
  21788743.240   -13620937.408 6 -10330732.886 1
 90 10 12 12 59 59.9980000  0  4 02 06 13 09
  21069450.100     1671237.796 7   1303943.953 2
  20033585.131    -7223279.185 6  -5573354.408 2
  20707499.584   -14794560.607 7 -11221402.270 1
  21779603.982   -13668980.181 6 -10368168.802 1
 90 10 12 13  0 14.9980000  0  4 02 06 13 09
  21071770.068     1683418.057 7   1313435.052 2
  20030659.436    -7238646.826 6  -5585329.188 2
  20699743.428   -14835320.026 7 -11253162.850 1
  21770467.193   -13716977.410 6 -10405569.223 1
 90 10 12 13  0 29.9980000  0  4 02 06 13 09
  21074096.943     1695645.735 7   1322963.108 2
  20027757.568    -7253900.038 6  -5597214.794 2
  20692012.951   -14875945.315 7 -11284818.908 1
  21761344.936   -13764923.429 6 -10442929.742 1
 90 10 12 13  0 44.9980000  0  4 02 06 13 09
  21076431.545     1707916.131 7   1332524.441 2
  20024875.982    -7269042.915 7  -5609014.443 2
  20684305.857   -14916441.139 7 -11316374.088 1
  21752229.076   -13812822.929 6 -10480254.012 1
 90 10 12 13  0 59.9980000  0  4 02 06 13 09
  21078773.764     1720227.894 7   1342118.013 2
  20022015.264    -7284076.764 7  -5620729.141 2
  20676625.014   -14956808.633 7 -11347829.267 1
  21743124.506   -13860676.894 6 -10517542.802 1
 90 10 12 13  1 14.9980000  0  4 02 06 13 09
  21081124.264     1732580.096 7   1351743.088 2
  20019175.045    -7299002.246 6  -5632359.388 2
  20668966.139   -14997048.647 7 -11379185.119 1
  21734027.561   -13908485.783 6 -10554796.467 1
 90 10 12 13  1 29.9980000  0  4 02 06 13 09
  21083482.631     1744972.203 7   1361399.263 2
  20016355.076    -7313819.529 7  -5643905.325 2
  20661334.061   -15037161.243 7 -11410441.676 1
  21724937.068   -13956249.847 6 -10592015.203 1
 90 10 12 13  1 44.9980000  0  4 02 06 13 09
  21085848.811     1757411.941 7   1371092.556 2
  20013557.795    -7328520.719 7  -5655360.801 2
  20653726.631   -15077138.859 7 -11441593.059 1
  21715858.475   -14003961.373 6 -10629193.007 1
 90 10 12 13  1 59.9980000  0  4 02 06 13 09
  21088223.303     1769890.628 7   1380816.205 2
  20010781.826    -7343114.253 7  -5666732.384 2
  20646143.631   -15116989.649 7 -11472645.617 1
  21706786.670   -14051628.301 6 -10666336.054 1
 90 10 12 13  2 14.9980000  0  4 02 06 13 09
  21090605.623     1782406.621 7   1390568.914 2
  20008025.014    -7357601.668 7  -5678021.278 2
  20638582.990   -15156715.370 7 -11503600.716 1
  21697723.420   -14099252.421 6 -10703445.745 1
 90 10 12 13  2 29.9980000  0  4 02 06 13 09
  21092996.482     1794963.290 7   1400353.318 2
  20005288.475    -7371979.159 7  -5689224.510 2
  20631048.936   -15196312.402 7 -11534455.545 1
  21688668.693   -14146829.729 6 -10740518.962 1
 90 10 12 13  2 44.9980000  0  4 02 06 13 09
  21095390.951     1807558.022 7   1410167.385 2
  20002572.201    -7386249.187 7  -5700344.008 2
  20623537.709   -15235783.198 7 -11565211.997 1
  21679624.100   -14194362.511 6 -10777557.486 1
 90 10 12 13  2 59.9980000  0  4 02 06 13 09
  21097795.975     1820197.080 7   1420015.989 2
  19999878.029    -7400405.262 7  -5711374.711 2
  20616052.201   -15275121.048 7 -11595864.860 1
  21670589.607   -14241844.130 6 -10814556.133 1
 90 10 12 13  3 14.9980000  0  4 02 06 13 09
  21100209.686     1832874.921 7   1429894.812 2
  19997205.795    -7414452.580 7  -5722320.681 2
  20608590.779   -15314331.559 7 -11626418.498 1
  21661562.561   -14289280.185 6 -10851519.272 1
 90 10 12 13  3 29.9980000  0  4 02 06 13 09
  21102629.990     1845592.919 7   1439804.927 2
  19994553.889    -7428389.776 7  -5733180.838 2
  20601154.873   -15353413.484 7 -11656871.937 1
  21652544.600   -14336669.027 6 -10888445.627 1
 90 10 12 13  3 44.9980000  0  4 02 06 13 09
  21105057.311     1858352.971 7   1449747.812 2
  19991923.357    -7442214.665 7  -5743953.482 2
  20593740.975   -15392364.475 7 -11687223.347 2
  21643536.443   -14384008.053 6 -10925333.161 1
 90 10 12 13  3 59.9980000  0  4 02 06 13 09
  21107494.334     1871158.654 7   1459726.260 2
  19989312.951    -7455923.231 7  -5754635.477 2
  20586355.568   -15431180.849 7 -11717469.873 1
  21634537.967   -14431293.638 6 -10962179.057 1
 90 10 12 13  4 14.9980000  0  4 02 06 13 09
  21109938.748     1884009.070 7   1469739.565 2
  19986727.568    -7469516.082 7  -5765227.306 2
  20578994.107   -15469863.139 7 -11747611.902 2
  21625550.428   -14478526.158 6 -10998983.607 1
 90 10 12 13  4 29.9980000  0  4 02 06 13 09
  21112394.920     1896900.936 7   1479785.160 2
  19984161.506    -7482996.400 7  -5775731.446 2
  20571658.404   -15508414.512 7 -11777651.930 1
  21616570.170   -14525708.750 6 -11035749.245 1
 90 10 12 13  4 44.9980000  0  4 02 06 13 09
  21114853.818     1909834.510 7   1489863.252 2
  19981619.045    -7496363.521 7  -5786147.384 2
  20564346.217   -15546834.655 7 -11807589.696 1
  21607603.607   -14572840.723 6 -11072475.453 1
 90 10 12 13  4 59.9980000  0  4 02 06 13 09
  21117323.107     1922805.065 7   1499970.166 2
  19979096.186    -7509622.210 7  -5796478.836 2
  20557059.787   -15585128.274 7 -11837428.871 2
  21598643.326   -14619926.521 6 -11109165.671 1
 90 10 12 13  5 14.9980000  0  4 02 06 13 09
  21119799.373     1935817.711 7   1510109.870 2
  19976594.998    -7522767.252 7  -5806721.725 2
  20549797.631   -15623290.157 7 -11867165.396 1
  21589692.146   -14666960.714 6 -11145815.679 1
 90 10 12 13  5 29.9980000  0  4 02 06 13 09
  21122283.076     1948869.272 7   1520279.910 2
  19974113.232    -7535801.209 7  -5816878.057 2
  20542560.522   -15661323.017 7 -11896801.382 1
  21580749.076   -14713946.224 6 -11182427.752 1
 90 10 12 13  5 44.9980000  0  4 02 06 13 09
  21124774.506     1961961.516 7   1530481.649 2
  19971655.428    -7548722.270 7  -5826946.420 2
  20535348.467   -15699224.911 7 -11926335.316 1
  21571816.928   -14760880.964 6 -11219000.262 1
 90 10 12 13  5 59.9980000  0  4 02 06 13 09
  21127274.420     1975094.231 7   1540714.915 2
  19969217.506    -7561530.367 7  -5836926.763 2
  20528160.303   -15736995.919 7 -11955767.269 1
  21562895.920   -14807765.041 6 -11255533.293 1
 90 10 12 13  6 14.9980000  0  4 02 06 13 09
  21129781.068     1988272.911 7   1550984.008 2
  19966803.201    -7574219.725 7  -5846814.583 2
  20520998.717   -15774630.329 7 -11985092.776 2
  21553987.240   -14854592.243 6 -11292022.017 1
 90 10 12 13  6 29.9980000  0  4 02 06 13 09
  21132296.732     2001493.121 7   1561285.452 2
  19964410.842    -7586794.543 7  -5856613.140 2
  20513862.693   -15812132.362 7 -12014315.133 2
  21545083.779   -14901366.951 6 -11328469.824 1
 90 10 12 13  6 44.9980000  0  4 02 06 13 09
  21134820.779     2014756.698 7   1571620.696 2
  19962040.225    -7599252.948 7  -5866320.986 2
  20506752.311   -15849500.375 7 -12043433.057 2
  21536192.912   -14948087.041 6 -11364875.076 1
 90 10 12 13  6 59.9980000  0  4 02 06 13 09
  21137351.881     2028059.322 7   1581986.362 2
  19959689.654    -7611598.642 7  -5875941.012 2
  20499665.287   -15886738.377 7 -12072449.676 2
  21527315.123   -14994756.196 6 -11401240.639 1
 90 10 12 13  7 14.9980000  0  4 02 06 13 09
  21139889.951     2041404.652 7   1592385.306 2
  19957363.412    -7623828.052 7  -5885470.421 2
  20492604.639   -15923842.562 7 -12101362.021 2
  21518444.514   -15041370.560 6 -11437563.508 1
 90 10 12 13  7 29.9980000  0  4 02 06 13 09
  21142439.772     2054793.425 7   1602818.101 2
  19955057.771    -7635940.147 7  -5894908.420 2
  20485568.686   -15960812.272 7 -12130169.579 2
  21509584.412   -15087929.401 6 -11473843.115 1
 90 10 12 13  7 44.9980000  0  4 02 06 13 09
  21144995.506     2068224.082 7   1613283.534 2
  19952774.998    -7647936.270 7  -5904256.053 2
  20478559.834   -15997648.720 7 -12158873.295 2
  21500735.115   -15134433.769 6 -11510080.279 1
 90 10 12 13  7 59.9980000  0  4 02 06 13 09
  21147559.842     2081696.927 7   1623781.841 2
  19950513.732    -7659815.909 7  -5913512.912 2
  20471574.959   -16034351.508 7 -12187472.864 2
  21491894.576   -15180882.934 6 -11546274.425 1
 90 10 12 13  8 14.9980000  0  4 02 06 13 09
  21150130.506     2095206.175 7   1634308.509 2
  19948275.396    -7671584.607 7  -5922683.319 2
  20464615.709   -16070926.191 7 -12215972.609 2
  21483065.834   -15227282.432 6 -11582429.862 1
 90 10 12 13  8 29.9980000  0  4 02 06 13 09
  21152708.686     2108759.162 7   1644869.263 2
  19946057.811    -7683234.724 7  -5931761.334 2
  20457681.404   -16107365.404 7 -12244366.795 2
  21474248.600   -15273624.612 6 -11618540.645 1
 90 10 12 13  8 44.9980000  0  4 02 06 13 09
  21155296.295     2122356.016 7   1655464.196 2
  19943863.248    -7694766.175 7  -5940746.883 2
  20450772.467   -16143669.060 7 -12272655.352 2
  21465439.584   -15319909.240 6 -11654606.579 1
 90 10 12 13  8 59.9980000  0  4 02 06 13 09
  21157891.646     2135992.268 7   1666089.836 2
  19941690.584    -7706182.989 7  -5949643.099 2
  20443890.061   -16179841.388 7 -12300841.571 2
  21456641.092   -15366140.241 6 -11690630.728 1
 90 10 12 13  9 14.9980000  0  4 02 06 13 09
  21160495.771     2149671.206 7   1676748.731 2
  19939541.029    -7717481.603 7  -5958447.216 2
  20437031.225   -16215878.601 7 -12328922.512 2
  21447856.178   -15412313.920 6 -11726610.209 1
 90 10 12 13  9 29.9980000  0  4 02 06 13 09
  21163104.490     2163389.678 7   1687438.429 2
  19937412.381    -7728665.220 7  -5967161.734 2
  20430200.084   -16251784.143 7 -12356900.847 2
  21439078.701   -15458433.520 6 -11762547.548 1
 90 10 12 13  9 44.9980000  0  4 02 06 13 09
  21165722.248     2177147.883 7   1698159.091 2
  19935305.732    -7739733.295 7  -5975786.218 2
  20423392.053   -16287557.468 7 -12384776.160 2
  21430313.701   -15504498.189 6 -11798442.086 1
 90 10 12 13  9 59.9980000  0  4 02 06 13 09
  21168348.350     2190947.605 7   1708912.109 2
  19933222.084    -7750683.729 7  -5984319.026 2
  20416609.639   -16323196.781 7 -12412547.047 2
  21421558.451   -15550505.887 6 -11834292.231 1
 90 10 12 13 10 14.9980000  0  4 02 06 13 09
  21170982.209     2204786.074 7   1719695.310 2
  19931160.912    -7761519.044 7  -5992762.121 2
  20409852.873   -16358704.677 7 -12440215.531 2
  21412815.646   -15596459.024 6 -11870099.864 1
 90 10 12 13 10 29.9980000  0  4 02 06 13 09
  21173620.943     2218664.200 7   1730509.418 2
  19929121.436    -7772238.249 7  -6001114.758 2
  20403122.264   -16394080.075 7 -12467780.771 2
  21404079.225   -15642356.380 6 -11905864.028 1
 90 10 12 13 10 44.9980000  0  4 02 06 13 09
  21176270.967     2232590.180 7   1741360.820 2
  19927104.787    -7782833.018 7  -6009370.431 2
  20396416.256   -16429314.765 7 -12495236.365 2
  21395357.271   -15688189.530 6 -11941578.165 1
 90 10 12 13 10 59.9980000  0  4 02 06 13 09
  21178928.295     2246556.990 7   1752244.037 2
  19925110.646    -7793309.979 7  -6017534.299 2
  20389737.100   -16464415.755 7 -12522587.780 2
  21386647.412   -15733965.255 6 -11977247.555 1
 90 10 12 13 11 14.9980000  0  4 02 06 13 09
  21181595.334     2260559.763 7   1763155.267 2
  19923138.951    -7803673.936 7  -6025610.107 2
  20383082.287   -16499387.687 7 -12549838.627 2
  21377946.318   -15779688.085 6 -12012875.726 1
 90 10 12 13 11 29.9980000  0  4 02 06 13 09
  21184268.154     2274605.098 7   1774099.661 2
  19921189.459    -7813918.156 7  -6033592.620 2
  20376453.404   -16534223.766 7 -12576983.618 2
  21369257.225   -15825351.062 6 -12048457.257 1
 90 10 12 13 11 44.9980000  0  4 02 06 13 09
  21186950.428     2288688.804 7   1785073.956 2
  19919262.264    -7824046.527 7  -6041484.864 2
  20369849.240   -16568928.173 7 -12604026.005 2
  21360578.412   -15870958.066 6 -12083995.184 1
 90 10 12 13 11 59.9980000  0  4 02 06 13 09
  21189636.795     2302813.168 7   1796079.942 2
  19917357.170    -7834056.365 7  -6049284.744 2
  20363270.139   -16603498.329 7 -12630963.783 2
  21351910.678   -15916506.460 6 -12119487.430 1
 90 10 12 13 12 14.9980000  0  4 02 06 13 09
  21192331.928     2316980.567 7   1807119.452 2
  19915476.045    -7843945.151 7  -6056990.296 2
  20356718.061   -16637931.587 7 -12657794.887 2
  21343254.865   -15961993.310 6 -12154931.724 1
 90 10 12 13 12 29.9980000  0  4 02 06 13 09
  21195034.693     2331188.405 7   1818190.470 2
  19913616.592    -7853715.261 7  -6064603.369 2
  20350190.811   -16672230.692 7 -12684521.459 2
  21334612.037   -16007421.048 6 -12190329.952 1
 90 10 12 13 12 44.9980000  0  4 02 06 13 09
  21197746.748     2345440.966 7   1829296.341 2
  19911781.467    -7863362.354 7  -6072120.593 2
  20343690.350   -16706391.344 7 -12711140.139 2
  21325977.615   -16052785.086 6 -12225678.543 1
 90 10 12 13 12 59.9980000  0  4 02 06 13 09
  21200469.498     2359739.228 7   1840437.823 2
  19909969.029    -7872885.014 7  -6079540.847 2
  20337216.928   -16740411.965 7 -12737649.707 2
  21317358.639   -16098083.946 6 -12260976.353 1
 90 10 12 13 13 14.9980000  0  4 02 06 13 09
  21203198.951     2374081.223 7   1851613.387 2
  19908179.295    -7882285.009 7  -6086865.527 2
  20330767.990   -16774294.789 7 -12764051.905 2
  21308750.904   -16143319.436 6 -12296224.781 1
 90 10 12 13 13 29.9980000  0  4 02 06 13 09
  21205936.146     2388461.689 7   1862818.918 2
  19906414.107    -7891567.659 7  -6094098.764 2
  20324346.295   -16808045.229 7 -12790350.943 2
  21300151.584   -16188496.738 6 -12331427.864 1
 90 10 12 13 13 44.9980000  0  4 02 06 13 09
  21208680.818     2402884.253 7   1874057.262 2
  19904670.865    -7900729.172 7  -6101237.609 2
  20317948.850   -16841659.524 7 -12816543.892 2
  21291567.279   -16233611.881 6 -12366582.516 1
 90 10 12 13 13 59.9980000  0  4 02 06 13 09
  21211433.037     2417349.937 7   1885329.205 2
  19902950.522    -7909768.439 7  -6108281.201 2
  20311578.740   -16875136.482 7 -12842629.831 2
  21282994.756   -16278663.352 6 -12401687.557 1
 90 10 12 13 14 14.9980000  0  4 02 06 13 09
  21214193.701     2431856.791 7   1896633.225 2
  19901253.740    -7918686.871 7  -6115230.633 2
  20305234.467   -16908477.825 7 -12868610.092 2
  21274433.607   -16323652.854 6 -12436744.310 1
 90 10 12 13 14 29.9980000  0  4 02 06 13 09
  21216960.904     2446402.211 7   1907967.292 2
  19899577.686    -7927486.963 7  -6122087.847 2
  20298915.771   -16941686.120 7 -12894486.680 2
  21265883.678   -16368582.719 6 -12471754.586 1
 90 10 12 13 14 44.9980000  0  4 02 06 13 09
  21219737.115     2460987.695 7   1919332.579 2
  19897926.350    -7936166.906 7  -6128851.445 2
  20292621.139   -16974759.487 7 -12920258.129 2
  21257344.771   -16413450.655 6 -12506716.612 1
 90 10 12 13 14 59.9980000  0  4 02 06 13 09
  21222519.498     2475611.424 7   1930727.673 2
  19896296.771    -7944728.353 7  -6135522.711 2
  20286352.654   -17007699.773 7 -12945925.880 2
  21248819.897   -16458258.533 6 -12541631.835 1
 90 10 12 13 15 14.9980000  0  4 02 06 13 09
  21225309.920     2490276.335 7   1942154.855 2
  19894691.357    -7953168.359 7  -6142099.351 2
  20280110.576   -17040504.398 7 -12971487.919 2
  21240304.123   -16503003.216 6 -12576497.822 1
 90 10 12 13 15 29.9980000  0  4 02 06 13 09
  21228109.350     2504983.920 7   1953615.287 2
  19893108.287    -7961485.308 7  -6148580.094 2
  20273894.709   -17073171.437 7 -12996942.751 2
  21231802.115   -16547682.926 6 -12611313.170 1
 90 10 12 13 15 44.9980000  0  4 02 06 13 09
  21230915.436     2519734.388 7   1965109.135 2
  19891549.193    -7969678.734 7  -6154964.581 2
  20267703.959   -17105700.560 7 -13022290.111 2
  21223312.232   -16592296.805 6 -12646077.229 1
 90 10 12 13 15 59.9980000  0  4 02 06 13 09
  21233729.053     2534525.319 7   1976634.513 2
  19890013.779    -7977750.725 7  -6161254.458 2
  20261540.764   -17138094.041 7 -13047531.782 2
  21214835.561   -16636847.208 6 -12680791.821 1
 90 10 12 13 16 14.9980000  0  4 02 06 13 09
  21236552.732     2549364.141 7   1988197.211 2
  19888502.443    -7985693.650 7  -6167443.764 2
  20255403.436   -17170344.383 7 -13072661.919 2
  21206371.568   -16681326.371 6 -12715450.908 1
 90 10 12 13 16 29.9980000  0  4 02 06 13 09
  21239382.436     2564234.915 7   1999784.804 2
  19887011.412    -7993523.254 7  -6173544.753 2
  20249290.701   -17202467.618 7 -13097693.002 2
  21197916.654   -16725749.644 6 -12750066.439 1
 90 10 12 13 16 44.9980000  0  4 02 06 13 09
  21242220.865     2579149.311 7   2011406.389 2
  19885546.100    -8001227.943 7  -6179548.412 2
  20243203.287   -17234452.012 7 -13122615.905 2
  21189476.920   -16770105.520 6 -12784629.459 1
 90 10 12 13 16 59.9980000  0  4 02 06 13 09
  21245067.045     2594104.545 7   2023059.787 2
  19884102.115    -8008810.193 7  -6185456.664 2
  20237143.686   -17266300.136 7 -13147432.617 2
  21181048.076   -16814396.137 6 -12819141.624 1
 90 10 12 13 17 14.9980000  0  4 02 06 13 09
  21247920.646     2609098.414 7   2034743.291 2
  19882682.592    -8016271.951 7  -6191271.030 2
  20231108.928   -17298014.360 7 -13172144.996 2
  21172632.209   -16858623.456 6 -12853604.465 1
 90 10 12 13 17 29.9980000  0  4 02 06 13 09
  21250781.740     2624133.400 7   2046458.841 2
  19881287.639    -8023610.779 7  -6196989.607 2
  20225098.201   -17329592.168 7 -13196751.076 2
  21164228.592   -16902784.800 6 -12888015.898 1
 90 10 12 13 17 44.9980000  0  4 02 06 13 09
  21253652.037     2639208.959 7   2058206.005 2
  19879913.279    -8030826.871 7  -6202612.546 2
  20219115.334   -17361033.753 7 -13221251.009 2
  21155837.561   -16946880.202 6 -12922375.947 1
 90 10 12 13 17 59.9980000  0  4 02 06 13 09
  21256526.014     2654320.754 7   2069981.410 2
  19878563.186    -8037924.360 7  -6208143.057 2
  20213158.639   -17392343.249 7 -13245648.012 2
  21147458.545   -16990913.685 6 -12956687.748 2
 90 10 12 13 18 14.9980000  0  4 02 06 13 09
  21259411.834     2669480.507 7   2081794.173 2
  19877237.350    -8044891.267 7  -6213571.828 2
  20207227.217   -17423508.962 7 -13269932.980 2
  21139092.451   -17034873.227 6 -12990941.933 1
 90 10 12 13 18 29.9980000  0  4 02 06 13 09
  21262303.553     2684680.148 7   2093638.019 2
  19875934.357    -8051735.566 7  -6218905.051 2
  20201321.826   -17454539.093 7 -13294112.300 2
  21130740.373   -17078766.669 6 -13025144.610 1
 90 10 12 13 18 44.9980000  0  4 02 06 13 09
  21265203.889     2699923.771 7   2105516.138 2
  19874656.264    -8058452.926 7  -6224139.369 2
  20195444.928   -17485429.418 7 -13318182.683 2
  21122401.381   -17122589.326 6 -13059292.130 2
 90 10 12 13 18 59.9980000  0  4 02 06 13 09
  21268112.428     2715207.065 7   2117425.168 2
  19873402.631    -8065047.434 7  -6229277.950 2
  20189592.568   -17516183.891 7 -13342147.205 2
  21114074.529   -17166345.437 6 -13093387.801 1
 90 10 12 13 19 14.9980000  0  4 02 06 13 09
  21271028.037     2730533.006 7   2129367.425 2
  19872171.920    -8071516.248 7  -6234318.593 2
  20183765.787   -17546799.809 7 -13366003.762 2
  21105761.646   -17210031.727 6 -13127429.060 1
 90 10 12 13 19 29.9980000  0  4 02 06 13 09
  21273953.600     2745903.504 7   2141344.402 2
  19870963.389    -8077856.947 7  -6239259.412 2
  20177966.201   -17577274.915 7 -13389750.590 2
  21097461.318   -17253645.689 6 -13161413.967 2
 90 10 12 13 19 44.9980000  0  4 02 06 13 09
  21276885.600     2761312.104 7   2153351.073 2
  19869780.967    -8084075.935 7  -6244105.387 2
  20172192.318   -17607615.928 7 -13413392.938 2
  21089175.678   -17297193.586 6 -13195347.384 2
 90 10 12 13 19 59.9980000  0  4 02 06 13 09
  21279826.912     2776762.376 7   2165390.218 2
  19868621.475    -8090169.656 7  -6248853.755 2
  20166445.498   -17637819.199 7 -13436927.949 2
  21080901.686   -17340671.473 6 -13229226.255 1
 90 10 12 13 20 14.9980000  0  4 02 06 13 09
  21282774.850     2792251.955 7   2177459.983 2
  19867485.037    -8096139.930 7  -6253505.926 2
  20160723.342   -17667886.650 7 -13460357.129 2
  21072639.998   -17384081.556 6 -13263052.291 1
 90 10 12 13 20 29.9980000  0  4 02 06 13 09
  21285729.592     2807785.810 7   2189564.254 2
  19866373.521    -8101981.957 7  -6258058.164 2
  20155029.600   -17697813.532 7 -13483676.776 2
  21064394.443   -17427418.461 6 -13296821.312 2
 90 10 12 13 20 44.9980000  0  4 02 06 13 09
  21288694.311     2823363.388 7   2201702.598 2
  19865285.061    -8107696.103 7  -6262510.752 2
  20149359.951   -17727600.361 7 -13506887.289 2
  21056161.123   -17470682.818 6 -13330533.798 1
 90 10 12 13 20 59.9980000  0  4 02 06 13 09
  21291665.459     2838976.997 7   2213869.014 2
  19864220.982    -8113289.800 7  -6266869.484 2
  20143718.264   -17757254.657 7 -13529994.531 2
  21047941.764   -17513881.523 6 -13364195.126 1
 90 10 12 13 21 14.9980000  0  4 02 06 13 09
  21294642.756     2854614.515 7   2226054.059 2
  19863177.896    -8118774.984 7  -6271143.672 2
  20138097.420   -17786788.685 7 -13553008.058 2
  21039730.873   -17557026.373 6 -13397814.491 1
 90 10 12 13 21 29.9980000  0  4 02 06 13 09
  21297628.576     2870305.405 7   2238280.693 2
  19862160.459    -8124121.846 7  -6275310.063 2
  20132506.053   -17816172.714 7 -13575904.703 2
  21031537.271   -17600087.568 6 -13431368.665 2
 90 10 12 13 21 44.9980000  0  4 02 06 13 09
  21300621.592     2886040.253 7   2250541.580 2
  19861167.139    -8129339.914 7  -6279376.091 2
  20126941.295   -17845416.279 7 -13598691.894 2
  21023356.193   -17643074.316 6 -13464864.836 1
 90 10 12 13 21 59.9980000  0  4 02 06 13 09
  21303622.467     2901813.036 7   2262832.030 2
  19860198.459    -8134435.035 7  -6283346.329 2
  20121401.701   -17874525.335 7 -13621374.277 2
  21015190.076   -17685992.410 6 -13498307.504 1
 90 10 12 13 22 14.9980000  0  4 02 06 13 09
  21306630.264     2917613.033 7   2275143.677 2
  19859249.475    -8139417.720 7  -6287228.953 2
  20115886.467   -17903510.676 7 -13643960.253 2
  21007031.779   -17728852.412 6 -13531704.908 1
 90 10 12 13 22 29.9980000  0  4 02 06 13 09
  21309644.959     2933462.845 7   2287494.148 2
  19858326.678    -8144265.316 7  -6291006.311 2
  20110397.615   -17932349.475 7 -13666432.047 2
  20998892.092   -17771630.878 6 -13565038.785 1
 90 10 12 13 22 44.9980000  0  4 02 06 13 09
  21312666.959     2949339.372 7   2299865.436 2
  19857425.623    -8149000.551 7  -6294696.112 2
  20104934.201   -17961064.958 7 -13688807.746 2
  20990762.943   -17814350.753 6 -13598326.997 1
 90 10 12 13 22 59.9980000  0  4 02 06 13 09
  21315694.217     2965255.657 7   2312267.700 2
  19856548.045    -8153610.285 7  -6298288.129 2
  20099494.365   -17989643.693 7 -13711076.887 2
  20982646.670   -17856998.754 6 -13631559.203 1
 90 10 12 13 23 14.9980000  0  4 02 06 13 09
  21318732.584     2981208.049 7   2324698.098 2
  19855693.889    -8158098.235 7  -6301785.241 2
  20094081.943   -18018089.451 7 -13733242.414 2
  20974544.029   -17899578.317 6 -13664738.084 1
 90 10 12 13 23 29.9980000  0  4 02 06 13 09
  21321773.428     2997200.123 7   2337159.417 2
  19854864.037    -8162460.523 7  -6305184.437 2
  20088693.482   -18046398.622 7 -13755301.503 2
  20966456.865   -17942085.485 7 -13697860.555 2
 90 10 12 13 23 44.9980000  0  4 02 06 13 09
  21324827.592     3013247.774 7   2349664.043 2
  19854061.521    -8166680.884 7  -6308473.042 2
  20083337.100   -18074555.501 7 -13777241.927 2
  20958383.725   -17984503.919 6 -13730913.880 1
 90 10 12 13 23 59.9980000  0  4 02 06 13 09
  21327891.936     3029342.588 7   2362205.422 2
  19853282.865    -8170767.947 7  -6311657.787 2
  20078006.467   -18102568.337 7 -13799070.114 2
  20950327.459   -18026841.929 6 -13763904.542 1
 90 10 12 13 24 14.9980000  0  4 02 06 13 09
  21330962.811     3045473.773 7   2374775.144 2
  19852529.326    -8174732.134 7  -6314746.781 2
  20072700.693   -18130447.913 7 -13820794.455 2
  20942283.381   -18069109.780 6 -13796840.533 1
 90 10 12 13 24 29.9980000  0  4 02 06 13 09
  21334041.170     3061650.670 7   2387380.476 2
  19851799.998    -8178564.055 7  -6317732.712 2
  20067423.217   -18158184.978 7 -13842407.753 2
  20934254.928   -18111297.961 6 -13829714.442 1
 90 10 12 13 24 44.9980000  0  4 02 06 13 09
  21337125.826     3077865.228 7   2400015.158 2
  19851093.693    -8182271.811 7  -6320621.876 2
  20062170.186   -18185787.401 7 -13863916.140 2
  20926239.818   -18153414.177 6 -13862532.283 2
 90 10 12 13 24 59.9980000  0  4 02 06 13 09
  21340218.670     3094119.020 7   2412680.413 2
  19850412.623    -8185853.296 7  -6323412.666 2
  20056944.271   -18213253.588 7 -13885318.361 2
  20918241.568   -18195456.310 7 -13895292.382 2
 90 10 12 13 25 14.9980000  0  4 02 06 13 09
  21343317.170     3110404.786 7   2425370.581 2
  19849753.951    -8189315.744 7  -6326110.693 2
  20051741.553   -18240590.622 7 -13906619.948 2
  20910253.857   -18237431.593 7 -13928000.392 2
 90 10 12 13 25 29.9980000  0  4 02 06 13 09
  21346424.592     3126731.646 7   2438092.769 2
  19849120.795    -8192650.003 7  -6328708.830 2
  20046565.381   -18267789.422 7 -13927813.818 2
  20902280.631   -18279330.427 7 -13960648.837 2
 90 10 12 13 25 44.9980000  0  4 02 06 13 09
  21349537.537     3143095.192 7   2450843.544 2
  19848509.647    -8195860.288 7  -6331210.364 2
  20041415.592   -18294854.407 7 -13948903.421 2
  20894319.537   -18321156.924 6 -13993240.910 2
 90 10 12 13 25 59.9980000  0  4 02 06 13 09
  21352662.756     3159516.821 7   2463639.580 2
  19847924.201    -8198925.218 7  -6333598.635 2
  20036294.678   -18321764.209 7 -13969872.093 2
  20886380.115   -18362889.452 7 -14025759.764 2
 90 10 12 13 26 14.9980000  0  4 02 06 13 09
  21355799.311     3176001.977 7   2476485.116 2
  19847371.717    -8201838.721 7  -6335868.905 2
  20031205.279   -18348513.212 7 -13990715.475 2
  20878457.209   -18404521.884 6 -14058200.627 2
 90 10 12 13 26 29.9980000  0  4 02 06 13 09
  21358944.896     3192526.495 7   2489361.325 2
  19846842.303    -8204625.290 7  -6338040.278 2
  20026140.936   -18375126.022 7 -14011452.729 2
  20870548.154   -18446078.457 7 -14090582.380 2
 90 10 12 13 26 44.9980000  0  4 02 06 13 09
  21362093.834     3209076.402 7   2502257.311 2
  19846332.498    -8207298.827 7  -6340123.574 2
  20021099.943   -18401616.385 7 -14032094.571 2
  20862653.318   -18487572.860 7 -14122915.686 2
 90 10 12 13 26 59.9980000  0  4 02 06 13 09
  21365251.193     3225666.718 7   2515184.789 2
  19845847.920    -8209844.027 7  -6342106.856 2
  20016084.443   -18427969.206 7 -14052629.240 2
  20854773.623   -18528989.748 7 -14155188.591 2
 90 10 12 13 27 14.9980000  0  4 02 06 13 09
  21368416.162     3242300.766 7   2528146.343 2
  19845388.975    -8212257.146 7  -6343987.224 2
  20011096.725   -18454181.005 7 -14073054.019 2
  20846905.982   -18570325.015 7 -14187397.891 2
 90 10 12 13 27 29.9980000  0  4 02 06 13 09
  21371588.553     3258970.742 7   2541135.900 2
  19844953.584    -8214546.028 7  -6345770.786 2
  20006134.740   -18480259.548 7 -14093374.964 2
  20839052.771   -18611586.290 7 -14219549.535 2
 90 10 12 13 27 44.9980000  0  4 02 06 13 09
  21374768.131     3275685.329 7   2554160.209 2
  19844542.264    -8216701.861 7  -6347450.674 2
  20001199.115   -18506196.213 7 -14113585.351 2
  20831217.053   -18652764.653 7 -14251636.570 2
 90 10 12 13 27 59.9980000  0  4 02 06 13 09
  21377957.381     3292437.369 7   2567213.706 2
  19844156.670    -8218731.622 7  -6349032.325 2
  19996288.592   -18531998.176 7 -14133690.779 2
  20823395.967   -18693867.051 7 -14283664.417 2
 90 10 12 13 28 14.9980000  0  4 02 06 13 09
  21381152.475     3309229.270 7   2580298.261 2
  19843794.568    -8220633.025 7  -6350513.954 2
  19991404.553   -18557663.107 7 -14153689.430 2
  20815590.756   -18734890.741 7 -14315630.930 2
 90 10 12 13 28 29.9980000  0  4 02 06 13 09
  21384357.021     3326069.605 7   2593420.560 2
  19843460.490    -8222397.305 7  -6351888.737 2
  19986548.014   -18583182.445 7 -14173574.628 2
  20807799.615   -18775826.730 7 -14347529.111 2
 90 10 12 13 28 44.9980000  0  4 02 06 13 09
  21387569.279     3342947.686 7   2606572.275 2
  19843147.045    -8224034.976 7  -6353164.861 2
  19981717.818   -18608566.921 7 -14193354.740 2
  20800023.732   -18816685.495 7 -14379367.112 2
 90 10 12 13 28 59.9980000  0  4 02 06 13 09
  21390788.045     3359871.484 7   2619759.605 2
  19842861.803    -8225537.713 7  -6354335.838 2
  19976914.639   -18633808.358 7 -14213023.396 2
  20792265.725   -18857458.604 7 -14411138.369 2
 90 10 12 13 29 14.9980000  0  4 02 06 13 09
  21394019.014     3376838.212 7   2632980.392 2
  19842601.326    -8226908.295 7  -6355403.835 2
  19972138.428   -18658909.483 7 -14232582.711 2
  20784523.131   -18898148.478 7 -14442844.771 2
 90 10 12 13 29 29.9980000  0  4 02 06 13 09
  21397253.365     3393844.473 7   2646231.981 2
  19842363.139    -8228150.262 7  -6356371.626 2
  19967386.912   -18683873.975 7 -14252035.569 2
  20776795.287   -18938758.377 7 -14474488.856 2
 90 10 12 13 29 44.9980000  0  4 02 06 13 09
  21400494.529     3410879.193 7   2659505.743 2
  19842150.928    -8229274.268 7  -6357247.495 2
  19962660.381   -18708713.007 7 -14271390.657 2
  20769081.311   -18979298.922 7 -14506078.897 2
 90 10 12 13 29 59.9980000  0  4 02 06 13 09
  21403745.857     3427957.964 6   2672813.828 2
  19841961.842    -8230264.895 7  -6358019.430 2
  19957960.951   -18733410.864 7 -14290635.745 2
  20761381.678   -19019754.282 7 -14537602.555 2
 90 10 12 13 30 14.9980000  0  4 02 06 13 09
  21407005.959     3445084.482 7   2686159.123 2
  19841801.404    -8231118.283 7  -6358684.431 2
  19953288.514   -18757963.971 7 -14309768.039 2
  20753701.881   -19060120.586 7 -14569056.827 2
 90 10 12 13 30 29.9980000  0  4 02 06 13 09
  21410270.967     3462253.482 7   2699537.521 2
  19841662.381    -8231839.319 7  -6359246.297 2
  19948642.592   -18782377.289 7 -14328791.407 2
  20746034.834   -19100402.592 7 -14600445.406 2
 90 10 12 13 30 44.9980000  0  4 02 06 13 09
  21413546.115     3479459.410 7   2712944.692 2
  19841550.318    -8232433.547 7  -6359709.351 2
  19944023.022   -18806656.286 7 -14347710.104 2
  20738385.725   -19140605.564 7 -14631772.404 2
 90 10 12 13 30 59.9980000  0  5 02 12 06 13 09
  21416827.107     3496698.501 7   2726377.706 2
  24256666.131          -0.09713
  19841459.178    -8232904.726 7  -6360076.518 2
  19939427.834   -18830805.028 7 -14366527.311 2
  20730748.029   -19180732.828 7 -14663040.406 2
 90 10 12 13 31 14.9980000  0  5 02 12 06 13 09
  21420117.615     3513988.211 7   2739850.160 2
  24246086.568      -55577.909 2
  19841399.873    -8233235.221 7  -6360334.064 2
  19934860.248   -18854806.097 7 -14385229.448 2
  20723132.021   -19220766.684 7 -14694235.626 2
 90 10 12 13 31 29.9980000  0  5 02 12 06 13 09
  21423417.381     3531325.270 7   2753359.510 2
  24235511.982     -111158.602 3
  19841361.381    -8233428.433 7
  19930321.186   -18878662.793 7 -14403819.082 2
  20715529.717   -19260710.296 7 -14725360.523 2
 90 10 12 13 31 44.9980000  0  5 02 12 06 13 09
  21426724.162     3548705.568 6   2766902.554 2
  24224939.287     -166745.938 4
  19841346.537    -8233487.869 7
  19925806.920   -18902378.995 7 -14422299.243 2
  20707946.467   -19300566.919 7 -14756417.640 2
 90 10 12 13 31 59.9980000  0  5 02 12 06 13 09
  21430038.350     3566131.463 6   2780481.129 2
  24214356.365     -222337.244 3
  19841364.904    -8233411.158 7
  19921321.756   -18925952.347 7 -14440668.092 2
  20700378.865   -19340334.161 7 -14787405.109 2
 90 10 12 13 32 14.9980000  0  5 02 12 06 13 09
  21433362.053     3583594.858 6   2794088.922 2
  24203779.209     -277940.690 4
  19841402.740    -8233206.491 7
  19916860.475   -18949391.254 7 -14458932.178 2
  20692826.045   -19380019.853 7 -14818329.031 2
 90 10 12 13 32 29.9980000  0  5 02 12 06 13 09
  21436692.639     3601091.831 6   2807722.880 2
  24193187.912     -333560.020 3
  19841466.896    -8232877.855 7
  19912425.553   -18972699.529 7 -14477094.476 2
  20685288.592   -19419627.532 7 -14849192.168 2
 90 10 12 13 32 44.9980000  0  5 02 12 06 13 09
  21440030.732     3618636.287 6   2821393.838 2
  24182610.740     -389180.987 4        -0.00811
  19841552.889    -8232411.005 7        -0.44312
  19908017.670   -18995863.411 7 -14495144.254 2
  20677769.232   -19459143.190 7 -14879983.595 2
 90 10 12 13 32 59.9980000  0  5 02 12 06 13 09
  21443378.115     3636225.344 6   2835099.551 2
  24172029.021     -444806.329 4    -43344.405 1
  19841666.092    -8231808.801 7       468.790 2
  19903637.686   -19018885.870 7 -14513083.838 2
  20670267.240   -19498569.343 7 -14910705.277 2
 90 10 12 13 33 14.9980000  0  5 02 12 06 13 09
  21446731.092     3653849.640 6   2848832.723 2
  24161439.381     -500445.231 4    -86699.421 1
  19841807.990    -8231080.431 7      1036.332 2
  19899281.600   -19041776.118 7 -14530920.400 2
  20662780.264   -19537914.842 7 -14941364.112 2
 90 10 12 13 33 29.9980000  0  5 02 12 06 13 09
  21450095.420     3671514.953 6   2862597.854 2
  24150849.693     -556091.592 5   -130060.211 1
  19841969.584    -8230219.961 7      1706.803 2
  19894950.951   -19064528.515 7 -14548649.547 2
  20655308.279   -19577173.553 7 -14971955.323 2
 90 10 12 13 33 44.9980000  0  5 02 12 06 13 09
  21453463.154     3689217.646 6   2876392.108 2
  24140257.123     -611749.078 4   -173429.702 1
  19842160.178    -8229231.023 7      2477.385 2
  19890647.428   -19087146.806 7 -14566274.194 2
  20647854.482   -19616348.893 7 -15002481.575 2
 90 10 12 13 33 59.9980000  0  5 02 12 06 13 09
  21456837.537     3706960.243 6   2890217.459 1
  24129665.178     -667414.797 4   -216805.582 1
  19842372.662    -8228111.104 7      3350.029 2
  19886368.748   -19109628.310 7 -14583792.253 2
  20640414.014   -19655438.152 7 -15032940.745 2
 90 10 12 13 34 14.9980000  0  5 02 12 06 13 09
  21460224.217     3724748.021 6   2904078.013 2
  24119070.982     -723083.132 4
  19842611.467    -8226854.685 7      4329.023 2
  19882118.139   -19131967.695 7 -14601199.571 2
  20632995.076   -19694435.386 7 -15063328.202 2
 90 10 12 13 34 29.9980000  0  5 02 12 06 13 09
  21463616.053     3742577.399 6   2917970.992 2
  24108470.279     -778757.634 4
  19842875.373    -8225465.210 7      5411.710 2
  19877893.467   -19154168.734 7 -14618499.091 2
  20625591.631   -19733344.132 7 -15093646.714 2
 90 10 12 13 34 44.9980000  0  5 02 12 06 13 09
  21467015.990     3760446.833 6   2931895.179 2
  24097879.475     -834439.530 4
  19843165.529    -8223944.279 7      6596.832 2
  19873694.951   -19176232.940 7 -14635691.985 2
  20618202.779   -19772165.473 7 -15123897.123 2
 90 10 12 13 34 59.9980000  0  5 02 12 06 13 09
  21470427.592     3778372.980 6   2945863.552 1
  24087292.545     -890111.938 4
  19843482.561    -8222274.903 7      7897.627 2
  19869525.014   -19198143.668 7 -14652765.283 2
  20610835.943   -19810882.347 7 -15154066.121 2
 90 10 12 13 35 14.9980000  0  5 02 12 06 13 09
  21473844.271     3796330.631 6   2959856.472 2
  24076690.936     -945800.083 5
  19843824.256    -8220482.693 7      9294.130 2
  19865379.607   -19219926.415 7 -14669738.855 2
  20603483.068   -19849520.020 7 -15184173.412 2
 90 10 12 13 35 29.9980000  0  5 02 12 06 13 09
  21477270.756     3814329.207 6   2973881.284 1
  24066091.451    -1001494.291 4
  19844190.451    -8218557.759 7     10794.052 2
  19861260.975   -19241571.616 7 -14686605.254 2
  20596148.373   -19888068.494 7 -15214211.195 2
 90 10 12 13 35 44.9980000  0  5 02 12 06 13 09
  21480705.771     3832373.041 6   2987941.368 1
  24055496.482    -1057190.001 5        -0.45211
  19844582.240    -8216495.723 7     12400.817 2
  19857169.334   -19263075.053 7 -14703361.181 1
  20588831.326   -19926523.326 7 -15244176.015 2
 90 10 12 13 35 59.9980000  0  5 02 12 06 13 09
  21484146.459     3850462.552 6   3002037.037 2
  24044893.701    -1112886.489 4    -43400.352 1
  19845001.842    -8214296.201 7     14114.703 2
  19853104.076   -19284436.220 7 -14720006.252 2
  20581530.068   -19964883.470 7 -15274067.046 2
 90 10 12 13 36 14.9980000  0  5 02 12 06 13 09
  21487597.787     3868596.583 6   3016167.390 1
  24034300.412    -1168584.772 5    -86801.607 1
  19845446.068    -8211960.264 7     15934.887 2
  19849066.826   -19305656.577 7 -14736541.603 2
  20574248.881   -20003150.007 7 -15303885.141 2
 90 10 12 13 36 29.9980000  0  5 02 12 06 13 09
  21491055.740     3886772.694 6   3030330.538 1
  24023696.514    -1224286.821 4   -130205.795 1
  19845916.006    -8209489.922 7     17859.808 2
  19845054.639   -19326738.196 7 -14752968.847 2
  20566984.131   -20041324.862 7 -15333631.792 2
 90 10 12 13 36 44.9980000  0  5 02 12 06 13 09
  21494523.740     3904986.456 6   3044523.030 1
  24013085.709    -1279996.837 4   -173616.186 1
  19846410.545    -8206889.586 7     19886.016 2
  19841069.217   -19347685.579 7 -14769291.489 2
  20559735.451   -20079412.064 7 -15363310.139 2
 90 10 12 13 36 59.9980000  0  5 02 12 06 13 09
  21497998.467     3923248.041 6   3058752.780 1
  24002495.412    -1335704.703 4
  19846931.982    -8204149.210 7     22021.353 2
  19837109.584   -19368489.048 7 -14785501.993 2
  20552506.287   -20117401.388 7 -15392912.222 2
 90 10 12 13 37 14.9980000  0  5 02 12 06 13 09
  21501480.045     3941555.919 6   3073018.608 1
  23991891.576    -1391411.782 4
  19847480.553    -8201270.519 7     24264.467 2
  19833177.662   -19389149.966 7 -14801601.419 2
  20545295.326   -20155293.860 7 -15422438.835 2
 90 10 12 13 37 29.9980000  0  5 02 12 06 13 09
  21504974.303     3959909.221 6   3087319.830 1
  23981292.381    -1447118.651 5
  19848053.717    -8198253.940 7     26615.016 2
  19829273.084   -19409669.472 7 -14817590.651 2
  20538105.404   -20193090.120 7 -15451890.477 2
 90 10 12 13 37 44.9980000  0  5 02 12 06 13 09
  21508475.912     3978304.870 6   3101654.043 1
  23970689.967    -1502828.154 4        -0.49711
  19848652.686    -8195102.574 7     29070.596 2
  19825395.154   -19430050.647 7 -14833472.094 2
  20530929.928   -20230792.954 7 -15481269.320 2
 90 10 12 13 37 59.9980000  0  5 02 12 06 13 09
  21511983.373     3996743.696 6   3116021.904 1
  23960088.037    -1558539.225 4    -43411.731 1
  19849278.701    -8191815.564 7     31631.881 2
  19821543.459   -19450292.311 7 -14849244.829 2
  20523773.545   -20268401.178 7 -15510574.442 2
 90 10 12 13 38 14.9980000  0  5 02 12 06 13 09
  21515501.873     4015233.205 6   3130429.263 1
  23949488.295    -1614244.048 4    -86818.086 1
  19849931.115    -8188385.269 7     34304.812 2
  19817719.014   -19470387.233 7 -14864903.215 2
  20516636.357   -20305906.895 7 -15539799.687 2
 90 10 12 13 38 29.9980000  0  5 02 12 06 13 09
  21519029.006     4033771.591 6   3144874.702 1
  23938884.404    -1669944.211 4   -130220.803 1
  19850612.201    -8184813.236 7     37088.185 2
  19813922.631   -19490337.307 7 -14880448.734 2
  20509519.514   -20343311.592 7 -15568946.213 2
 90 10 12 13 38 44.9980000  0  5 02 12 06 13 09
  21522570.350     4052377.191 6   3159372.522 1
  23928293.232    -1725621.140 5   -173605.422 1
  19851321.928    -8181081.117 7     39996.305 2
  19810157.881   -19510124.133 7 -14895867.047 2
  20502422.357   -20380596.633 7 -15597999.503 2
 90 10 12 13 38 59.9980000  0  5 02 12 06 13 09
  21526118.412     4071021.110 6   3173900.193 1
  23917700.678    -1781303.673 4   -216994.430 1
  19852058.865    -8177217.962 7     43006.527 2
  19806417.443   -19529777.003 7 -14911180.979 2
  20495345.615   -20417790.599 7 -15626981.826 2
 90 10 12 13 39 14.9980000  0  5 02 12 06 13 09
  21529676.076     4089711.816 6   3188464.331 1
  23907098.006    -1836983.198 4   -260381.065 1
  19852819.279    -8173215.280 7     46125.474 2
  19802704.404   -19549287.410 7 -14926383.904 2
  20488285.756   -20454884.874 7 -15655886.467 2
 90 10 12 13 39 29.9980000  0  5 02 12 06 13 09
  21533241.162     4108449.675 6   3203065.206 1
  23896506.131    -1892659.063 4   -303764.863 1
  19853606.303    -8169072.470 7     49353.606 2
  19799019.631   -19568654.870 7 -14941475.435 2
  20481246.943   -20491878.647 7 -15684712.793 2
 90 10 12 13 39 44.9980000  0  5 02 12 06 13 09
  21536813.404     4127219.369 6   3217690.883 1
  23885913.428    -1948346.422 5   -347157.600 1
  19854419.045    -8164804.936 7     52678.941 2
  19795357.334   -19587894.800 7 -14956467.599 2
  20474222.576   -20528786.907 7 -15713472.489 2
 90 10 12 13 39 59.9980000  0  5 02 12 06 13 09
  21540392.779     4146031.921 6   3232349.960 1
  23875313.670    -2004033.808 4   -390550.369 1
  19855257.717    -8160401.299 7     56110.318 2
  19791722.795   -19606996.203 7 -14971351.818 2
  20467217.787   -20565598.224 7 -15742156.643 2
 90 10 12 13 40 14.9980000  0  5 02 12 06 13 09
  21543982.123     4164896.989 6   3247049.963 1
  23864716.693    -2059711.469 4   -433935.575 1
  19856124.154    -8155851.931 7     59655.256 2
  19788116.850   -19625949.789 7 -14986120.853 2
  20460233.881   -20602302.717 7 -15770757.555 2
 90 10 12 13 40 29.9980000  0  5 02 12 06 13 09
  21547583.779     4183815.343 6   3261791.477 1
  23854127.107    -2115378.572 5   -477312.529 1
  19857017.350    -8151156.318 7     63314.154 2
  19784538.139   -19644754.988 7 -15000774.258 2
  20453270.303   -20638899.288 7 -15799274.371 2
 90 10 12 13 40 44.9980000  0  5 02 12 06 13 09
  21551192.764     4202777.240 6   3276566.926 1
  23843529.225    -2171044.573 4   -520688.647 1
  19857936.975    -8146323.944 7     67079.613 2
  19780986.553   -19663421.156 7 -15015319.335 2
  20446323.686   -20675397.542 7 -15827714.577 2
 90 10 12 13 40 59.9980000  0  5 02 12 06 13 09
  21554806.732     4221784.479 6   3291377.702 1
  23832938.131    -2226707.240 4   -564062.153 1
  19858882.256    -8141352.902 7     70953.121 2
  19777459.857   -19681946.597 7 -15029754.748 2
  20439399.240   -20711795.163 7 -15856076.375 2
 90 10 12 13 41 14.9980000  0  5 02 12 06 13 09
  21558434.787     4240841.011 6   3306226.892 1
  23822347.467    -2282362.545 4   -607429.954 1
  19859855.264    -8136239.276 7     74937.736 3
  19773963.225   -19700327.614 7 -15044077.628 2
  20432491.686   -20748087.993 7 -15884356.507 2
 90 10 12 13 41 29.9980000  0  5 02 12 06 13 09
  21562068.373     4259942.740 6   3321111.298 1
  23811758.701    -2338014.205 4   -650794.856 1
  19860855.147    -8130986.997 7     79030.388 2
  19770491.100   -19718568.129 7 -15058291.023 1
  20425604.787   -20784279.563 7 -15912557.747 2
 90 10 12 13 41 44.9980000  0  5 02 12 06 13 09
  21565711.717     4279085.938 6   3336028.017 1
  23801162.943    -2393665.822 4   -694159.759 1
  19861879.865    -8125599.709 7     83228.250 2
  19767046.061   -19736672.239 7 -15072398.129 2
  20418737.084   -20820373.524 7 -15940682.924 2
 90 10 12 13 41 59.9980000  0  5 02 12 06 13 09
  21569365.248     4298278.857 6   3350983.478 1
  23790580.053    -2449309.005 5   -737518.088 1
  19862931.998    -8120069.321 7     87537.624 2
  19763629.084   -19754631.854 7 -15086392.640 2
  20411888.811   -20856361.460 7 -15968725.482 2
 90 10 12 13 42 14.9980000  0  5 02 12 06 13 09
  21573023.904     4317511.758 6   3365970.099 1
  23779994.521    -2504953.168 4   -780877.153 1
  19864010.787    -8114405.361 7     91951.068 3
  19760237.912   -19772456.600 7 -15100282.060 2
  20405058.545   -20892252.217 7 -15996692.314 2
 90 10 12 13 42 29.9980000  0  5 02 12 06 13 09
  21576693.225     4336788.543 6   3380990.913 1
  23769400.092    -2560594.282 4   -824233.886 1
  19865114.936    -8108603.775 7     96471.758 2
  19756872.045   -19790142.499 7 -15114063.296 1
  20398248.295   -20928041.933 7 -16024580.415 2
 90 10 12 13 42 44.9980000  0  5 02 12 06 13 09
  21580370.240     4356112.530 6   3396048.514 1
  23758812.451    -2616228.746 4   -867585.405 1
  19866245.373    -8102661.369 7    101102.172 2
  19753532.857   -19807686.668 7 -15127734.082 2
  20391456.459   -20963727.186 7 -16052387.117 2
 90 10 12 13 42 59.9980000  0  5 02 12 06 13 09
  21584054.772     4375481.268 6   3411140.985 1
  23748222.022    -2671858.667 4   -910933.405 1
  19867403.287    -8096580.552 7    105840.440 2
  19750221.279   -19825091.253 7 -15141296.108 2
  20384685.779   -20999309.757 7 -16080113.806 2
 90 10 12 13 43 14.9980000  0  5 02 12 06 13 09
  21587751.428     4394901.601 6   3426273.647 1
  23737649.498    -2727476.944 5   -954272.326 1
  19868587.834    -8090354.218 7    110692.100 3
  19746937.100   -19842349.492 7 -15154744.094 2
  20377935.771   -21034782.412 7 -16107754.850 2
 90 10 12 13 43 29.9980000  0  5 02 12 06 13 09
  21591455.084     4414359.762 6   3441435.798 1
  23727060.998    -2783097.217 4   -997612.789 1
  19869797.037    -8083996.116 7    115646.442 2
  19743677.193   -19859475.538 7 -15168089.075 1
  20371204.428   -21070158.927 7 -16135320.975 2
 90 10 12 13 43 44.9980000  0  5 02 12 06 13 09
  21595166.318     4433859.335 6   3456630.207 1
  23716479.147    -2838715.804 5  -1040951.950 1
  19871032.678    -8077503.010 7    120705.979 3
  19740444.225   -19876465.973 7 -15181328.386 1
  20364490.459   -21105435.407 7 -16162809.156 2
 90 10 12 13 43 59.9980000  0  5 02 12 06 13 09
  21598882.732     4453403.796 6   3471859.606 1
  23705890.818    -2894328.926 4  -1084286.883 1
  19872294.115    -8070871.174 7    125873.614 2
  19737238.123   -19893317.220 7 -15194459.236 2
  20357798.240   -21140607.969 7 -16190216.358 2
 90 10 12 13 44 14.9980000  0  5 02 12 06 13 09
  21602611.467     4472996.759 6   3487126.791 1
  23695310.467    -2949932.506 4  -1127614.331 1
  19873583.467    -8064096.672 7    131152.420 3
  19734058.029   -19910025.782 7 -15207478.905 2
  20351126.107   -21175672.355 7 -16217539.274 2
 90 10 12 13 44 29.9980000  0  5 02 12 06 13 09
  21606349.561     4492637.228 6   3502430.987 1
  23684738.396    -3005527.487 5  -1170935.098 1
  19874899.662    -8057180.855 7    136541.345 2
  19730906.076   -19926593.067 7 -15220388.490 1
  20344474.420   -21210629.814 7 -16244778.865 2
 90 10 12 13 44 44.9980000  0  5 02 12 06 13 09
  21610098.240     4512324.749 6   3517771.844 1
  23674160.350    -3061114.247 5  -1214249.481 1
  19876242.701    -8050124.031 7    142040.141 2
  19727779.990   -19943019.410 7 -15233188.248 2
  20337841.225   -21245480.245 7 -16271935.056 2
 90 10 12 13 44 59.9980000  0  5 02 12 06 13 09
  21613850.436     4532054.588 6   3533145.687 1
  23663577.826    -3116697.174 4  -1257560.857 1
  19877611.857    -8042930.877 7    147645.167 2
  19724680.357   -19959309.546 7 -15245881.867 2
  20331229.295   -21280227.999 7 -16299011.249 2
 90 10 12 13 45 14.9980000  0  5 02 12 06 13 09
  21617611.264     4551829.513 6   3548554.662 1
  23653004.521    -3172273.372 5  -1300866.988 1
  19879007.061    -8035598.737 7    153358.496 2
  19721606.678   -19975461.103 7 -15258467.512 2
  20324637.397   -21314870.382 7 -16326005.324 2
 90 10 12 13 45 29.9980000  0  5 02 12 06 13 09
  21621387.123     4571650.698 6   3563999.674 1
  23642432.615    -3227841.235 5  -1344166.605 1
  19880429.506    -8028126.179 7    159181.238 3
  19718559.936   -19991472.823 7 -15270944.186 1
  20318065.521   -21349405.206 7 -16352915.588 2
 90 10 12 13 45 44.9980000  0  5 02 12 06 13 09
  21625167.389     4591512.280 6   3579476.167 1
  23631858.717    -3283406.460 5  -1387464.204 1
  19881876.897    -8020519.251 7    165108.680 2
  19715537.076   -20007350.645 7 -15283316.523 1
  20311513.545   -21383838.588 7 -16379746.807 2
 90 10 12 13 45 59.9980000  0  5 02 12 06 13 09
  21628949.662     4611401.134 6   3594973.916 1
  23621283.725    -3338981.947 5  -1430769.768 1
  19883346.678    -8012791.002 7    171130.661 3
  19712539.834   -20023107.915 7 -15295594.929 2
  20304976.990   -21418183.199 7 -16406508.853 2
 90 10 12 13 46 14.9980000  0  5 02 12 06 13 09
  21632742.834     4631326.475 6   3610500.095 1
  23610705.162    -3394558.426 5  -1474076.158 1
  19884842.459    -8004932.175 7    177254.392 2
  19709566.881   -20038735.544 7 -15307772.310 2
  20298460.303   -21452429.702 7 -16433194.458 2
 90 10 12 13 46 29.9980000  0  5 02 12 06 13 09
  21636542.998     4651297.334 6   3626061.741 1
  23600130.084    -3450126.427 4  -1517375.889 1
  19886364.732    -7996933.607 7    183487.014 3
  19706619.061   -20054224.416 7 -15319841.572 1
  20291963.990   -21486568.432 7 -16459796.079 2
 90 10 12 13 46 44.9980000  0  5 02 12 06 13 09
  21640350.217     4671309.987 6   3641655.962 1
  23589559.037    -3505689.345 5  -1560671.659 1
  19887912.318    -7988799.119 7    189825.549 3
  19703696.975   -20069578.464 7 -15331805.779 1
  20285487.311   -21520602.936 7 -16486316.488 2
 90 10 12 13 46 59.9980000  0  5 02 12 06 13 09
  21644168.842     4691374.570 6   3657290.637 1
  23578990.803    -3561236.815 5  -1603955.412 1
  19889488.904    -7980518.337 7    196278.081 3
  19700802.811   -20084787.371 7 -15343656.885 1
  20279032.631   -21554522.617 7 -16512747.422 2
 90 10 12 13 47 14.9980000  0  5 02 12 06 13 09
  21647997.209     4711489.738 6   3672964.737 1
  23568417.842    -3616769.950 5  -1647228.013 1
  19891092.396    -7972092.578 7    202843.577 2
  19697936.397   -20099852.563 7 -15355396.004 1
  20272600.154   -21588328.499 7 -16539089.683 2
 90 10 12 13 47 29.9980000  0  5 02 12 06 13 09
  21651832.092     4731649.809 6   3688673.823 1
  23557849.826    -3672294.466 5  -1690493.866 1
  19892721.662    -7963527.851 7    209517.356 3
  19695094.459   -20114780.232 7 -15367027.974 1
  20266187.357   -21622026.220 7 -16565347.659 2
 90 10 12 13 47 44.9980000  0  5 02 12 06 13 09
  21655679.826     4751860.154 6   3704422.074 1
  23547290.154    -3727804.474 5  -1733748.452 1
  19894379.381    -7954818.506 7    216303.830 3
  19692280.631   -20129565.016 7 -15378548.595 1
  20259795.740   -21655610.006 7 -16591516.862 2
 90 10 12 13 47 59.9980000  0  5 02 12 06 13 09
  21659528.350     4772103.040 6   3720195.696 1
  23536727.873    -3783317.605 5  -1777005.417 1
  19896060.709    -7945982.368 7    223189.100 3
  19689493.326   -20144224.787 7 -15389971.809 1
  20253424.279   -21689097.366 7 -16617610.922 2
 90 10 12 13 48 14.9980000  0  5 02 12 06 13 09
  21663391.334     4792389.118 6   3736002.968 1
  23526164.131    -3838822.751 5  -1820256.205 1
  19897768.389    -7937008.595 7    230181.611 3
  19686728.178   -20158748.896 7 -15401289.310 1
  20247072.131   -21722476.930 7 -16643620.993 2
 90 10 12 13 48 29.9980000  0  5 02 12 06 13 09
  21667260.881     4812723.936 6   3751848.219 1
  23515605.592    -3894314.088 5  -1863496.213 1
  19899502.412    -7927891.727 7    237285.633 3
  19683991.092   -20173131.964 7 -15412496.908 1
  20240742.256   -21755743.077 7 -16669542.682 2
 90 10 12 13 48 44.9980000  0  5 02 12 06 13 09
  21671140.748     4833110.359 6   3767733.675 1
  23505047.389    -3949788.716 5  -1906723.198 1
  19901266.186    -7918628.921 7    244503.370 3
  19681280.936   -20187371.404 7 -15423592.588 1
  20234434.311   -21788892.830 7 -16695373.674 2
 90 10 12 13 48 59.9980000  0  5 02 12 06 13 09
  21675027.936     4853537.017 6   3783650.485 1
  23494482.459    -4005257.872 4  -1949945.933 1
  19903054.936    -7909231.665 7    251825.878 3
  19678598.553   -20201478.526 7 -15434585.167 1
  20228144.256   -21821937.050 7 -16721122.432 2
 90 10 12 13 49 14.9980000  0  5 02 12 06 13 09
  21678923.607     4874002.982 6   3799597.927 1
  23483939.686    -4060722.137 5  -1993164.849 1
  19904868.053    -7899700.738 7    259252.539 3
  19675938.381   -20215454.595 7 -15445475.625 1
  20221876.740   -21854876.572 7 -16746789.612 2
 90 10 12 13 49 29.9980000  0  5 02 12 06 13 09
  21682828.264     4894530.744 6   3815593.523 1
  23473394.600    -4116158.728 5  -2036362.203 1
  19906711.662    -7890013.681 7    266800.861 3
  19673306.865   -20229277.116 7 -15456246.435 1
  20215633.654   -21887688.387 7 -16772357.276 2
 90 10 12 13 49 44.9980000  0  5 02 12 06 13 09
  21686745.521     4915107.005 6   3831626.902 1
  23462846.139    -4171580.587 5  -2079548.084 1
  19908582.420    -7880183.755 7    274460.507 3
  19670703.920   -20242959.383 7 -15466907.957 1
  20209411.342   -21920385.383 7 -16797835.473 2
 90 10 12 13 49 59.9980000  0  5 02 12 06 13 09
  21690668.537     4935731.841 6   3847698.135 1
  23452293.982    -4226987.651 5  -2122722.440 1
  19910479.709    -7870210.746 7    282231.647 3
  19668127.537   -20256501.547 7 -15477460.310 1
  20203211.686   -21952967.430 7 -16823224.094 2
 90 10 12 13 50 14.9980000  0  5 02 12 06 13 09
  21694601.670     4956397.389 6   3863801.096 1
  23441756.232    -4282387.395 5  -2165891.061 1
  19912403.287    -7860102.785 7    290107.947 2
  19665575.186   -20269911.556 7 -15487909.681 2
  20197031.467   -21985441.977 7 -16848528.955 2
 90 10 12 13 50 29.9980000  0  5 02 12 06 13 09
  21698544.232     4977112.049 6   3879942.325 1
  23431218.607    -4337771.147 5  -2209047.254 1
  19914353.686    -7849851.354 7    298096.050 3
  19663050.475   -20283181.453 7 -15498249.876 2
  20190873.381   -22017800.473 7 -16873743.381 2
 90 10 12 13 50 44.9980000  0  5 02 12 06 13 09
  21702495.256     4997874.542 6   3896120.825 1
  23420687.131    -4393140.145 5  -2252191.951 1
  19916331.834    -7839457.869 7    306194.833 3
  19660550.482   -20296312.510 7 -15508481.885 2
  20184739.084   -22050043.862 7 -16898868.120 2
 90 10 12 13 50 59.9980000  0  5 02 12 06 13 09
  21706454.131     5018680.724 6   3912333.372 1
  23410143.756    -4448498.142 5  -2295328.066 1
  19918335.693    -7828926.283 7    314401.224 3
  19658078.686   -20309308.939 7 -15518608.985 1
  20178623.756   -22082175.891 7 -16923906.086 2
 90 10 12 13 51 14.9980000  0  5 02 12 06 13 09
  21710424.568     5039532.958 6   3928581.796 1
  23399615.115    -4503842.501 5  -2338453.523 1
  19920365.459    -7818254.376 7    322716.962 3
  19655630.904   -20322168.338 7 -15528629.318 1
  20172532.240   -22114193.967 7 -16948855.252 2
 90 10 12 13 51 29.9980000  0  5 02 12 06 13 09
  21714395.561     5060414.014 6   3944852.682 1
  23389081.279    -4559189.909 5  -2381581.399 1
  19922422.084    -7807459.200 7    331128.750 3
  19653207.178   -20334908.208 7 -15538556.506 2
  20166456.279   -22146114.822 7 -16973728.665 2
 90 10 12 13 51 44.9980000  0  5 02 12 06 13 09
  21718376.912     5081336.324 6   3961155.709 1
  23378552.107    -4614527.764 5  -2424701.820 1
  19924501.373    -7796528.152 7    339646.405 2
  19650807.225   -20347516.079 7 -15548380.837 1
  20160403.506   -22177925.790 7 -16998516.450 2
 90 10 12 13 51 59.9980000  0  5 02 12 06 13 09
  21722366.092     5102297.527 6   3977489.043 1
  23368025.756    -4669858.242 5  -2467816.485 1
  19926607.326    -7785463.909 7    348267.857 2
  19648432.420   -20359994.399 7 -15558104.224 2
  20154370.154   -22209628.819 7 -17023220.128 2
 90 10 12 13 52 14.9980000  0  5 02 12 06 13 09
  21726363.131     5123304.196 6   3993857.812 1
  23357497.662    -4725174.543 5  -2510920.111 1
  19928738.865    -7774259.761 7    356998.324 3
  19646084.037   -20372336.910 7 -15567721.781 2
  20148358.998   -22241217.267 7 -17047834.522 2
 90 10 12 13 52 29.9980000  0  5 02 12 06 13 09
  21730368.279     5144351.467 6   4010258.210 1
  23346974.514    -4780481.338 5  -2554016.348 1
  19930896.943    -7762920.629 7    365833.977 2
  19643760.076   -20384548.647 7 -15577237.439 2
  20142369.709   -22272695.541 7 -17072363.065 2
 90 10 12 13 52 44.9980000  0  5 02 12 06 13 09
  21734384.521     5165453.932 6   4026701.620 1
  23336453.498    -4835763.944 5  -2597093.704 1
  19933082.779    -7751432.077 7    374786.061 3
  19641463.639   -20396615.317 7 -15586640.062 1
  20136404.029   -22304048.810 7 -17096794.201 2
 90 10 12 13 52 59.9980000  0  5 02 12 06 13 09
  21738408.717     5186598.765 6   4043178.046 1
  23325936.248    -4891034.906 5  -2640162.015 1
  19935295.436    -7739807.005 7    383844.528 3
  19639192.553   -20408550.021 7 -15595939.848 1
  20130456.771   -22335289.922 7 -17121137.943 2
 90 10 12 13 53 14.9980000  0  5 02 12 06 13 09
  21742442.654     5207790.900 6   4059691.325 1
  23315422.373    -4946288.823 5  -2683217.029 1
  19937534.811    -7728040.378 7    393013.288 3
  19636947.693   -20420347.764 7 -15605132.910 1
  20124536.170   -22366413.382 7 -17145390.010 2
 90 10 12 13 53 29.9980000  0  5 02 12 06 13 09
  21746483.412     5229027.673 6   4076239.387 1
  23304905.725    -5001527.971 5  -2726260.533 1
  19939800.436    -7716134.647 7    402290.445 3
  19634729.311   -20432011.134 7 -15614221.272 2
  20118634.092   -22397421.306 7 -17169552.046 2
 90 10 12 13 53 44.9980000  0  5 02 12 06 13 09
  21750530.725     5250303.940 6   4092818.227 1
  23294397.943    -5056757.492 5  -2769296.529 1
  19942090.764    -7704095.142 7    411671.839 3
  19632532.482   -20443545.667 7 -15623209.237 1
  20112754.420   -22428318.835 7 -17193628.059 2
 90 10 12 13 53 59.9980000  0  5 02 12 06 13 09
  21754587.271     5271624.565 6   4109431.627 1
  23283890.014    -5111972.218 5  -2812321.020 1
  19944407.693    -7691917.090 7    421161.189 3
  19630364.904   -20454946.479 7 -15632093.008 1
  20106897.084   -22459100.693 7 -17217613.944 2
 90 10 12 13 54 14.9980000  0  5 02 12 06 13 09
  21758655.248     5292987.974 6   4126078.365 1
  23273388.521    -5167173.610 5  -2855335.095 1
  19946752.482    -7679602.163 7    430757.203 3
  19628219.021   -20466215.577 7 -15640874.141 1
  20101062.740   -22489768.268 7 -17241510.775 2
 90 10 12 13 54 29.9980000  0  5 02 12 06 13 09
  21762727.170     5314396.382 6   4142760.176 1
  23262891.936    -5222359.087 5  -2898336.796 1
  19949122.303    -7667148.014 7    440461.698 2
  19626100.631   -20477350.720 7 -15649550.895 2
  20095249.529   -22520319.139 7 -17265316.673 2
 90 10 12 13 54 44.9980000  0  5 02 12 06 13 09
  21766811.693     5335852.588 6   4159479.222 1
  23252387.568    -5277525.755 5  -2941323.818 1
  19951518.748    -7654552.079 7    450276.677 3
  19624007.092   -20488349.225 7 -15658121.181 1
  20089457.147   -22550750.111 7 -17289029.131 2
 90 10 12 13 54 59.9980000  0  5 02 12 06 13 09
  21770904.537     5357357.597 6   4176236.301 1
  23241895.818    -5332672.240 5  -2984295.125 1
  19953942.404    -7641813.193 7    460203.042 3
  19621940.889   -20499210.441 7 -15666584.484 1
  20083690.248   -22581059.984 7 -17312647.234 2
 90 10 12 13 55 14.9980000  0  5 02 12 06 13 09
  21775000.592     5378897.006 6   4193020.175 1
  23231404.209    -5387812.525 5  -3027261.595 1
  19956391.029    -7628945.854 7    470229.499 3
  19619898.584   -20509948.762 7 -15674952.024 1
  20077941.928   -22611262.605 7 -17336181.768 2
 90 10 12 13 55 29.9980000  0  5 02 12 06 13 09
  21779111.279     5400481.905 6   4209839.501 1
  23220911.912    -5442935.222 5  -3070214.366 1
  19958866.475    -7615938.821 7    480364.811 3
  19617879.318   -20520553.240 7 -15683215.274 1
  20072217.350   -22641346.723 7 -17359623.960 2
 90 10 12 13 55 44.9980000  0  5 02 12 06 13 09
  21783223.490     5422111.499 6   4226693.653 1
  23210422.420    -5498040.941 5  -3113153.920 1
  19961368.576    -7602792.950 7    490608.306 3
  19615886.764   -20531024.866 7 -15691375.000 1
  20066515.803   -22671312.839 7 -17382974.202 2
 90 10 12 13 55 59.9980000  0  5 02 12 06 13 09
  21787350.865     5443787.046 6   4243583.620 1
  23199944.537    -5553128.198 5  -3156079.066 1
  19963897.381    -7589507.197 7    500960.807 3
  19613920.748   -20541362.316 7 -15699430.178 1
  20060835.967   -22701159.224 7 -17406231.146 2
 90 10 12 13 56 14.9980000  0  5 02 12 06 13 09
  21791484.584     5465515.657 6   4260514.927 1
  23189469.592    -5608189.457 5  -3198983.962 1
  19966452.857    -7576074.292 7    511427.970 3
  19611979.021   -20551558.722 7 -15707375.454 1
  20055180.178   -22730878.661 7 -17429389.166 2
 90 10 12 13 56 29.9980000  0  5 02 12 06 13 09
  21795627.350     5487289.759 6   4277481.690 1
  23178990.232    -5663232.236 5  -3241874.476 1
  19969035.451    -7562501.969 7    522003.765 3
  19610063.889   -20561621.945 7 -15715216.950 2
  20049549.068   -22760478.518 7 -17452454.012 2
 90 10 12 13 56 44.9980000  0  5 02 12 06 13 09
  21799781.279     5509107.272 6   4294482.273 1
  23168515.412    -5718258.145 5  -3284751.835 1
  19971643.584    -7548792.240 7    532686.629 3
  19608175.217   -20571554.143 7 -15722956.342 1
  20043936.771   -22789960.395 7 -17475426.923 2
 90 10 12 13 56 59.9980000  0  5 02 12 06 13 09
  21803939.014     5530965.086 6   4311514.264 1
  23158050.490    -5773269.988 5  -3327618.211 1
  19974279.467    -7534948.024 7    543474.288 3
  19606308.881   -20581358.551 7 -15730596.164 2
  20038348.045   -22819326.988 7 -17498310.003 2
 90 10 12 13 57 14.9980000  0  5 02 12 06 13 09
  21808105.381     5552863.777 6   4328578.108 1
  23147591.404    -5828267.122 5  -3370473.143 1
  19976938.818    -7520969.270 7    554366.784 3
  19604467.756   -20591035.011 7 -15738136.281 1
  20032782.709   -22848577.637 7 -17521102.738 2
 90 10 12 13 57 29.9980000  0  5 02 12 06 13 09
  21812283.521     5574808.369 6   4345677.718 1
  23137128.217    -5883244.258 5  -3413312.499 1
  19979625.514    -7506850.847 7    565368.118 3
  19602650.701   -20600578.442 7 -15745572.743 1
  20027239.959   -22877707.310 7 -17543801.203 2
 90 10 12 13 57 44.9970000  0  5 02 12 06 13 09
  21816468.024     5596799.132 6   4362813.302 1
  23126666.946    -5938195.835 5  -3456131.920 1
  19982339.696    -7492592.180 7    576478.725 3
  19600860.774   -20609986.912 7 -15752904.039 1
  20021719.907   -22906711.823 7 -17566402.143 2
 90 10 12 13 57 59.9970000  0  5 02 12 06 13 09
  21820659.626     5618834.054 6   4379983.299 1
  23116214.634    -5993133.757 5  -3498940.733 1
  19985078.759    -7478196.034 7    587696.463 2
  19599095.970   -20619266.673 7 -15760135.043 1
  20016222.024   -22935599.644 7 -17588912.149 2
 90 10 12 13 58 14.9970000  0  5 02 12 06 13 09
  21824862.196     5640916.917 6   4397190.648 1
  23105763.728    -6048048.941 5  -3541731.795 1
  19987844.524    -7463658.410 7    599024.439 3
  19597355.040   -20628411.966 7 -15767261.265 1
  20010749.501   -22964363.353 7 -17611325.450 2
 90 10 12 13 58 29.9970000  0  5 02 12 06 13 09
  21829073.415     5663042.130 6   4414430.996 1
  23095314.204    -6102946.615 5  -3584509.226 1
  19990637.360    -7448984.945 7    610458.267 2
  19595639.274   -20637428.671 7 -15774287.287 1
  20005299.501   -22993008.543 7 -17633646.397 2
 90 10 12 13 58 44.9970000  0  5 02 12 06 13 09
  21833294.126     5685213.824 6   4431707.562 1
  23084875.673    -6157822.297 5  -3627269.526 1
  19993455.829    -7434171.296 7    622001.333 3
  19593948.712   -20646312.661 7 -15781209.900 1
  19999870.095   -23021530.306 7 -17655871.167 2
 90 10 12 13 58 59.9970000  0  5 02 12 06 13 09
  21837519.743     5707433.901 6   4449021.834 1
  23074435.290    -6212673.824 5  -3670011.005 1
  19996302.306    -7419215.766 7    633654.957 3
  19592284.071   -20655062.224 7 -15788027.761 1
  19994466.915   -23049926.515 7 -17677998.102 2
 90 10 12 13 59 14.9970000  0  5 02 12 06 13 09
  21841756.915     5729699.087 6   4466371.251 1
  23064001.524    -6267504.401 5  -3712736.137 1
  19999175.009    -7404121.601 7    645416.602 3
  19590643.509   -20663681.029 7 -15794743.728 1
  19989088.337   -23078200.410 7 -17700029.726 2
 90 10 12 13 59 29.9970000  0  5 02 12 06 13 09
  21846002.626     5752006.085 6   4483753.255 1
  23053570.806    -6322317.089 5  -3755447.346 1
  20002071.446    -7388892.480 7    657283.405 2
  19589028.821   -20672172.478 7 -15801360.464 1
  19983730.095   -23106355.074 7 -17721968.448 2
 90 10 12 13 59 44.9970000  0  5 02 12 06 13 09
  21850255.907     5774358.720 6   4501170.818 1
  23043144.110    -6377107.477 5  -3798141.170 1
  20004998.118    -7373524.133 7    669258.706 2
  19587437.001   -20680532.850 7 -15807875.060 1
  19978395.829   -23134386.031 7 -17743810.776 2
 90 10 12 13 59 59.9970000  0  5 02 12 06 13 09
  21854519.728     5796760.962 6   4518627.038 1
  23032725.321    -6431871.266 5  -3840814.259 1
  20007948.337    -7358012.574 7    681345.595 3
  19585871.493   -20688758.211 7 -15814284.455 1
  19973084.860   -23162288.934 7 -17765553.315 2
 90 10 12 14  0 14.9970000  0  5 02 12 06 13 09
  21858792.579     5819210.399 6   4536120.023 1
  23022307.564    -6486610.606 5  -3883468.325 1
  20010927.454    -7342360.560 7    693541.924 2
  19584330.946   -20696851.051 7 -15820590.583 1
  19967800.923   -23190065.976 7 -17787197.785 2
 90 10 12 14  0 29.9970000  0  5 02 12 06 13 09
  21863079.829     5841730.990 6   4553668.460 1
  23011895.368    -6541301.389 5  -3926084.529 1
  20013937.149    -7326544.100 7    705866.390 2
  19582821.603   -20704787.776 7 -15826775.065 1
  19962542.728   -23217693.105 7 -17808725.441 2
 90 10 12 14  0 44.9970000  0  5 02 12 06 13 09
  21867374.907     5864302.206 6   4571256.342 1
  23001498.321    -6595963.828 5  -3968678.668 1
  20016975.681    -7310583.774 7    718302.969 2
  19581336.860   -20712589.177 7 -15832854.096 1
  19957310.267   -23245190.504 7 -17830152.000 2
 90 10 12 14  0 59.9970000  0  5 02 12 06 13 09
  21871677.767     5886919.759 6   4588880.331 1
  22991100.384    -6650601.928 5  -4011253.824 1
  20020038.204    -7294483.999 7    730848.212 2
  19579877.149   -20720259.553 7 -15838831.035 1
  19952100.517   -23272562.391 7 -17851480.761 2
 90 10 12 14  1 14.9970000  0  5 02 12 06 13 09
  21875991.657     5909587.213 6   4606543.205 1
  22980711.876    -6705211.865 5  -4053807.034 1
  20023129.564    -7278241.281 7    743504.833 2
  19578443.517   -20727795.550 7 -15844703.262 1
  19946916.884   -23299804.819 7 -17872708.648 2
 90 10 12 14  1 29.9970000  0  5 02 12 06 13 09
  21880310.696     5932302.667 6   4624243.478 1
  22970323.462    -6759795.224 5  -4096339.556 1
  20026247.415    -7261857.530 7    756271.346 3
  19577034.056   -20735199.471 7 -15850472.572 1
  19941757.251   -23326919.297 7 -17893836.834 2
 90 10 12 14  1 44.9970000  0  5 02 12 06 13 09
  21884643.001     5955060.467 6   4641976.746 1
  22959938.290    -6814357.337 5  -4138855.509 1
  20029390.798    -7245338.562 7    769143.222 3
  19575649.399   -20742476.878 7 -15856143.299 1
  19936621.837   -23353911.203 7 -17914869.508 2
 90 10 12 14  1 59.9970000  0  5 02 12 06 13 09
  21888982.063     5977861.277 6   4659743.536 1
  22949561.837    -6868897.361 5  -4181354.255 1
  20032560.931    -7228683.644 7    782121.039 3
  19574288.759   -20749627.420 7 -15861715.169 1
  19931509.298   -23380779.546 7 -17935805.901 2
 90 10 12 14  2 14.9970000  0  5 02 12 06 13 09
  21893328.931     6000707.694 6   4677545.861 1
  22939184.548    -6923412.487 5  -4223833.601 1
  20035755.509    -7211890.334 7    795206.688 3
  19572952.470   -20756648.816 7 -15867186.403 1
  19926418.884   -23407521.766 7 -17956644.017 2
 90 10 12 14  2 29.9970000  0  5 02 12 06 13 09
  21897686.564     6023600.774 6   4695384.544 1
  22928819.626    -6977901.415 5  -4266292.519 1
  20038978.353    -7194957.831 7    808400.807 3
  19571641.532   -20763540.272 7 -15872556.393 1
  19921354.001   -23434136.375 7 -17977382.690 2
 90 10 12 14  2 44.9970000  0  5 02 12 06 13 09
  21902052.642     6046539.334 6   4713258.661 1
  22918454.978    -7032364.959 5  -4308731.683 1
  20042226.173    -7177887.176 7    821702.582 3
  19570354.610   -20770302.893 7 -15877825.986 1
  19916315.228   -23460624.322 7 -17998022.668 2
 90 10 12 14  2 59.9970000  0  5 02 12 06 13 09
  21906426.251     6069521.734 6   4731166.931 1
  22908092.806    -7086804.525 5  -4351152.123 1
  20045500.392    -7160680.166 7    835110.600 2
  19569091.821   -20776938.725 7 -15882996.785 1
  19911298.806   -23486986.857 7 -18018564.928 2
 90 10 12 14  3 14.9970000  0  5 02 12 06 13 09
  21910806.571     6092550.166 6   4749111.090 1
  22897737.212    -7141217.793 5  -4393552.119 1
  20048800.829    -7143334.646 7    848626.550 3
  19567853.126   -20783445.504 7 -15888067.025 1
  19906305.884   -23513221.521 7 -18039007.540 2
 90 10 12 14  3 29.9970000  0  5 02 12 06 13 09
  21915198.470     6115630.243 6   4767095.489 1
  22887392.415    -7195598.860 5  -4435926.989 1
  20052128.563    -7125845.166 7    862254.671 3
  19566640.462   -20789817.949 7 -15893032.589 1
  19901338.923   -23539322.596 7 -18059346.062 2
 90 10 12 14  3 44.9970000  0  5 02 12 06 13 09
  21919600.040     6138752.949 6   4785113.098 1
  22877048.954    -7249956.185 5  -4478283.372 1
  20055482.212    -7108220.594 7    875988.052 3
  19565452.087   -20796065.283 7 -15897900.659 1
  19896395.603   -23565298.750 7 -18079587.241 2
 90 10 12 14  3 59.9970000  0  5 02 12 06 13 09
  21924006.110     6161921.253 6   4803166.243 1
  22866712.485    -7304286.450 5  -4520618.666 1
  20058863.532    -7090458.005 7    889828.994 3
  19564288.165   -20802184.549 7 -15902668.937 1
  19891476.931   -23591146.325 7 -18099728.227 2
 90 10 12 14  4 14.9970000  0  5 02 12 06 13 09
  21928424.774     6185138.496 6   4821257.518 1
  22856377.095    -7358586.329 5  -4562930.277 1
  20062270.946    -7072554.366 7    903779.840 3
  19563147.470   -20808172.945 7 -15907335.241 1
  19886583.415   -23616862.440 7 -18119766.780 2
 90 10 12 14  4 29.9970000  0  5 02 12 06 13 09
  21932853.985     6208405.642 6   4839387.687 1
  22846052.228    -7412854.501 5  -4605217.192 1
  20065704.517    -7054508.764 7    917841.306 3
  19562032.126   -20814029.637 7 -15911898.919 1
  19881714.892   -23642445.396 7 -18139701.573 2
 90 10 12 14  4 44.9970000  0  5 02 12 06 13 09
  21937288.282     6231718.954 6   4857553.815 1
  22835729.993    -7467094.112 5  -4647481.856 1
  20069164.853    -7036324.776 7    932010.608 3
  19560943.009   -20819758.215 7 -15916362.767 1
  19876871.813   -23667898.693 7 -18159535.330 2
 90 10 12 14  4 59.9970000  0  5 02 12 06 13 09
  21941736.438     6255083.561 6   4875759.924 1
  22825412.040    -7521299.843 5  -4689720.116 1
  20072653.220    -7017997.521 7    946291.538 3
  19559879.095   -20825353.895 7 -15920723.057 1
  19872054.337   -23693216.875 7 -18179263.804 2
 90 10 12 14  5 14.9970000  0  5 02 12 06 13 09
  21946190.899     6278494.231 6   4894001.922 1
  22815102.829    -7575476.902 5  -4731936.041 1
  20076165.149    -6999532.288 7    960679.985 3
  19558838.829   -20830822.349 7 -15924984.216 1
  19867261.407   -23718405.002 7 -18198890.932 2
 90 10 12 14  5 29.9970000  0  5 02 12 06 13 09
  21950655.056     6301952.098 6   4912280.704 1
  22804798.782    -7629623.960 5  -4774128.569 1
  20079706.524    -6980928.193 7    975176.643 3
  19557820.610   -20836162.815 7 -15929145.635 1
  19862492.806   -23743461.910 7 -18218415.815 2
 90 10 12 14  5 44.9970000  0  5 02 12 06 13 09
  21955126.478     6325452.620 6   4930592.717 1
  22794498.782    -7683744.845 5  -4816300.724 1
  20083273.103    -6962189.643 7    989778.071 3
  19556828.821   -20841379.574 7 -15933210.663 1
  19857748.728   -23768391.572 7 -18237841.546 2
 90 10 12 14  5 59.9970000  0  5 02 12 06 13 09
  21959605.306     6348994.795 6   4948937.186 1
  22784206.970    -7737840.553 5  -4858453.259 1
  20086864.235    -6943317.933 7   1004483.261 3
  19555859.142   -20846474.132 7 -15937180.471 1
  19853029.704   -23793194.908 7 -18257168.839 2
 90 10 12 14  6 14.9970000  0  5 02 12 06 13 09
  21964096.946     6372581.415 6   4967316.287 1
  22773917.228    -7791907.632 5  -4900583.462 1
  20090481.173    -6924310.006 7   1019294.591 3
  19554914.063   -20851443.295 7 -15941052.567 1
  19848333.806   -23817868.575 7 -18276395.096 2
 90 10 12 14  6 29.9970000  0  5 02 12 06 13 09
  21968593.032     6396209.341 6   4985727.573 1
  22763638.134    -7845949.138 5  -4942693.758 1
  20094123.032    -6905169.269 7   1034209.400 3
  19553991.063   -20856290.801 7 -15944829.870 1
  19843661.712   -23842415.570 7 -18295522.643 2
 90 10 12 14  6 44.9970000  0  5 02 12 06 13 09
  21973098.720     6419882.396 6   5004174.022 1
  22753359.485    -7899961.068 5  -4984781.006 1
  20097790.337    -6885892.098 7   1049230.520 3
  19553092.524   -20861013.168 7 -15948509.658 1
  19839016.657   -23866831.951 7 -18314548.420 2
 90 10 12 14  6 59.9970000  0  5 02 12 06 13 09
  21977609.806     6443598.837 6   5022654.291 1
  22743087.892    -7953944.959 5  -5026846.403 1
  20101484.431    -6866480.501 7   1064356.394 3
  19552217.392   -20865612.849 7 -15952093.844 1
  19834394.540   -23891119.356 7 -18333473.686 2
 90 10 12 14  7 14.9970000  0  5 02 12 06 13 09
  21982131.587     6467358.453 6   5041168.194 1
  22732818.837    -8007900.493 5  -5068889.702 1
  20105205.767    -6846934.433 7   1079587.048 3
  19551365.149   -20870089.580 7 -15955582.231 1
  19829795.915   -23915277.369 7 -18352298.136 2
 90 10 12 14  7 29.9970000  0  5 02 12 06 13 09
  21986664.814     6491163.476 6   5059717.479 1
  22722558.001    -8061825.226 5  -5110909.002 1
  20108949.642    -6827251.894 7   1094924.052 3
  19550537.853   -20874441.486 7 -15958973.348 1
  19825224.001   -23939303.743 7 -18371020.007 2
 90 10 12 14  7 44.9970000  0  5 02 12 06 13 09
  21991205.728     6515016.264 6   5078303.980 1
  22712305.735    -8115716.512 6  -5152902.235 1
  20112722.860    -6807430.595 7   1110369.174 3
  19549733.704   -20878666.577 7 -15962265.649 1
  19820678.423   -23963195.729 7 -18389637.163 2
 90 10 12 14  7 59.9970000  0  5 02 12 06 13 09
  21995750.360     6538917.038 6   5096927.875 1
  22702054.134    -8169573.588 5  -5194868.806 1
  20116521.548    -6787470.211 7   1125922.690 3
  19548953.681   -20882764.533 7 -15965458.882 1
  19816158.353   -23986952.700 7 -18408149.110 2
 90 10 12 14  8 14.9970000  0  5 02 12 06 13 09
  22000306.313     6562859.122 6   5115583.957 1
  22691807.876    -8223403.178 6  -5236813.971 1
  20120343.056    -6767377.912 7   1141578.985 3
  19548197.720   -20886742.338 7 -15968558.494 1
  19811662.321   -24010581.316 7 -18426561.039 2
 90 10 12 14  8 29.9970000  0  5 02 12 06 13 09
  22004868.032     6586842.836 6   5134272.471 1
  22681569.188    -8277204.563 5  -5278737.149 1
  20124193.274    -6747153.283 7   1157338.394 3
  19547462.970   -20890599.801 7 -15971564.332 1
  19807189.048   -24034080.944 7 -18444872.461 2
 90 10 12 14  8 44.9970000  0  5 02 12 06 13 09
  22009438.282     6610870.775 6   5152995.464 1
  22671336.212    -8330974.802 5  -5320636.056 1
  20128067.931    -6726793.792 7   1173202.890 3
  19546751.720   -20894334.628 7 -15974474.607 1
  19802743.267   -24057448.731 7 -18463081.145 2
 90 10 12 14  8 59.9970000  0  5 02 12 06 13 09
  22014025.634     6634948.796 6   5171757.471 1
  22661113.048    -8384707.701 5  -5362505.878 1
  20131967.790    -6706293.740 7   1189176.911 3
  19546066.118   -20897941.180 7 -15977284.931 1
  19798322.274   -24080678.512 7 -18481182.294 2
 90 10 12 14  9 14.9970000  0  5 02 12 06 13 09
  22018614.470     6659073.711 6   5190556.024 1
  22650893.173    -8438406.309 5  -5404348.974 1
  20135894.165    -6685656.536 7   1205257.804 3
  19545403.181   -20901422.991 7 -15979998.050 1
  19793927.087   -24103773.303 7 -18499178.257 2
 90 10 12 14  9 29.9970000  0  5 02 12 06 13 09
  22023213.017     6683243.316 6   5209389.387 1
  22640680.923    -8492072.584 6  -5446166.877 1
  20139849.063    -6664884.582 7   1221443.705 3
  19544764.024   -20904782.464 7 -15982615.854 1
  19789557.626   -24126735.394 7 -18517070.807 2
 90 10 12 14  9 44.9970000  0  5 02 12 06 13 09
  22027821.228     6707459.206 6   5228258.817 1
  22630475.821    -8545704.473 5  -5487957.976 1
  20143827.384    -6643976.210 7   1237735.904 3
  19544149.415   -20908018.239 7 -15985137.246 1
  19785213.814   -24149562.510 7 -18534858.197 2
 90 10 12 14  9 59.9970000  0  5 02 12 06 13 09
  22032440.610     6731721.881 6   5247164.718 1
  22620278.829    -8599301.016 6  -5529721.543 1
  20147830.603    -6622930.875 7   1254134.826 3
  19543555.946   -20911129.841 7 -15987561.898 1
  19780896.939   -24172253.902 7 -18552539.821 2
 90 10 12 14 10 14.9970000  0  5 02 12 06 13 09
  22037060.431     6756031.673 6   5266107.327 1
  22610087.064    -8652861.672 6  -5571457.144 1
  20151863.118    -6601748.430 7   1270640.584 3
  19542987.938   -20914117.096 7 -15989889.649 1
  19776604.353   -24194808.963 7 -18570115.213 2
 90 10 12 14 10 29.9970000  0  5 02 12 06 13 09
  22041698.532     6780383.971 6   5285083.058 1
  22599895.290    -8706390.825 5  -5613168.202 1
  20155918.899    -6580433.676 7   1287249.434 3
  19542442.243   -20916985.045 7 -15992124.439 1
  19772337.751   -24217232.098 7 -18587587.807 2
 90 10 12 14 10 44.9970000  0  5 02 12 06 13 09
  22046341.798     6804786.754 6   5304098.128 1
  22589716.548    -8759880.133 5  -5654848.201 1
  20160001.665    -6558978.742 7   1303967.525 3
  19541920.931   -20919725.831 7 -15994260.138 1
  19768097.767   -24239515.133 7 -18604951.231 2
 90 10 12 14 10 59.9970000  0  5 02 12 06 13 09
  22050993.032     6829234.503 6   5323148.239 1
  22579545.423    -8813334.927 5  -5696501.316 1
  20164111.274    -6537389.232 7   1320790.484 3
  19541421.696   -20922345.240 7 -15996301.255 1
  19763882.142   -24261663.528 7 -18622209.744 2
 90 10 12 14 11 14.9970000  0  5 02 12 06 13 09
  22055657.368     6853725.484 6   5342232.032 1
  22569385.345    -8866756.519 6  -5738128.554 1
  20168243.899    -6515666.941 7   1337716.905 3
  19540946.548   -20924845.485 7 -15998249.520 1
  19759693.298   -24283678.361 7 -18639364.180 2
 90 10 12 14 11 29.9970000  0  5 02 12 06 13 09
  22060329.782     6878268.817 6   5361356.613 1
  22559225.946    -8920135.467 6  -5779722.554 1
  20172401.946    -6493802.861 7   1354753.811 3
  19540494.142   -20927217.255 7 -16000097.677 1
  19755530.798   -24305550.430 7 -18656407.370 2
 90 10 12 14 11 44.9970000  0  5 02 12 06 13 09
  22065003.712     6902853.429 6   5380513.363 1
  22549074.204    -8973482.671 6  -5821291.839 1
  20176589.384    -6471808.197 7   1371892.467 3
  19540065.774   -20929471.882 7 -16001854.551 1
  19751394.282   -24327290.657 7 -18673347.828 2
 90 10 12 14 11 59.9970000  0  5 02 12 06 13 09
  22069693.673     6927484.247 6   5399706.130 1
  22538928.720    -9026792.775 6  -5862832.198 1
  20180800.915    -6449678.136 7   1389136.632 3
  19539660.134   -20931604.673 7 -16003516.485 1
  19747281.970   -24348893.558 7 -18690181.277 2
 90 10 12 14 12 14.9970000  0  5 02 12 06 13 09
  22074388.173     6952159.323 6   5418933.366 1
  22528789.837    -9080067.570 6  -5904345.050 1
  20185037.478    -6427414.881 7   1406484.578 3
  19539276.985   -20933618.002 7 -16005085.339 1
  19743198.493   -24370361.041 7 -18706909.204 2
 90 10 12 14 12 29.9970000  0  5 02 12 06 13 09
  22079089.657     6976880.253 6   5438196.341 1
  22518658.915    -9133305.058 6  -5945828.825 1
  20189299.892    -6405016.809 7   1423937.583 3
  19538917.118   -20935510.274 7 -16006559.859 1
  19739138.892   -24391691.461 7 -18723530.334 2
 90 10 12 14 12 44.9970000  0  5 02 12 06 13 09
  22083808.056     7001647.857 6   5457495.677 1
  22508536.353    -9186504.194 6  -5987282.720 1
  20193587.345    -6382483.257 7   1441496.151 3
  19538581.274   -20937280.922 7 -16007939.611 1
  19735106.345   -24412883.430 7 -18740043.578 2
 90 10 12 14 12 59.9970000  0  5 02 12 06 13 09
  22088533.657     7026465.199 6   5476833.776 1
  22498419.564    -9239661.540 6  -6028704.059 1
  20197903.360    -6359811.326 7   1459162.541 3
  19538267.501   -20938927.260 7 -16009222.496 1
  19731100.681   -24433933.931 7 -18756446.580 2
 90 10 12 14 13 14.9970000  0  5 02 12 06 13 09
  22093258.618     7051326.846 6   5496206.390 1
  22488311.517    -9292782.401 6  -6070096.965 1
  20202241.876    -6337006.808 7   1476932.256 3
  19537976.212   -20940455.164 7 -16010413.095 1
  19727121.048   -24454848.378 7 -18772743.573 2
 90 10 12 14 13 29.9970000  0  5 02 12 06 13 09
  22097998.360     7076232.829 6   5515613.564 1
  22478208.556    -9345866.092 6  -6111460.905 1
  20206605.610    -6314069.405 7   1494805.515 3
  19537707.618   -20941864.676 7 -16011511.444 1
  19723166.274   -24475625.996 7 -18788933.950 2
 90 10 12 14 13 44.9970000  0  5 02 12 06 13 09
  22102748.931     7101179.595 6   5535052.516 1
  22468115.681    -9398915.920 6  -6152798.460 1
  20210994.712    -6291002.986 7   1512779.305 3
  19537462.618   -20943159.657 7 -16012520.539 1
  19719237.813   -24496270.221 7 -18805020.377 2
 90 10 12 14 13 59.9970000  0  5 02 12 06 13 09
  22107505.962     7126176.983 6   5554530.903 1
  22458029.407    -9451921.822 6  -6194101.788 1
  20215410.853    -6267797.799 7   1530861.233 3
  19537239.204   -20944330.153 7 -16013432.637 1
  19715337.540   -24516771.108 7 -18820995.117 2
 90 10 12 14 14 14.9970000  0  5 02 12 06 13 09
  22112269.931     7151221.543 6   5574046.053 1
  22447952.610    -9504886.989 6  -6235373.373 1
  20219853.829    -6244457.475 7   1549048.459 3
  19537037.954   -20945379.790 7 -16014250.562 1
  19711462.228   -24537131.982 7 -18836860.757 2
 90 10 12 14 14 29.9970000  0  5 02 12 06 13 09
  22117042.532     7176310.664 6   5593595.933 1
  22437878.438    -9557813.738 6  -6276615.025 1
  20224321.243    -6220984.862 7   1567338.765 3
  19536860.548   -20946311.633 7 -16014976.697 1
  19707615.290   -24557355.030 7 -18852619.002 2
 90 10 12 14 14 44.9970000  0  5 02 12 06 13 09
  22121823.689     7201447.703 6   5613183.148 1
  22427813.313    -9610698.307 6  -6317823.802 1
  20228812.657    -6197376.584 7   1585734.778 3
  19536706.892   -20947122.563 7 -16015608.614 1
  19703792.868   -24577436.670 7 -18868267.053 2
 90 10 12 14 14 59.9970000  0  5 02 12 06 13 09
  22126619.868     7226628.233 6   5632804.254 1
  22417758.337    -9663544.745 6  -6359002.873 1
  20233332.110    -6173637.147 7   1604232.995 3
  19536575.798   -20947817.323 7 -16016150.003 1
  19699998.212   -24597381.197 7 -18883808.265 2
 90 10 12 14 15 14.9970000  0  5 02 12 06 13 09
  22131423.728     7251855.748 6   5652461.967 1
  22407709.962    -9716349.417 6  -6400149.400 1
  20237872.563    -6149763.306 7   1622835.946 2
  19536466.517   -20948392.676 7 -16016598.358 1
  19696229.665   -24617184.741 7 -18899239.619 2
 90 10 12 14 15 29.9970000  0  5 02 12 06 13 09
  22136229.517     7277133.425 6   5672158.769 1
  22397670.079    -9769108.642 6  -6441260.509 1
  20242440.837    -6125751.932 7   1641546.065 3
  19536378.993   -20948845.689 7 -16016951.374 1
  19692489.532   -24636843.846 7 -18914558.421 2
 90 10 12 14 15 44.9970000  0  5 02 12 06 13 09
  22141047.860     7302457.495 6   5691891.720 1
  22387637.853    -9821825.891 6  -6482338.904 1
  20247036.485    -6101606.961 7   1660360.295 3
  19536316.774   -20949180.316 7 -16017212.148 1
  19688774.431   -24656362.158 7 -18929767.506 2
 90 10 12 14 15 59.9970000  0  5 02 12 06 13 09
  22145875.384     7327824.792 6   5711658.356 1
  22377616.024    -9874504.174 6  -6523386.938 1
  20251655.907    -6077331.912 7   1679275.880 2
  19536271.845   -20949399.966 7
  19685086.759   -24675742.725 7 -18944869.270 2
 90 10 12 14 16 14.9970000  0  5 02 12 06 13 09
  22150713.728     7353239.886 6   5731462.236 1
  22367598.017    -9927138.372 6  -6564400.626 1
  20256301.376    -6052921.891 7   1698296.625 2
  19536257.259   -20949500.018 7
  19681424.032   -24694980.679 7 -18959859.901 2
 90 10 12 14 16 29.9970000  0  5 02 12 06 13 09
  22155556.579     7378703.702 6   5751304.077 1
  22357593.634    -9979727.196 6  -6605378.943 1
  20260971.665    -6028376.315 7   1717423.003 2
  19536260.493   -20949479.935 7
  19677791.962   -24714074.495 7 -18974738.219 2
 90 10 12 14 16 44.9970000  0  5 02 12 06 13 09
  22160412.946     7404210.827 6   5771179.667 1
  22347591.931   -10032275.982 6  -6646326.081 1
  20265669.110    -6003700.849 7   1736650.597 2
  19536284.040   -20949345.372 7
  19674185.860   -24733029.750 7 -18989508.564 2
 90 10 12 14 16 59.9970000  0  5 02 12 06 13 09
  22165272.571     7429765.578 6   5791092.375 1
  22337600.735   -10084779.938 6  -6687238.275 1
  20270389.329    -5978891.128 7   1755982.808 2
  19536334.579   -20949092.310 7
  19670604.368   -24751841.695 7 -19004167.243 2
 90 10 12 14 17 14.9970000  0  5 02 12 06 13 09
  22170149.978     7455368.354 6   5811042.484 1
  22327617.899   -10137238.489 6  -6728115.093 1
  20275136.524    -5953947.118 7   1775419.657 2
  19536405.110   -20948720.742 7
  19667052.524   -24770509.895 7 -19018713.912 2
 90 10 12 14 17 29.9970000  0  5 02 12 06 13 09
  22175027.571     7481016.039 6   5831027.617 1
  22317642.626   -10189654.509 6  -6768958.768 1
  20279908.470    -5928872.137 7   1794958.557 2
  19536494.634   -20948233.996 7        -0.40211
  19663526.813   -24789037.510 7 -19033151.031 2
 90 10 12 14 17 44.9970000  0  5 02 12 06 13 09
  22179918.774     7506714.677 6   5851052.444 1
  22307676.931   -10242021.437 6  -6809764.183 1
  20284704.368    -5903660.149 7   1814604.222 2
  19536612.032   -20947626.235 7       473.154 1
  19660028.610   -24807417.795 7 -19047473.352 2
 90 10 12 14 17 59.9970000  0  5 02 12 06 13 09
  22184816.454     7532459.756 6   5871113.466 1
  22297721.649   -10294343.212 6  -6850534.423 1
  20289526.751    -5878315.676 7   1834353.122 2
  19536748.165   -20946902.063 7      1037.421 1
  19656559.313   -24825655.069 7 -19061684.231 1
 90 10 12 14 18 14.9970000  0  5 02 12 06 13 09
  22189727.462     7558249.025 6   5891208.895 1
  22287772.853   -10346622.100 6  -6891271.238 1
  20294375.048    -5852841.187 7   1854203.332 2
  19536908.728   -20946063.814 7      1690.580 1
  19653115.696   -24843751.467 7 -19075785.340 1
 90 10 12 14 18 29.9970000  0  5 02 12 06 13 09
  22194639.993     7584084.765 6   5911340.549 1
  22277833.282   -10398855.518 6  -6931972.629 1
  20299248.806    -5827234.633 7   1874156.452 2
  19537090.228   -20945109.642 7      2434.068 1
  19649698.610   -24861704.671 7 -19089774.864 1
 90 10 12 14 18 44.9970000  0  5 02 12 06 13 09
  22199567.243     7609964.241 6   5931506.304 1
  22267900.048   -10451045.827 6  -6972640.434 1
  20304147.306    -5801498.942 7   1894210.193 2
  19537293.509   -20944042.587 7      3265.522 1
  19646308.907   -24879517.021 7 -19103654.639 1
 90 10 12 14 18 59.9970000  0  5 02 12 06 13 09
  22204497.157     7635887.859 6
  22257977.353   -10503192.223 6  -7013274.004 1
  20309068.634    -5775633.696 7
  19537517.243   -20942862.470 7      4185.069 1
  19642947.470   -24897187.728 7 -19117424.037 1
 90 10 12 14 19 14.9970000  0  5 02 12 06 13 09
  22209439.564     7661853.882 6
  22248064.712   -10555296.105 6  -7053874.462 1
  20314014.829    -5749640.897 7
  19537764.306   -20941571.098 7      5191.313 1
  19639610.415   -24914718.437 7 -19131084.350 1
 90 10 12 14 19 29.9970000  0  5 02 12 06 13 09
  22214390.853     7687864.954 6   5992207.895 1
  22238156.431   -10607354.746 6  -7094439.657 1
  20318985.931    -5723518.217 7   1954974.248 2
  19538030.876   -20940166.451 7      6285.822 1
  19636301.157   -24932106.532 7 -19144633.531 2
 90 10 12 14 19 44.9970000  0  5 02 12 06 13 09
  22219345.306     7713920.928 6   6012511.161 1
  22228260.149   -10659367.715 6  -7134969.259 1
  20323981.360    -5697265.767 7   1975430.663 2
  19538320.735   -20938648.558 7      7468.574 1
  19633019.149   -24949351.717 7 -19158071.359 1
 90 10 12 14 19 59.9970000  0  5 02 12 06 13 09
  22224316.564     7740022.745 6   6032850.158 1
  22218369.892   -10711333.857 6  -7175462.389 1
  20329002.306    -5670882.740 7   1995988.820 2
  19538631.634   -20937016.833 7      8740.026 1
  19629766.063   -24966452.895 7 -19171396.967 1
 90 10 12 14 20 14.9970000  0  5 02 12 06 13 09
  22229293.493     7766173.035 6   6053226.908 1
  22208493.962   -10763250.318 6  -7215916.788 1
  20334047.814    -5644366.841 7   2016650.514 2
  19538963.884   -20935269.019 7     10101.933 1
  19626540.189   -24983407.379 7 -19184608.276 1
 90 10 12 14 20 29.9970000  0  5 02 12 06 13 09
  22234277.587     7792370.250 6   6073640.231 1
  22198622.813   -10815118.321 6  -7256333.437 1
  20339119.048    -5617719.856 7   2037414.357 2
  19539318.587   -20933407.110 7     11552.744 1
  19623341.298   -25000216.459 7 -19197706.281 1
 90 10 12 14 20 44.9970000  0  5 02 12 06 13 09
  22239267.079     7818613.949 6   6094089.789 1
  22188762.024   -10866937.904 6  -7296712.351 1
  20344214.032    -5590942.162 7   2058280.045 2
  19539694.040   -20931431.688 7     13092.007 1
  19620170.329   -25016880.335 7 -19210691.142 2
 90 10 12 14 20 59.9970000  0  5 02 12 06 13 09
  22244276.946     7844905.531 6   6114576.645 1
  22178907.704   -10918707.316 6  -7337052.174 1
  20349335.868    -5564032.498 7   2079248.570 2
  19540091.485   -20929341.314 7     14720.845 1
  19617027.134   -25033397.190 7 -19223561.443 1
 90 10 12 14 21 14.9970000  0  5 02 12 06 13 09
  22249288.243     7871252.668 6   6135106.797 1
  22169069.251   -10970418.578 6  -7377346.683 1
  20354482.470    -5536983.505 7   2100325.665 2
  19540512.939   -20927128.700 7     16444.933 1
  19613912.915   -25049759.471 7 -19236311.294 1
 90 10 12 14 21 29.9970000  0  5 02 12 06 13 09
  22254312.157     7897647.629 6   6155674.202 1
  22159237.220   -11022078.930 6  -7417601.526 1
  20359654.946    -5509802.834 7   2121505.363 2
  19540955.517   -20924801.595 7     18258.239 1
  19610827.704   -25065974.332 7 -19248946.267 1
 90 10 12 14 21 44.9970000  0  5 02 12 06 13 09
  22259342.360     7924086.688 6   6176275.976 1
  22149416.501   -11073691.677 6  -7457819.274 1
  20364851.353    -5482494.318 7   2142784.680 2
  19541419.853   -20922364.133 7     20157.533 1
  19607769.376   -25082045.214 7 -19261469.053 1
 90 10 12 14 21 59.9970000  0  5 02 12 06 13 09
  22264382.610     7950575.083 6   6196916.178 1
  22139604.384   -11125251.645 6  -7497995.891 1
  20370073.446    -5455053.270 7   2164167.272 2
  19541906.071   -20919811.637 7     22146.467 1
  19604739.868   -25097967.171 7 -19273875.790 1
 90 10 12 14 22 14.9970000  0  5 02 12 06 13 09
  22269432.860     7977108.547 6   6217591.517 1
  22129803.040   -11176762.648 6  -7538134.352 1
  20375318.853    -5427484.070 7   2185649.717 2
  19542412.564   -20917148.221 7     24221.833 1
  19601737.009   -25113744.120 7 -19286169.536 2
 90 10 12 14 22 29.9970000  0  5 02 12 06 13 09
  22274491.056     8003691.354 6   6238305.294 1
  22120013.478   -11228220.032 6  -7578231.033 1
  20380591.454    -5399782.569 7   2207235.250 2
  19542940.618   -20914370.095 7     26386.573 1
  19598763.353   -25129371.648 7 -19298346.851 1
 90 10 12 14 22 44.9970000  0  5 02 12 06 13 09
  22279556.782     8030323.066 6   6259057.177 1
  22110230.079   -11279623.870 6  -7618285.997 1
  20385887.665    -5371949.306 7   2228923.457 2
  19543491.798   -20911478.027 7     28640.114 1
  19595818.759   -25144849.672 7 -19310407.669 1
 90 10 12 14 22 59.9970000  0  5 02 12 06 13 09
  22284635.040     8057004.097 6   6279847.501 1
  22100458.259   -11330973.353 6  -7658298.597 1
  20391208.181    -5343983.955 7   2250714.596 2
  19544062.563   -20908471.629 7     30982.731 1
  19592902.837   -25160177.713 7 -19322351.618 1
 90 10 12 14 23 14.9970000  0  5 02 12 06 13 09
  22289721.095     8083730.302 6   6300673.020 1
  22090696.532   -11382272.278 6  -7698271.800 1
  20396553.954    -5315890.936 7   2272605.206 2
  19544656.048   -20905355.341 7     33410.985 1
  19590012.962   -25175359.807 7 -19334181.840 1
 90 10 12 14 23 29.9970000  0  5 02 12 06 13 09
  22294818.954     8110503.690 6   6321535.298 1
  22080943.087   -11433518.320 6  -7738203.800 1
  20401923.939    -5287668.423 7   2294596.721 2
  19545270.657   -20902127.444 7     35926.199 1
  19587152.282   -25190393.704 7 -19345896.585 1
 90 10 12 14 23 44.9970000  0  5 02 12 06 13 09
  22299917.595     8137319.004 6   6342430.253 1
  22071201.329   -11484716.396 6  -7778098.426 1
  20407318.782    -5259321.794 7   2316684.954 2
  19545905.353   -20898793.706 7     38523.891 1
  19584317.681   -25205284.588 7 -19357499.887 2
 90 10 12 14 23 59.9970000  0  5 02 12 06 13 09
  22305031.509     8164183.959 6   6363363.887 1
  22061470.056   -11535858.432 6  -7817949.383 1
  20412738.798    -5230843.535 7   2338875.754 2
  19546560.415   -20895346.467 7     41210.026 1
  19581513.423   -25220024.335 7 -19368985.421 1
 90 10 12 14 24 14.9970000  0  5 02 12 06 13 09
  22310153.931     8191096.180 6   6384334.329 1
  22051748.946   -11586946.373 6  -7857758.188 1
  20418181.774    -5202236.115 7   2361167.203 2
  19547238.024   -20891787.860 7     43982.939 1
  19578736.532   -25234615.079 7 -19380354.852 1
 90 10 12 14 24 29.9970000  0  5 02 12 06 13 09
  22315281.462     8218058.397 6   6405343.758 1
  22042037.571   -11637977.364 6  -7897522.617 1
  20423651.673    -5173497.132 7   2383561.166 2
  19547937.017   -20888116.005 7     46844.097 1
  19575989.478   -25249054.086 7 -19391606.050 1
 90 10 12 14 24 44.9970000  0  5 02 12 06 13 09
  22320421.493     8245064.606 6   6426387.464 1
  22032336.056   -11688957.187 6  -7937247.171 1
  20429144.587    -5144632.779 7   2406052.818 2
  19548656.438   -20884337.337 7     49788.491 1
  19573270.142   -25263347.241 7 -19402743.593 1
 90 10 12 14 24 59.9970000  0  5 02 12 06 13 09
  22325570.595     8272114.583 6   6447465.267 1
  22022645.251   -11739885.668 6  -7976931.719 1
  20434662.485    -5115643.465 7   2428641.844 2
  19549396.446   -20880452.223 7     52815.824 1
  19570576.399   -25277494.568 7 -19413767.505 1
 90 10 12 14 25 14.9970000  0  5 02 12 06 13 09
  22330727.915     8299209.729 6   6468578.268 1
  22012965.337   -11790760.955 6  -8016574.826 1
  20440202.079    -5086527.791 7   2451329.327 2
  19550155.368   -20876459.050 7     55927.364 1
  19567913.688   -25291494.272 7 -19424676.388 1
 90 10 12 14 25 29.9970000  0  5 02 12 06 13 09
  22335884.923     8326357.198 6   6489732.045 1
  22003294.524   -11841575.548 6  -8056170.624 1
  20445767.001    -5057278.853 7   2474120.659 2
  19550936.306   -20872351.084 7     59128.351 1
  19565279.946   -25305339.011 7 -19435464.518 1
 90 10 12 14 25 44.9970000  0  5 02 12 06 13 09
  22341067.181     8353550.873 6   6510921.819 1
  21993634.423   -11892335.112 6  -8095723.554 1
  20451357.720    -5027902.941 7   2497010.926 2
  19551740.798   -20868134.801 7     62413.737 1
  19562672.024   -25319034.860 7 -19446136.629 1
 90 10 12 14 25 59.9970000  0  5 02 12 06 13 09
  22346248.384     8380787.602 6   6532145.120 1
  21983985.634   -11943042.660 6  -8135235.946 1
  20456971.681    -4998403.621 7   2519997.359 2
  19552561.665   -20863813.710 7     65780.795 1
  19560095.735   -25332584.761 7 -19456695.017 1
 90 10 12 14 26 14.9970000  0  5 02 12 06 13 09
  22351441.618     8408071.882 6   6553405.500 1
  21974345.962   -11993693.115 6  -8174703.857 1
  20462607.509    -4968776.267 7   2543083.558 2
  19553405.524   -20859383.294 7     69233.048 1
  19557544.032   -25345983.946 7 -19467135.963 1
 90 10 12 14 26 29.9970000  0  5 02 12 06 13 09
  22356641.329     8435401.053 6   6574700.848 1
  21964718.946   -12044288.955 6  -8214129.201 1
  20468271.048    -4939023.871 7   2566267.189 2
  19554268.274   -20854846.554 7     72768.140 1
  19555022.267   -25359235.101 7 -19477461.559 1
 90 10 12 14 26 44.9970000  0  5 02 12 06 13 09
  22361852.063     8462776.292 6   6596032.102 1
  21955101.306   -12094828.689 6  -8253510.830 1
  20473955.079    -4909145.592 7   2589548.905 2
  19555151.142   -20850202.826 7     76386.605 1
  19552529.735   -25372336.753 7 -19487670.662 1
 90 10 12 14 26 59.9970000  0  5 02 12 06 13 09
  22367071.165     8490201.041 6   6617401.938 1
  21945495.696   -12145308.499 6  -8292845.773 1
  20479665.517    -4879137.998 7   2612931.391 2
  19556056.798   -20845448.767 7     80091.041 1
  19550065.399   -25385285.261 7 -19497760.431 1
 90 10 12 14 27 14.9970000  0  5 02 12 06 13 09
  22372300.282     8517672.816 6   6638808.413 1
  21935899.845   -12195730.284 6  -8332135.493 1
  20485401.688    -4849003.620 7   2636412.667 2
  19556982.407   -20840587.149 7     83879.286 1
  19547630.306   -25398082.814 7 -19507732.571 1
 90 10 12 14 27 29.9970000  0  5 02 12 06 13 09
  22377537.540     8545192.685 6   6660252.351 1
  21926315.860   -12246092.877 6  -8371379.087 1
  20491160.181    -4818741.809 7   2659993.250 2
  19557926.774   -20835617.246 7     87751.914 2
  19545224.267   -25410728.197 7 -19517586.137 1
 90 10 12 14 27 44.9970000  0  5 02 12 06 13 09
  22382782.024     8572757.311 6   6681731.173 1
  21916743.212   -12296399.289 6  -8410578.911 1
  20496942.438    -4788355.981 7   2683670.468 2
  19558893.462   -20830542.430 7     91706.294 2
  19542845.220   -25423224.750 7 -19527323.730 1
 90 10 12 14 27 59.9970000  0  5 02 12 06 13 09
  22388036.579     8600368.024 6   6703245.900 1
  21907182.087   -12346647.965 6  -8449733.744 1
  20502747.274    -4757845.112 7   2707445.121 2
  19559879.462   -20825361.636 7     95743.250 1
  19540496.868   -25435570.986 7 -19536944.196 1
 90 10 12 14 28 14.9970000  0  5 02 12 06 13 09
  22393302.228     8628022.715 6   6724794.907 1
  21897633.415   -12396840.659 6  -8488844.950 1
  20508576.899    -4727211.543 7   2731315.383 2
  19560884.087   -20820077.424 7     99860.790 1
  19538174.962   -25447768.749 7 -19546448.966 1
 90 10 12 14 28 29.9970000  0  5 02 12 06 13 09
  22398574.517     8655723.387 6   6746379.727 1
  21888089.884   -12446974.883 6  -8527910.596 1
  20514429.751    -4696453.387 7   2755282.719 2
  19561910.368   -20814688.025 7    104060.296 1
  19535882.306   -25459815.815 7 -19555836.302 1
 90 10 12 14 28 44.9970000  0  5 02 12 06 13 09
  22403851.899     8683471.664 6   6768001.654 1
  21878562.868   -12497048.463 6  -8566928.985 1
  20520306.782    -4665568.988 7   2779348.429 2
  19562955.142   -20809191.873 7    108342.986 1
  19533619.040   -25471710.312 7 -19565104.763 1
 90 10 12 14 28 59.9970000  0  5 02 12 06 13 09
  22409141.610     8711266.057 6   6789659.510 1
  21869044.478   -12547062.686 6  -8605901.126 1
  20526207.642    -4634560.342 7   2803510.956 2
  19564021.634   -20803590.986 7    112707.287 1
  19531383.431   -25483453.850 7 -19574255.589 1
 90 10 12 14 29 14.9970000  0  5 02 12 06 13 09
  22414438.024     8739109.434 6   6811355.544 1
  21859539.915   -12597014.370 6  -8644824.535 1
  20532132.923    -4603424.585 7   2827772.527 2
  19565108.212   -20797882.644 7    117155.317 1
  19529179.095   -25495042.910 7 -19583286.049 1
 90 10 12 14 29 29.9970000  0  5 02 12 06 13 09
  22419743.314     8766997.095 6   6833086.092 1
  21850044.079   -12646907.942 6  -8683702.663 1
  20538081.493    -4572166.843 7   2852129.151 2
  19566214.728   -20792072.250 7    121682.876 2
  19527002.915   -25506482.574 7 -19592200.090 1
 90 10 12 14 29 44.9970000  0  5 02 12 06 13 09
  22425061.259     8794930.548 6   6854852.308 1
  21840561.837   -12696741.483 6  -8722534.015 1
  20544053.173    -4540785.695 7   2876581.933 2
  19567339.962   -20786157.945 7    126291.399 2
  19524854.712   -25517770.878 7 -19600996.193 1
 90 10 12 14 29 59.9970000  0  5 02 12 06 13 09
  22430387.415     8822914.004 6   6876657.487 1
  21831090.704   -12746510.429 6  -8761315.030 1
  20550048.142    -4509277.094 7   2901134.028 2
  19568485.790   -20780136.007 7    130983.792 2
  19522736.087   -25528903.587 7 -19609671.049 1
 90 10 12 14 30 14.9970000  0  5 02 12 06 13 09
  22435719.899     8850939.963 5   6898495.778 1
  21821630.251   -12796221.896 6  -8800051.256 1
  20556067.189    -4477648.801 7   2925779.394 2
  19569649.649   -20774014.098 7    135754.086 2
  19520645.970   -25539887.839 7 -19618230.231 1
 90 10 12 14 30 29.9970000  0  5 02 12 06 13 09
  22441058.478     8879015.264 5   6920372.524 1
  21812183.993   -12845868.765 6  -8838737.149 1
  20562110.767    -4445894.142 7   2950523.229 2
  19570835.524   -20767785.699 7    140607.357 1
  19518585.493   -25550716.787 7 -19626668.391 1
 90 10 12 14 30 44.9970000  0  5 02 12 06 13 09
  22446413.017     8907138.738 5   6942286.801 1
  21802745.938   -12895451.809 6  -8877373.307 1
  20568175.735    -4414014.532 7   2975364.428 2
  19572040.298   -20761452.119 7    145542.588 1
  19516553.938   -25561391.382 7 -19634986.277 1
 90 10 12 14 30 59.9970000  0  5 02 12 06 13 09
  22451771.540     8935311.173 5   6964239.222 1
  21793326.493   -12944969.892 6  -8915958.839 1
  20574267.704    -4382009.292 7   3000303.517 2
  19573266.212   -20755013.116 7    150559.971 2
  19514551.970   -25571910.648 7 -19643183.128 1
 90 10 12 14 31 14.9970000  0  5 02 12 06 13 09
  22457149.017     8963530.479 5   6986228.182 1
  21783916.243   -12994424.718 6  -8954495.088 1
  20580381.899    -4349880.779 7   3025338.660 2
  19574510.767   -20748470.939 7    155657.744 1
  19512579.181   -25582276.513 7 -19651260.443 1
 90 10 12 14 31 29.9970000  0  5 02 12 06 13 09
  22462523.337     8991797.555 5   7008254.369 1
  21774515.962   -13043815.214 6  -8992981.206 1
  20586520.017    -4317628.327 7   3050470.388 2
  19575775.032   -20741824.975 7    160836.386 2
  19510636.493   -25592488.000 7 -19659217.467 1
 90 10 12 14 31 44.9970000  0  5 02 12 06 13 09
  22467912.509     9020108.708 5   7030314.884 1
  21765129.126   -13093144.561 6  -9031419.673 1
  20592678.782    -4285255.751 7   3075695.717 2
  19577059.079   -20735078.925 7    166093.024 1
  19508721.821   -25602548.702 7 -19667056.995 1
 90 10 12 14 31 59.9970000  0  5 02 12 06 13 09
  22473311.032     9048470.634 5   7052414.954 1
  21755753.220   -13142405.730 6  -9069805.023 1
  20598863.196    -4252756.589 7   3101019.684 2
  19578363.556   -20728226.458 7    171432.580 1
  19506836.985   -25612451.675 7 -19674773.615 1
 90 10 12 14 32 14.9970000  0  5 02 12 06 13 09
  22478714.345     9076878.970 5   7074551.220 1
  21746391.610   -13191602.647 6  -9108140.302 1
  20605072.860    -4220135.460 7   3126438.689 2
  19579687.329   -20721272.378 7    176851.314 1
  19504981.884   -25622200.912 7 -19682370.445 1
 90 10 12 14 32 29.9970000  0  5 02 12 06 13 09
  22484126.243     9105336.706 5   7096725.959 1
  21737043.899   -13240732.060 6  -9146422.976 1
  20611303.868    -4187389.488 7   3151954.978 2
  19581030.603   -20714213.928 7    182351.378 1
  19503156.376   -25631793.662 7 -19689845.334 1
 90 10 12 14 32 44.9970000  0  5 02 12 06 13 09
  22489550.415     9133838.964 5   7118935.394 1
  21727706.001   -13289798.388 6  -9184656.498 1
  20617557.524    -4154523.948 7   3177564.433 2
  19582392.603   -20707056.223 7    187928.781 1
  19501359.610   -25641234.442 7 -19697201.808 1
 90 10 12 14 32 59.9970000  0  5 02 12 06 13 09
  22494982.298     9162380.917 5   7141175.763 1
  21718380.517   -13338806.204 6  -9222844.426 1
  20623832.696    -4121543.691 7   3203263.275 2
  19583771.743   -20699804.483 7    193579.459 1
  19499591.860   -25650527.997 7 -19704443.554 1
 90 10 12 14 33 14.9970000  0  5 02 12 06 13 09
  22500425.532     9190972.787 5   7163455.012 1
  21709067.923   -13387744.937 6  -9260978.520 1
  20630132.220    -4088438.856 7   3229059.193 2
  19585171.228   -20692448.560 7    199311.318 1
  19497852.798   -25659663.829 7 -19711562.408 1
 90 10 12 14 33 29.9970000  0  5 02 12 06 13 09
  22505877.876     9219610.277 5   7185769.835 1
  21699770.267   -13436618.708 6  -9299062.002 1
  20636455.946    -4055214.045 7   3254948.600 2
  19586590.743   -20684993.165 7    205120.690 2
  19496143.595   -25668646.327 7 -19718561.779 1
 90 10 12 14 33 44.9970000  0  5 02 12 06 13 09
  22511336.181     9248294.511 5   7208121.075 1
  21690480.946   -13485425.902 6  -9337093.595 1
  20642800.946    -4021868.235 7   3280932.284 2
  19588028.485   -20677437.391 7    211008.279 2
  19494464.368   -25677474.257 7 -19725440.707 1
 90 10 12 14 33 59.9970000  0  5 02 12 06 13 09
  22516803.728     9277028.448 5   7230511.021 1
  21681205.298   -13534163.128 6  -9375070.675 1
  20649170.118    -3988398.565 7   3307012.488 2
  19589485.915   -20669778.606 7    216976.135 1
  19492813.556   -25686144.110 7 -19732196.459 1
 90 10 12 14 34 14.9970000  0  5 02 12 06 13 09
  22522278.228     9305807.080 5   7252935.813 1
  21671944.149   -13582835.009 6  -9412996.835 1
  20655560.634    -3954810.455 7   3333184.985 2
  19590961.454   -20662022.042 7    223020.183 2
  19491193.673   -25694661.066 7 -19738833.066 1
 90 10 12 14 34 29.9970000  0  5 02 12 06 13 09
  22527764.743     9334632.749 5   7275397.266 1
  21662695.040   -13631439.035 6  -9450870.122 1
  20661976.454    -3921101.650 7   3359451.532 2
  19592456.446   -20654165.588 7    229142.068 2
  19489602.024   -25703022.773 7 -19745348.701 1
 90 10 12 14 34 44.9970000  0  5 02 12 06 13 09
  22533258.649     9363506.084 5   7297895.854 1
  21653460.454   -13679974.056 6  -9488689.632 1
  20668414.806    -3887271.733 7   3385812.448 2
  19593971.274   -20646208.758 7    235342.168 2
  19488040.298   -25711228.129 7 -19751742.501 1
 90 10 12 14 34 59.9970000  0  5 02 12 06 13 09
  22538762.423     9392426.841 5   7320431.372 1
  21644236.142   -13728440.119 6  -9526455.419 1
  20674873.837    -3853321.347 7   3412267.234 2
  19595504.876   -20638152.330 7    241619.873 2
  19486509.126   -25719277.480 7 -19758014.738 1
 90 10 12 14 35 14.9970000  0  5 02 12 06 13 09
  22544275.392     9421395.884 5   7343004.532 1
  21635028.985   -13776835.773 6  -9564166.333 1
  20681357.821    -3819249.653 7   3438816.551 2
  19597055.274   -20629995.510 7    247975.809 2
  19485007.345   -25727169.762 7 -19764164.590 1
 90 10 12 14 35 29.9970000  0  5 02 12 06 13 09
  22549794.493     9450410.697 5   7365613.353 1
  21625830.001   -13825163.074 6  -9601823.981 1
  20687864.962    -3785059.399 7   3465458.251 2
  19598627.228   -20621741.214 7    254407.697 2
  19483534.595   -25734907.059 7 -19770193.671 1
 90 10 12 14 35 44.9970000  0  5 02 12 06 13 09
  22555326.884     9479467.586 5   7388254.962 1
  21616645.720   -13873425.407 6  -9639431.013 1
  20694392.837    -3750754.419 7   3492189.346 2
  19600215.829   -20613393.276 7    260912.557 2
  19482091.298   -25742493.029 7 -19776104.837 1
 90 10 12 14 35 59.9970000  0  5 02 12 06 13 09
  22560861.493     9508575.401 5   7410936.244 1
  21607476.509   -13921613.701 6  -9676980.347 1
  20700943.267    -3716326.192 7   3519016.467 2
  19601823.384   -20604942.965 7    267497.185 2
  19480679.274   -25749918.807 7 -19781891.178 1
 90 10 12 14 36 14.9970000  0  5 02 12 06 13 09
  22566410.728     9537729.632 5   7433653.722 1
  21598318.056   -13969731.739 6  -9714474.935 1
  20707517.517    -3681779.257 7   3545936.094 2
  19603451.071   -20596395.129 7    274157.806 2
  19479295.274   -25757188.546 7 -19787555.928 1
 90 10 12 14 36 29.9970000  0  5 02 12 06 13 09
  22571972.220     9566933.059 5   7456409.509 1
  21589177.118   -14017776.642 6  -9751912.540 1
  20714115.868    -3647111.144 7   3572950.144 2
  19605096.243   -20587747.305 7    280896.341 1
  19477941.048   -25764299.660 7 -19793097.071 1
 90 10 12 14 36 44.9970000  0  5 02 12 06 13 09
  22577539.603     9596181.189 5   7479200.127 1
  21580048.603   -14065752.802 6  -9789296.568 1
  20720734.165    -3612326.877 7   3600054.703 2
  19606760.134   -20579004.481 7    287708.906 1
  19476617.642   -25771256.544 7 -19798518.041 1
 90 10 12 14 36 59.9970000  0  5 02 12 06 13 09
  22583116.329     9625479.579 6   7502029.915 1
  21570931.774   -14113654.053 6  -9826622.231 1
  20727377.290    -3577420.906 7   3627254.101 2
  19608442.314   -20570161.141 7    294599.792 1
  19475324.056   -25778053.505 7 -19803814.399 1
 90 10 12 14 37 14.9970000  0  5 02 12 06 13 09
  22588699.204     9654827.765 6   7524898.513 1
  21561832.087   -14161480.671 6  -9863889.739 1
  20734042.814    -3542394.071 7   3654547.690 2
  19610143.821   -20561218.324 7    301568.202 2
  19474061.485   -25784690.754 7 -19808986.304 1
 90 10 12 14 37 29.9970000  0  5 02 12 06 13 09
  22594290.970     9684226.776 5   7547806.716 1
  21552743.454   -14209231.088 6  -9901097.865 1
  20740730.634    -3507245.386 7   3681936.221 2
  19611865.446   -20552174.911 7    308614.986 1
  19472829.946   -25791167.129 7 -19814032.851 1
 90 10 12 14 37 44.9970000  0  5 02 12 06 13 09
  22599893.868     9713669.185 5   7570748.727 1
  21543671.720   -14256912.531 6  -9938252.248 1
  20747441.399    -3471982.640 7   3709413.625 2
  19613604.337   -20543038.458 7    315734.267 2
  19471625.923   -25797490.006 7 -19818959.794 1
 90 10 12 14 37 59.9970000  0  5 02 12 06 13 09
  22605511.259     9743156.863 6   7593726.021 1
  21534612.126   -14304522.620 6  -9975351.036 1
  20754174.142    -3436604.130 7   3736981.237 2
  19615359.720   -20533807.714 7    322927.032 1
  19470452.907   -25803657.402 7 -19823765.574 1
 90 10 12 14 38 14.9970000  0  5 02 12 06 13 09
  22611123.712     9772690.805 5   7616739.360 1
  21525565.126   -14352060.240 6 -10012393.350 1
  20760929.501    -3401109.209 7   3764639.552 2
  19617134.712   -20524482.001 7    330193.793 2
  19469307.938   -25809668.044 7 -19828449.209 1
 90 10 12 14 38 29.9970000  0  5 02 12 06 13 09
  22616750.063     9802269.664 5   7639787.703 1
  21516532.493   -14399526.330 6 -10049379.922 1
  20767705.970    -3365499.333 7   3792387.443 2
  19618926.837   -20515062.976 7    337533.272 2
  19468195.048   -25815523.356 7 -19833011.816 1
 90 10 12 14 38 44.9970000  0  5 02 12 06 13 09
  22622389.251     9831895.163 5   7662872.380 1
  21507514.501   -14446918.766 6 -10086309.108 1
  20774502.298    -3329773.083 7   3820226.010 2
  19620738.267   -20505549.182 7    344946.591 1
  19467109.915   -25821221.655 7 -19837452.075 1
 90 10 12 14 38 59.9970000  0  5 02 12 06 13 09
  22628038.524     9861565.027 5   7685991.623 1
  21498509.743   -14494239.301 6 -10123182.269 1
  20781323.634    -3293932.830 7   3848153.414 2
  19622565.798   -20495942.938 7    352431.956 2
  19466056.048   -25826764.613 7 -19841771.284 1
 90 10 12 14 39 14.9970000  0  5 02 12 06 13 09
  22633693.376     9891283.860 5   7709149.037 1
  21489519.103   -14541483.075 6 -10159995.613 1
  20788166.032    -3257974.451 6   3876172.866 2
  19624413.110   -20486240.036 7    359992.633 2
  19465031.673   -25832148.008 7 -19845966.158 1
 90 10 12 14 39 29.9970000  0  5 02 12 06 13 09
  22639360.032     9921046.218 5   7732340.357 1
  21480543.384   -14588655.075 6 -10196753.031 1
  20795030.071    -3221903.483 6   3904280.051 2
  19626275.360   -20476446.068 7    367624.270 2
  19464036.915   -25837377.049 7 -19850040.760 1
 90 10 12 14 39 44.9970000  0  5 02 12 06 13 09
  22645026.142     9950857.661 5   7755569.933 1
  21471581.634   -14635749.294 6 -10233449.840 1
  20801917.110    -3185714.486 7   3932479.200 2
  19628157.649   -20466555.595 7    375331.110 2
  19463071.595   -25842445.604 7 -19853990.305 1
 90 10 12 14 39 59.9970000  0  5 02 12 06 13 09
  22650708.415     9980715.199 5   7778835.430 1
  21462634.040   -14682768.292 6 -10270088.029 1
  20808824.454    -3149410.608 6   3960767.870 2
  19630057.790   -20456571.944 7    383110.552 2
  19462137.470   -25847356.796 7 -19857817.230 2
 90 10 12 14 40 14.9970000  0  5 02 12 06 13 09
  22656399.134    10010624.026 5   7802140.872 1
  21453701.548   -14729706.769 6 -10306663.480 1
  20815756.712    -3112987.084 6   3989149.774 2
  19631976.376   -20446490.225 7    390966.405 2
  19461234.087   -25852105.545 7 -19861517.572 1
 90 10 12 14 40 29.9970000  0  5 02 12 06 13 09
  22662101.407    10040578.784 5   7825482.107 1
  21444784.587   -14776569.589 6 -10343179.978 1
  20822708.532    -3076449.432 6   4017620.607 2
  19633911.962   -20436316.334 7    398894.087 2
  19460359.712   -25856696.859 7 -19865095.244 1
 90 10 12 14 40 44.9970000  0  5 02 12 06 13 09
  22667814.798    10070580.477 5   7848859.918 1
  21435881.368   -14823355.397 6 -10379636.465 1
  20829686.032    -3039796.907 6   4046180.949 2
  19635867.196   -20426049.506 7    406894.178 2
  19459515.431   -25861129.611 7 -19868549.359 1
 90 10 12 14 40 59.9970000  0  5 02 12 06 13 09
  22673529.009    10100628.077 5   7872273.492 1
  21426991.767   -14870064.863 6 -10416033.467 1
  20836679.376    -3003030.735 6   4074829.845 2
  19637837.681   -20415690.964 7    414965.742 2
  19458702.243   -25865404.915 7 -19871880.782 1
 90 10 12 14 41 14.9970000  0  5 02 12 06 13 09
  22679258.118    10130721.633 5   7895722.894 1
  21418116.892   -14916697.634 6 -10452370.710 1
  20843700.165    -2966151.298 6   4103567.004 2
  19639826.314   -20405240.616 7    423108.847 1
  19457918.774   -25869522.579 7 -19875089.375 1
 90 10 12 14 41 29.9970000  0  5 02 12 06 13 09
  22684992.790    10160865.462 5   7919211.444 1
  21409259.735   -14963248.724 6 -10488644.299 1
  20850737.376    -2929154.241 6   4132395.813 2
  19641832.946   -20394694.408 7    431326.641 2
  19457166.368   -25873477.893 7 -19878171.458 1
 90 10 12 14 41 44.9970000  0  5 02 12 06 13 09
  22690737.939    10191056.471 5   7942736.777 1
  21400417.024   -15009721.268 6 -10524856.691 1
  20857800.899    -2892043.407 6   4161313.279 2
  19643857.767   -20384056.258 7    439616.076 2
  19456443.579   -25877274.382 7 -19881129.785 1
 90 10 12 14 41 59.9970000  0  5 02 12 06 13 09
  22696493.165    10221288.107 5   7966293.799 1
  21391587.220   -15056121.386 6 -10561012.636 1
  20864881.892    -2854825.243 6   4190314.381 2
  19645898.814   -20373332.831 7    447971.967 2
  19455750.415   -25880918.471 7 -19883969.356 1
 90 10 12 14 42 14.9970000  0  5 02 12 06 13 09
  22702254.376    10251566.963 5   7989887.564 1
  21382772.657   -15102442.064 6 -10597106.686 1
  20871987.743    -2817493.369 6   4219404.091 2
  19647956.087   -20362517.818 7    456399.219 2
  19455088.642   -25884403.164 7 -19886684.724 1
 90 10 12 14 42 29.9970000  0  5 02 12 06 13 09
  22708023.485    10281896.416 5   8013520.765 1
  21373974.345   -15148679.212 6 -10633135.647 1
  20879112.899    -2780044.503 6   4248584.964 2
  19650032.040   -20351607.762 7    464900.526 1
  19454454.931   -25887724.783 7 -19889273.022 1
 90 10 12 14 42 44.9970000  0  5 02 12 06 13 09
  22713806.782    10312274.204 5   8037191.662 1
  21365192.095   -15194834.994 7 -10669101.198 1
  20886260.149    -2742481.296 6   4277854.933 2
  19652126.876   -20340605.338 7    473473.814 2
  19453853.665   -25890885.746 7 -19891736.130 1
 90 10 12 14 42 59.9970000  0  5 02 12 06 13 09
  22719595.767    10342699.860 5   8060899.834 1
  21356423.524   -15240909.530 7 -10705003.447 1
  20893430.681    -2704804.558 6   4307213.361 2
  19654238.470   -20329511.405 7    482118.405 2
  19453283.235   -25893886.554 7 -19894074.442 1
 90 10 12 14 43 14.9970000  0  5 02 12 06 13 09
  22725396.064    10373173.717 5   8084645.558 1
  21347673.915   -15286902.009 7 -10740841.761 1
  20900620.610    -2667014.115 6   4336660.392 2
  19656366.673   -20318325.645 7    490834.547 2
  19452742.040   -25896726.612 7 -19896287.497 1
 90 10 12 14 43 29.9970000  0  5 02 12 06 13 09
  22731204.509    10403695.418 5   8108428.566 1
  21338935.290   -15332812.496 7 -10776616.170 1
  20907836.165    -2629110.564 6   4366195.559 1
  19658512.821   -20307048.985 7    499621.522 2
  19452231.540   -25899406.021 7 -19898375.372 1
 90 10 12 14 43 44.9970000  0  5 02 12 06 13 09
  22737020.540    10434262.678 5   8132247.083 1
  21330213.181   -15378642.895 7 -10812328.183 1
  20915068.056    -2591096.502 6   4395816.840 2
  19660674.688   -20295683.886 7    508477.411 2
  19451752.017   -25901927.399 7 -19900340.103 1
 90 10 12 14 43 59.9970000  0  5 02 12 06 13 09
  22742846.157    10464876.254 5   8156101.665 1
  21321507.407   -15424391.971 7 -10847976.826 1
  20922324.540    -2552971.293 6   4425524.725 2
  19662854.306   -20284229.698 7    517402.718 2
  19451301.938   -25904289.626 7 -19902180.822 1
 90 10 12 14 44 14.9970000  0  5 02 12 06 13 09
  22748681.993    10495536.211 5   8179992.421 1
  21312815.095   -15470059.521 6 -10883561.946 1
  20929600.735    -2514735.333 6   4455318.909 2
  19665051.939   -20272686.930 7    526397.054 2
  19450884.493   -25906492.566 7 -19903897.421 1
 90 10 12 14 44 29.9970000  0  5 02 12 06 13 09
  22754523.728    10526242.255 5   8203919.062 1
  21304143.024   -15515645.191 7 -10919083.261 1
  20936897.438    -2476388.927 6   4485199.165 1
  19667264.110   -20261055.944 7    535460.125 1
  19450495.353   -25908536.536 7 -19905490.147 1
 90 10 12 14 44 44.9970000  0  5 02 12 06 13 09
  22760374.907    10556994.485 5   8227881.686 1
  21295482.485   -15561148.669 7 -10954540.531 1
  20944216.282    -2437932.397 6   4515165.225 2
  19669494.313   -20249337.243 7    544591.546 1
  19450136.735   -25910421.238 7 -19906958.768 1
 90 10 12 14 44 59.9970000  0  5 02 12 06 13 09
  22766238.751    10587792.970 5   8251880.378 1
  21286840.142   -15606569.596 7 -10989933.477 1
  20951554.532    -2399365.994 6   4545216.896 2
  19671740.884   -20237530.633 7    553791.466 2
  19449808.431   -25912146.815 7 -19908303.396 1
 90 10 12 14 45 14.9970000  0  5 02 12 06 13 09
  22772102.524    10618636.697 5   8275914.304 1
  21278212.673   -15651908.533 7 -11025262.537 1
  20958915.595    -2360690.812 6   4575353.337 2
  19674004.196   -20225637.180 7    563059.057 1
  19449509.501   -25913713.705 7 -19909524.373 1
 90 10 12 14 45 29.9970000  0  5 02 12 06 13 09
  22777983.446    10649527.188 5   8299984.711 1
  21269600.321   -15697163.644 7 -11060526.268 1
  20966294.056    -2321905.641 6   4605575.476 2
  19676283.313   -20213655.908 7    572395.082 2
  19449241.899   -25915120.823 7 -19910620.855 1
 90 10 12 14 45 44.9970000  0  5 02 12 06 13 09
  22783870.767    10680465.475 5   8324092.307 1
  21261006.681   -15742333.410 7 -11095723.502 1
  20973696.204    -2283009.624 6   4635883.996 2
  19678580.313   -20201585.927 7    581800.226 1
  19449005.470   -25916366.572 7 -19911591.591 1
 90 10 12 14 45 59.9970000  0  5 02 12 06 13 09
  22789768.524    10711447.740 5   8348234.176 1
  21252424.978   -15787421.163 7 -11130856.824 1
  20981120.228    -2244006.761 6   4666275.768 1
  19680894.509   -20189431.475 7    591271.200 2
  19448797.040   -25917454.823 7 -19912439.602 1
 90 10 12 14 46 14.9970000  0  5 02 12 06 13 09
  22795672.462    10742478.294 5   8372413.694 1
  21243862.345   -15832422.503 7 -11165922.818 1
  20988561.103    -2204893.168 6   4696753.827 2
  19683223.243   -20177188.749 7    600810.956 2
  19448621.860   -25918381.319 7 -19913161.575 1
 90 10 12 14 46 29.9970000  0  5 02 12 06 13 09
  22801590.314    10773553.072 5   8396627.617 1
  21235312.735   -15877340.960 7 -11200924.222 1
  20996024.353    -2165673.139 6   4727314.820 1
  19685570.087   -20164861.843 7    610416.303 2
  19448475.353   -25919150.127 7 -19913760.665 1
 90 10 12 14 46 44.9970000  0  5 02 12 06 13 09
  22807504.665    10804672.759 5   8420876.604 1
  21226781.868   -15922175.539 7 -11235860.266 1
  21003509.696    -2126346.342 6   4757959.012 2
  19687930.657   -20152450.251 7    620087.641 2
  19448358.493   -25919760.410 7 -19914236.235 1
 90 10 12 14 46 59.9970000  0  5 02 12 06 13 09
  22813439.368    10835840.198 5   8445162.773 1
  21218268.931   -15966922.837 7 -11270728.302 2
  21011011.978    -2086909.841 6   4788688.689 2
  19690309.493   -20139951.208 7    629827.128 2
  19448274.126   -25920208.830 7 -19914585.678 1
 90 10 12 14 47 14.9970000  0  5 02 12 06 13 09
  22819379.118    10867059.164 5   8469489.087 1
  21209769.610   -16011578.994 7 -11305525.320 2
  21018538.845    -2047360.472 6   4819506.316 1
  19692706.165   -20127361.511 7    639637.245 2
  19448219.743   -25920492.180 7 -19914806.494 1
 90 10 12 14 47 29.9970000  0  5 02 12 06 13 09
  22825331.251    10898323.524 5   8493850.775 1
  21201287.938   -16056149.595 7 -11340255.675 2
  21026087.204    -2007704.336 6   4850407.137 1
  19695118.290   -20114687.474 7    649513.086 2
  19448197.259   -25920616.232 7
 90 10 12 14 47 44.9970000  0  5 02 12 06 13 09
  22831288.829    10929634.447 5   8518248.752 1
  21192822.579   -16100633.118 7 -11374918.173 2
  21033650.267    -1967940.726 6   4881391.706 1
  19697545.603   -20101928.272 7    659455.290 2
  19448202.993   -25920579.725 7
 90 10 12 14 47 59.9970000  0  5 02 12 06 13 09
  22837256.735    10960993.936 5   8542684.524 1
  21184374.829   -16145027.140 7 -11409510.930 2
  21041240.556    -1928067.942 6   4912461.347 2
  19699990.431   -20089082.402 7    669465.023 2
  19448240.462   -25920380.796 7
 90 10 12 14 48 14.9970000  0  5 02 12 06 13 09
  22843231.454    10992396.566 5   8567153.996 1
  21175943.892   -16189336.669 7 -11444037.851 2
  21048850.314    -1888091.390 6   4943611.841 1
  19702450.165   -20076154.956 7    679538.327 2
  19448309.415   -25920024.380 7
 90 10 12 14 48 29.9970000  0  5 02 12 06 13 09
  22849212.314    11023842.403 5   8591657.096 1
  21167527.657   -16233561.383 7 -11478498.683 2
  21056474.360    -1848011.540 6   4974842.829 2
  19704924.962   -20063146.529 7    689674.731 2
  19448407.642   -25919510.734 7        -0.34511
 90 10 12 14 48 44.9970000  0  5 02 12 06 13 09
  22855208.993    11055334.075 5   8616195.893 1
  21159127.931   -16277698.361 7 -11512891.145 1
  21064122.407    -1807825.996 6   5006156.176 1
  19707417.063   -20050054.807 7    699876.039 2
  19448534.743   -25918837.132 7       524.513 1
 90 10 12 14 48 59.9970000  0  5 02 12 06 13 09
  22861210.048    11086870.029 5   8640769.250 1
  21150745.337   -16321748.714 7 -11547216.105 2
  21071789.399    -1767536.629 6   5037550.428 2
  19709924.009   -20036881.691 7    710140.775 2
  19448694.313   -25918005.038 7      1172.875 1
 90 10 12 14 49 14.9970000  0  5 02 12 06 13 09
  22867218.767    11118449.284 5   8665376.306 1
  21142380.868   -16365712.949 7 -11581473.960 2
  21079475.438    -1727144.569 6   5069024.693 2
  19712445.689   -20023628.314 7    720468.045 2
  19448881.259   -25917015.408 7      1943.993 1
 90 10 12 14 49 29.9970000  0  5 02 12 06 13 09
  22873234.314    11150076.056 5   8690020.410 1
  21134031.384   -16409586.449 7 -11615661.108 1
  21087183.415    -1686645.669 6   5100582.214 2
  19714984.556   -20010290.270 7    730861.291 2
  19449101.376   -25915863.674 7      2841.428 1
 90 10 12 14 49 44.9970000  0  5 02 12 06 13 09
  22879263.923    11181748.909 5   8714700.373 1
  21125700.040   -16453370.371 7 -11649778.459 2
  21094908.282    -1646041.903 6   5132221.448 2
  19717537.204   -19996869.740 7    741318.816 1
  19449351.212   -25914551.600 7      3863.794 1
 90 10 12 14 49 59.9970000  0  5 02 12 06 13 09
  22885302.142    11213465.242 5   8739414.196 1
  21117383.907   -16497066.937 7 -11683827.730 2
  21102654.235    -1605336.122 6   5163940.174 2
  19720106.931   -19983369.618 7    751838.353 2
  19449629.907   -25913081.520 7      5009.289 1
 90 10 12 14 50 14.9970000  0  5 02 12 06 13 09
  22891349.915    11245229.902 5   8764165.742 1
  21109086.884   -16540670.934 7 -11717804.877 2
  21110421.376    -1564523.708 6   5195741.987 1
  19722691.399   -19969785.233 7    762423.554 1
  19449940.790   -25911448.782 7      6281.531 1
 90 10 12 14 50 29.9970000  0  5 02 12 06 13 09
  22897399.618    11277038.515 5   8788951.532 1
  21100804.142   -16584186.341 7 -11751712.993 1
  21118205.696    -1523609.179 6   5227623.373 1
  19725290.923   -19956121.072 7    773070.921 1
  19450282.814   -25909657.356 7      7677.426 1
 90 10 12 14 50 44.9970000  0  5 02 12 06 13 09
  22903456.821    11308893.957 5   8813773.846 1
  21092544.110   -16627609.696 7 -11785549.370 2
  21126013.876    -1482589.810 6   5259586.451 1
  19727908.626   -19942374.309 7    783782.652 1
  19450654.024   -25907704.333 7      9199.239 1
 90 10 12 14 50 59.9970000  0  5 02 12 06 13 09
  22909532.134    11340798.110 5   8838634.034 1
  21084296.063   -16670938.859 7 -11819312.361 2
  21133838.712    -1441464.183 6   5291632.328 1
  19730539.829   -19928543.719 7    794559.695 1
  19451056.149   -25905587.978 7     10848.325 1
 90 10 12 14 51 14.9970000  0  5 02 12 06 13 09
  22915611.813    11372744.462 5   8863527.113 1
  21076069.235   -16714180.176 7 -11853006.901 2
  21141683.337    -1400239.184 6   5323755.636 1
  19733186.923   -19914636.105 7    805396.772 1
  19451488.556   -25903314.723 7     12619.671 1
 90 10 12 14 51 29.9970000  0  5 02 12 06 13 09
  22921697.907    11404736.635 5   8888455.980 1
  21067858.048   -16757329.493 7 -11886629.751 2
  21149549.329    -1358911.344 6   5355959.082 1
  19735847.626   -19900648.029 7    816296.536 2
  19451952.399   -25900881.056 7     14516.009 1
 90 10 12 14 51 44.9970000  0  5 02 12 06 13 09
  22927794.946    11436774.804 5   8913420.628 1
  21059666.329   -16800386.137 7 -11920180.395 2
  21157433.048    -1317480.726 6   5388242.612 1
  19738525.618   -19886579.400 7    827259.073 1
  19452444.939   -25898286.199 7     16537.948 1
 90 10 12 14 51 59.9970000  0  5 02 12 06 13 09
  22933901.970    11468858.213 5   8938420.526 1
  21051489.509   -16843350.637 7 -11953659.235 2
  21165336.126    -1275948.337 6   5420605.441 1
  19741217.790   -19872431.414 7    838283.447 2
  19452970.438   -25895531.371 7     18684.545 1
 90 10 12 14 52 14.9970000  0  5 02 12 06 13 09
  22940014.454    11500986.436 5   8963455.355 1
  21043330.603   -16886223.197 7 -11987066.431 2
  21173258.009    -1234315.002 6   5453046.934 1
  19743924.962   -19858204.769 7    849369.108 1
  19453525.064   -25892616.980 7     20955.475 1
 90 10 12 14 52 29.9970000  0  5 02 12 06 13 09
  22946140.681    11533160.293 5   8988525.705 1
  21035189.657   -16929002.653 7 -12020401.087 2
  21181200.618    -1192580.342 6   5485567.381 1
  19746647.196   -19843899.109 7    860516.345 1
  19454110.470   -25889542.224 7     23351.368 1
 90 10 12 14 52 44.9970000  0  5 02 12 06 13 09
  22952267.376    11565382.049 5   9013633.446 1
  21027067.298   -16971686.124 7 -12053660.941 2
  21189160.478    -1150742.141 6   5518168.512 1
  19749385.173   -19829512.181 7    871726.906 1
  19454726.204   -25886304.601 7     25874.164 1
 90 10 12 14 52 59.9970000  0  5 02 12 06 13 09
  22958405.321    11597649.667 4   9038776.901 1
  21018964.017   -17014275.001 7 -12086847.091 2
  21197142.845    -1108802.416 6   5550848.749 1
  19752137.907   -19815046.073 7    882999.167 1
  19455372.712   -25882906.087 7     28522.333 1
 90 10 12 14 53 14.9970000  0  5 02 12 06 13 09
  22964559.009    11629961.714 5   9063954.912 1
  21010874.384   -17056770.471 7 -12119960.448 2
  21205143.024    -1066762.988 6   5583606.678 1
  19754905.290   -19800502.536 7    894331.760 1
  19456050.095   -25879347.831 7     31294.971 1
 90 10 12 14 53 29.9970000  0  5 02 12 06 13 09
  22970718.306    11662321.843 5   9089170.455 1
  21002807.774   -17099168.689 7 -12152998.027 2
  21213160.899    -1024620.644 6   5616444.800 1
  19757687.368   -19785878.275 7    905727.249 1
  19456757.501   -25875626.419 7     34194.749 1
 90 10 12 14 53 44.9970000  0  5 02 12 06 13 09
  22976884.899    11694728.210 5   9114422.000 1
  20994757.938   -17141471.040 7 -12185960.906 2
  21221198.009     -982377.400 6   5649361.542 1
  19760485.423   -19771175.370 7    917184.025 2
  19457496.821   -25871743.706 7     37220.220 1
 90 10 12 14 53 59.9970000  0  5 02 12 06 13 09
  22983056.189    11727186.542 5   9139714.094 1
  20986726.782   -17183671.473 7 -12218844.367 2
  21229260.485     -940027.746 6   5682361.206 1
  19763299.485   -19756388.294 7    928706.384 1
  19458268.064   -25867693.897 7     40375.885 1
 90 10 12 14 54 14.9970000  0  5 02 12 06 13 09
  22989246.571    11759690.180 5   9165041.430 1
  20978715.978   -17225776.167 7 -12251653.225 2
  21237338.079     -897578.686 6   5715438.323 1
  19766129.079   -19741523.938 7    940288.969 1
  19459069.649   -25863483.505 7     43656.685 1
 90 10 12 14 54 29.9970000  0  5 02 12 06 13 09
  22995439.110    11792237.017 5   9190402.396 1
  20970721.868   -17267787.087 7 -12284389.009 2
  21245433.837     -855032.809 6   5748590.888 1
  19768970.923   -19726585.130 7    951929.561 2
  19459900.907   -25859114.851 7     47060.804 1
 90 10 12 14 54 44.9970000  0  5 02 12 06 13 09
  23001640.970    11824832.048 5   9215800.974 1
  20962746.665   -17309698.676 7 -12317047.395 2
  21253549.134     -812385.206 6   5781822.710 1
  19771829.603   -19711566.902 7    963632.039 1
  19460763.228   -25854582.782 7     50592.265 1
 90 10 12 14 54 59.9970000  0  5 02 12 06 13 09
  23007853.704    11857476.111 5   9241237.735 1
  20954789.735   -17351509.931 7 -12349627.600 2
  21261683.095     -769635.554 6   5815134.054 1
  19774703.509   -19696468.689 7    975396.852 1
  19461655.970   -25849886.688 7     54251.538 1
 90 10 12 14 55 14.9970000  0  5 02 12 06 13 09
  23014074.212    11890166.421 5   9266710.513 1
  20946851.743   -17393222.962 7 -12382131.260 2
  21269838.946     -726786.659 6   5848522.732 1
  19777589.743   -19681293.444 7    987221.688 1
  19462581.220   -25845029.048 7     58036.687 1
 90 10 12 14 55 29.9970000  0  5 02 12 06 13 09
  23020309.462    11922904.409 5   9292220.505 1
  20938933.259   -17434835.969 7 -12414556.987 2
  21278012.212     -683837.261 6   5881989.729 1
  19780492.493   -19666039.984 7    999107.469 1
  19463536.563   -25840008.380 7     61948.871 1
 90 10 12 14 55 44.9970000  0  5 02 12 06 13 09
  23026546.212    11955689.301 5   9317766.943 1
  20931034.251   -17476349.414 7 -12446905.130 2
  21286203.188     -640788.594 6   5915534.067 1
  19783410.259   -19650709.397 7   1011053.351 2
  19464521.657   -25834825.602 7     65987.371 1
 90 10 12 14 55 59.9970000  0  5 02 12 06 13 09
  23032790.228    11988517.283 5   9343347.104 1
  20923152.415   -17517766.675 7 -12479178.329 2
  21294412.735     -597644.662 6   5949152.654 1
  19786341.462   -19635305.677 7   1023056.215 1
  19465540.110   -25829484.437 7     70149.294 1
 90 10 12 14 56 14.9970000  0  5 02 12 06 13 09
  23039043.181    12021391.885 4   9368963.471 1
  20915289.118   -17559083.658 7 -12511373.389 2
  21302643.423     -554402.039 6   5982848.135 1
  19789287.399   -19619825.116 7   1035118.955 1
  19466586.095   -25823980.853 7     74437.778 1
 90 10 12 14 56 29.9970000  0  5 02 12 06 13 09
  23045313.032    12054314.872 5   9394617.620 1
  20907445.188   -17600298.352 7 -12543488.740 2
  21310890.587     -511059.356 6   6016621.585 1
  19792246.970   -19604266.640 7   1047242.412 2
  19467665.884   -25818313.627 7     78853.773 1
 90 10 12 14 56 44.9970000  0  5 02 12 06 13 09
  23051584.782    12087277.391 5   9420302.507 1
  20899621.454   -17641419.438 7 -12575531.155 2
  21319154.345     -467625.693 6   6050465.928 1
  19795221.774   -19588639.614 7   1059419.280 1
  19468772.993   -25812491.403 7     83390.548 1
 90 10 12 14 56 59.9970000  0  5 02 12 06 13 09
  23057863.501    12120281.347 5   9446019.711 1
  20891813.673   -17682444.614 7 -12607498.826 2
  21327438.610     -424099.600 6   6084382.291 1
  19798209.204   -19572942.117 7   1071651.066 1
  19469910.407   -25806512.310 7     88049.561 1
 90 10 12 14 57 14.9970000  0  5 02 12 06 13 09
  23064151.142    12153332.466 4   9471773.746 1
  20884027.313   -17723367.536 7 -12639386.822 2
  21335738.048     -380475.425 6   6118375.082 1
  19801210.134   -19557168.492 7   1083942.166 1
  19471080.314   -25800370.505 7     92835.359 1
 90 10 12 14 57 29.9970000  0  5 02 12 06 13 09
  23070454.915    12186428.269 5   9497562.433 1
  20876259.267   -17764190.494 7 -12671196.932 2
  21344058.259     -336756.135 6   6152441.995 1
  19804226.173   -19541321.715 7   1096290.275 2
  19472279.071   -25794068.781 7     97745.774 1
 90 10 12 14 57 44.9970000  0  5 02 12 06 13 09
  23076763.056    12219569.605 5   9523386.732 1
  20868510.048   -17804912.227 7 -12702928.157 2
  21352396.720     -292941.161 6   6186583.462 1
  19807254.329   -19525401.234 7   1108695.809 2
  19473509.564   -25787606.141 7    102781.572 1
 90 10 12 14 57 59.9970000  0  5 02 12 06 13 09
  23083071.173    12252760.802 4   9549249.791 1
  20860779.813   -17845527.854 7 -12734576.706 2
  21360754.142     -249026.259 6   6220802.790 1
  19810300.657   -19509402.820 7   1121162.081 2
  19474769.915   -25780978.240 7    107946.142 1
 90 10 12 14 58 14.9970000  0  5 02 12 06 13 09
  23089399.657    12285998.389 4   9575149.122 1
  20853072.173   -17886040.454 7 -12766144.970 2
  21369129.478     -205015.196 6   6255097.047 1
  19813359.306   -19493330.211 7   1133686.156 1
  19476062.282   -25774188.300 7    113236.981 1
 90 10 12 14 58 29.9970000  0  5 02 12 06 13 09
  23095733.837    12319278.169 5   9601081.190 1
  20845381.978   -17926454.091 7 -12797636.127 2
  21377523.774     -160912.643 6   6289462.597 1
  19816430.298   -19477187.833 7   1146264.603 1
  19477383.751   -25767240.795 7    118650.600 1
 90 10 12 14 58 44.9970000  0  5 02 12 06 13 09
  23102075.923    12352604.707 5   9627049.787 1
  20837709.548   -17966763.903 7 -12829046.375 2
  21385933.735     -116714.377 6   6323902.729 1
  19819515.603   -19460971.497 7   1158900.676 1
  19478736.173   -25760131.360 7    124190.390 1
 90 10 12 14 58 59.9970000  0  5 02 12 06 13 09
  23108424.485    12385976.026 5   9653053.262 1
  20830058.446   -18006971.295 7 -12860376.814 2
  21394361.688      -72422.382 6   6358415.891 1
  19822614.884   -19444683.595 7   1171592.520 1
  19480120.415   -25752861.618 7    129855.102 1
 90 10 12 14 59 14.9960000  0  5 02 12 06 13 09
  23114787.988    12419391.445 5   9679091.067 1
  20822429.770   -18047071.799 7 -12891623.969 2
  21402805.457      -28038.511 6   6393000.651 1
  19825730.316   -19428323.662 7   1184340.483 2
  19481534.582   -25745430.462 7    135645.590 1
 90 10 12 14 59 29.9960000  0  5 02 12 06 13 09
  23121155.590    12452853.832 5   9705165.504 1
  20814816.168   -18087071.726 7 -12922792.754 2
  21411268.934       16441.463 6   6427660.295 1
  19828857.160   -19411891.356 7   1197144.848 1
  19482977.270   -25737838.780 7    141561.165 1
 90 10 12 14 59 44.9960000  0  5 02 12 06 13 09
  23127527.262    12486361.558 5   9731275.289 1
  20807224.488   -18126967.473 7 -12953880.357 2
  21419752.660       61014.843 6   6462392.710 1
  19831995.941   -19395387.554 7   1210004.919 1
  19484453.895   -25730086.102 7    147602.188 1
 90 10 12 14 59 59.9960000  0  5 02 12 06 13 09
  23133913.535    12519914.282 5   9757420.059 1
  20799653.520   -18166759.162 7 -12984886.880 2
  21428251.285      105680.850 6   6497197.311 1
  19835150.504   -19378812.810 7   1222920.274 1
  19485960.301   -25722173.134 7    153768.115 1
 90 10 12 15  0 14.9960000  0  5 02 12 06 13 09
  23140305.637    12553511.530 5   9783599.646 1
  20792099.691   -18206446.918 7 -13015812.413 2
  21436767.426      150438.770 6   6532073.529 1
  19838319.746   -19362167.687 7   1235890.465 1
  19487495.848   -25714100.135 7    160058.736 1
 90 10 12 15  0 29.9960000  0  5 02 12 06 13 09
  23146708.723    12587148.942 5
  20784566.387   -18246034.427 7 -13046659.835 2
  21445302.254      195284.172 6   6567017.915 1
  19841497.606   -19345456.859 7   1248911.855 1
  19489062.559   -25705871.477 7    166470.650 2
 90 10 12 15  0 44.9960000  0  5 02 12 06 13 09
  23153122.387    12620833.137 5
  20777055.043   -18285514.901 7 -13077423.849 2
  21453854.293      240223.233 6   6602035.277 1
  19844692.598   -19328673.882 7   1261989.459 2
  19490658.012   -25697480.667 7    173008.919 1
 90 10 12 15  0 59.9960000  0  5 02 12 06 13 09
  23159539.324    12654567.721 5
  20769563.457   -18324884.423 7 -13108101.409 2
  21462424.543      285259.078 6   6637128.067 1
  19847900.590   -19311815.608 7   1275125.746 1
  19492287.059   -25688924.331 7    179676.170 1
 90 10 12 15  1 14.9960000  0  5 02 12 06 13 09
  23165958.340    12688345.726 3
  20762091.738   -18364149.359 7 -13138697.472 2
  21471012.645      330384.920 6   6672290.982 1
  19851121.996   -19294889.150 7   1288315.158 2
  19493945.957   -25680208.835 7    186467.438 1
 90 10 12 15  1 29.9960000  0  5 02 12 06 13 09
  23172404.043    12722169.614 5
  20754640.051   -18403306.966 7 -13169209.903 2
  21479614.231      375602.720 6   6707525.548 1
  19854356.098   -19277892.150 7   1301559.537 1
  19495633.856   -25671332.024 7    193384.410 1
 90 10 12 15  1 44.9960000  0  5 02 12 06 13 09
  23178851.934    12756035.144 5
  20747207.652   -18442361.112 7 -13199641.710 2
  21488235.543      420907.967 6   6742828.256 1
  19857602.637   -19260829.280 7   1314855.245 1
  19497351.988   -25662298.257 7    200423.682 2
 90 10 12 15  1 59.9960000  0  5 02 12 06 13 09
  23185298.113    12789943.692 4
  20739796.129   -18481309.950 7 -13229991.468 2
  21496872.410      466301.868 6   6778200.040 1
  19860862.629   -19243699.364 7   1328203.192 1
  19499101.754   -25653105.973 7    207586.468 2
 90 10 12 15  2 14.9960000  0  5 02 12 06 13 09
  23191759.895    12823893.225 5
  20732403.746   -18520155.005 7 -13260260.350 2
  21505529.270      511782.163 6   6813639.146 1
  19864135.777   -19226504.424 7   1341601.808 1
  19500882.543   -25643757.236 7    214871.172 2
 90 10 12 15  2 29.9960000  0  5 02 12 06 13 09
  23198234.988    12857891.019 5
  20725031.949   -18558888.965 7 -13290442.666 2
  21514203.434      557355.526 6   6849150.769 1
  19867419.879   -19209237.910 7   1355056.193 2
  19502693.840   -25634245.057 7    222283.233 1
 90 10 12 15  2 44.9960000  0  5 02 12 06 13 09
  23204709.035    12891937.189 4
  20717682.262   -18597511.144 7 -13320537.882 2
  21522892.910      603021.822 6   6884734.813 1
  19870718.598   -19191899.600 7   1368566.533 1
  19504534.980   -25624569.075 7    229822.932 2
 90 10 12 15  2 59.9960000  0  5 02 12 06 13 09
  23211192.004    12926028.264 4
  20710354.715   -18636024.419 7 -13350548.235 2
  21531599.762      648777.606 6   6920388.583 1
  19874032.082   -19174493.160 7   1382129.955 1
  19506404.887   -25614732.912 7    237487.453 2
 90 10 12 15  3 14.9960000  0  5 02 12 06 13 09
  23217695.168    12960162.295 5
  20703046.238   -18674431.023 7 -13380475.469 2
  21540323.480      694620.090 6   6956109.911 1
  19877357.231   -19157021.393 7   1395744.281 1
  19508306.277   -25604738.678 7    245275.136 2
 90 10 12 15  3 29.9960000  0  5 02 12 06 13 09
  23224197.504    12994339.298 5
  20695758.520   -18712730.337 7 -13410319.099 2
  21549064.559      740549.230 6   6991898.767 1
  19880693.754   -19139484.047 7   1409409.706 1
  19510237.762   -25594586.469 7    253185.922 2
 90 10 12 15  3 44.9960000  0  5 02 12 06 13 09
  23230709.535    13028559.528 5
  20688489.559   -18750921.330 7 -13440078.325 2
  21557820.504      786565.314 6   7027755.364 1
  19884042.652   -19121880.880 7   1423126.419 2
  19512201.809   -25584275.574 7    261220.355 1
 90 10 12 15  3 59.9960000  0  5 02 12 06 13 09
  23237233.043    13062826.766 5        -0.31811
  20681244.520   -18789000.207 7 -13469750.185 2
  21566592.199      832671.568 6   7063682.227 1
  19887406.785   -19104208.734 7   1436896.874 1
  19514195.059   -25573802.443 7    269381.210 2
 90 10 12 15  4 14.9960000  0  5 02 12 06 13 09
  23243752.895    13097135.087 4     26733.264 1
  20674017.598   -18826972.516 7 -13499339.008 2
  21575383.324      878861.742 6   7099674.481 1
  19890782.059   -19086473.621 7   1450716.411 1
  19516215.973   -25563173.236 7    277663.677 2
 90 10 12 15  4 29.9960000  0  5 02 12 06 13 09
  23250294.645    13131482.386 5     53497.258 1
  20666813.473   -18864839.761 7 -13528845.963 2
  21584190.074      925133.722 6   7135730.476 1
  19894166.801   -19068677.825 7   1464583.225 2
  19518270.645   -25552389.903 7    286066.245 2
 90 10 12 15  4 44.9960000  0  5 02 12 06 13 09
  23256841.684    13165873.550 5     80295.364 1
  20659628.012   -18902596.846 7 -13558267.078 2
  21593012.738      971491.888 6   7171853.629 1
  19897568.051   -19050816.842 7   1478500.832 1
  19520350.770   -25541447.541 7    294592.734 2
 90 10 12 15  4 59.9960000  0  5 02 12 06 13 09
  23263391.371    13200310.714 5    107129.325 1
  20652464.488   -18940241.022 7 -13587600.211 2
  21601853.426     1017938.331 6   7208045.573 1
  19900978.207   -19032888.535 7   1492470.909 1
  19522464.660   -25530343.964 7    303244.838 2
 90 10 12 15  5 14.9960000  0  5 02 12 06 13 09
  23269951.348    13234790.523 5    133996.576 1
  20645321.551   -18977775.291 7 -13616847.705 2
  21610707.754     1064469.181 6   7244303.292 1
  19904401.606   -19014896.542 7   1506490.606 2
  19524607.488   -25519082.786 7    312019.755 2
 90 10 12 15  5 29.9960000  0  5 02 12 06 13 09
  23276525.262    13269310.651 5    160895.162 1
  20638199.426   -19015201.878 7 -13646011.285 2
  21619577.145     1111081.750 6   7280624.683 1
  19907839.270   -18996843.760 7   1520557.675 1
  19526778.637   -25507666.321 7    320915.671 2
 90 10 12 15  5 44.9960000  0  5 02 12 06 13 09
  23283096.902    13303873.952 4    187827.418 1
  20631097.988   -19052517.312 7 -13675088.256 2
  21628463.832     1157778.704 6   7317011.823 1
  19911284.191   -18978727.277 7   1534674.386 1
  19528982.895   -25496091.770 7    329934.768 2
 90 10 12 15  5 59.9960000  0  5 02 12 06 13 09
  23289683.668    13338480.065 5    214793.006 1
  20624018.949   -19089721.609 7 -13704078.624 2
  21637366.168     1204559.552 6   7353464.341 1
  19914743.418   -18960547.566 7   1548840.347 1
  19531216.184   -25484359.300 7    339076.924 2
 90 10 12 15  6 14.9960000  0  5 02 12 06 13 09
  23296277.285    13373128.495 4    241791.611 1
  20616960.246   -19126815.146 7 -13732982.687 2
  21646281.027     1251423.326 6   7389981.474 1
  19918215.418   -18942305.547 7   1563054.868 1
  19533478.379   -25472469.824 7    348341.421 2
 90 10 12 15  6 29.9960000  0  5 02 12 06 13 09
  23302878.840    13407818.920 4    268822.936 1
  20609921.816   -19163797.719 7 -13761800.285 2
  21655216.449     1298369.397 6   7426562.727 1
  19921697.988   -18924001.784 7   1577317.505 2
  19535769.746   -25460423.612 7    357728.047 2
 90 10 12 15  6 44.9960000  0  5 02 12 06 13 09
  23309490.410    13442556.936 4    295891.327 1
  20602907.559   -19200663.153 7 -13790526.606 2
  21664164.496     1345403.397 6   7463212.502 1
  19925194.762   -18905630.760 7   1591632.549 1
  19538092.512   -25448214.819 7    367241.361 2
 90 10 12 15  6 59.9960000  0  5 02 12 06 13 09
  23316110.801    13477337.003 5    322992.469 1
  20595913.309   -19237416.641 7 -13819165.700 2
  21673131.785     1392519.201 6   7499926.019 1
  19928701.887   -18887198.490 7   1605995.318 1
  19540446.496   -25435849.245 7    376876.847 2
 90 10 12 15  7 14.9960000  0  5 02 12 06 13 09
  23322736.223    13512158.299 4    350125.743 1
  20588940.738   -19274058.594 7 -13847717.884 2
  21682111.840     1439715.810 6   7536702.502 1
  19932220.543   -18868705.855 7   1620405.121 1
  19542830.465   -25423327.615 7    386633.931 2
 90 10 12 15  7 29.9960000  0  5 02 12 06 13 09
  23329373.230    13547024.000 4    377293.644 1
  20581990.715   -19310585.557 7 -13876180.468 2
  21691109.598     1486996.188 6   7573544.251 1
  19935752.574   -18850150.002 7   1634864.187 1
  19545243.145   -25410646.781 7    396515.072 2
 90 10 12 15  7 44.9960000  0  5 02 12 06 13 09
  23336011.574    13581933.819 4    404495.877 1
  20575060.770   -19346997.574 7 -13904553.482 2
  21700124.184     1534359.585 6   7610450.704 1
  19939297.293   -18831531.319 7   1649372.214 1
  19547684.059   -25397807.353 7    406519.795 2
 90 10 12 15  7 59.9960000  0  5 02 12 06 13 09
  23342664.582    13616888.568 4    431733.182 1
  20568153.699   -19383293.233 7 -13932835.833 2
  21709154.035     1581806.841 6   7647422.496 1
  19942850.981   -18812849.077 7   1663929.772 1
  19550158.723   -25384808.152 7    416649.019 2
 90 10 12 15  8 14.9960000  0  5 02 12 06 13 09
  23349327.957    13651885.861 4    459003.469 1
  20561268.934   -19419474.752 7 -13961029.239 2
  21718196.348     1629334.890 6   7684457.237 1
  19946415.988   -18794106.410 7   1678534.408 1
  19552663.566   -25371652.080 7    426900.477 2
 90 10 12 15  8 29.9960000  0  5 02 12 06 13 09
  23355993.121    13686923.152 4    486305.149 1
  20554406.043   -19455544.208 7 -13989135.322 2
  21727255.910     1676941.080 6   7721552.877 1
  19949997.184   -18775305.880 7   1693184.134 1
  19555194.465   -25358341.349 7    437272.443 2
 90 10 12 15  8 44.9960000  0  5 02 12 06 13 09
  23362668.543    13722004.340 5    513640.829 1
  20547564.270   -19491497.485 7 -14017150.876 2
  21736329.105     1724628.802 6   7758712.049 1
  19953583.918   -18756443.967 7   1707881.697 1
  19557759.738   -25344872.609 7    447767.532 2
 90 10 12 15  8 59.9960000  0  5 02 12 06 13 09
  23369349.332    13757130.363 3    541011.633 1
  20540744.723   -19527333.097 7 -14045074.743 2
  21745422.887     1772398.901 6   7795935.396 1
  19957186.020   -18737519.738 7   1722627.815 2
  19560350.691   -25331244.584 7    458386.743 2
 90 10 12 15  9 14.9960000  0  5 02 12 06 13 09
  23376047.832    13792301.533 4    568417.480 1
  20533948.184   -19563050.358 7 -14072906.388 2
  21754527.645     1820251.433 6   7833222.988 1
  19960799.074   -18718532.905 7   1737422.713 1
  19562975.777   -25317457.076 7    469130.220 2
 90 10 12 15  9 29.9960000  0  5 02 12 06 13 09
  23382745.238    13827517.500 3
  20527173.731   -19598649.269 7 -14100645.811 2
  21763648.691     1868185.713 6   7870574.275 1
  19964422.645   -18699484.329 7   1752265.720 1
  19565630.902   -25303510.541 7    479997.622 2
 90 10 12 15  9 44.9960000  0  5 02 12 06 13 09
  23389454.582    13862771.265 3
  20520419.738   -19634136.425 7 -14128298.149 2
  21772785.332     1916194.569 6   7907983.672 1
  19968058.418   -18680381.147 7   1767151.282 2
  19568311.129   -25289412.062 7    490983.417 2
 90 10 12 15  9 59.9960000  0  5 02 12 06 13 09
  23396177.793    13898073.266 4
  20513690.660   -19669501.188 7 -14155855.120 2
  21781935.754     1964287.904 6   7945458.904 1
  19971707.379   -18661213.231 7   1782087.288 1
  19571024.176   -25275150.997 7    502095.904 2
 90 10 12 15 10 14.9960000  0  5 02 12 06 13 09
  23402895.801    13933418.854 3
  20506983.176   -19704747.546 7 -14183319.823 2
  21791103.840     2012461.075 6   7982996.331 1
  19975366.723   -18641985.310 7   1797070.042 1
  19573769.363   -25260732.322 7    513331.202 2
 90 10 12 15 10 29.9960000  0  5 02 12 06 13 09
  23409634.535    13968808.840 4
  20500299.191   -19739874.421 7 -14210691.422 2
  21800286.363     2060714.472 6   8020596.290 1
  19979036.527   -18622696.623 7   1812100.146 1
  19576544.051   -25246155.197 7    524689.971 2
 90 10 12 15 10 44.9960000  0  5 02 12 06 13 09
  23416375.887    14004243.553 3
  20493638.754   -19774881.185 7 -14237969.435 2
  21809481.715     2109047.972 6   8058258.652 1
  19982718.488   -18603347.535 7   1827177.319 1
  19579347.730   -25231419.685 7    536172.159 2
 90 10 12 15 10 59.9960000  0  5 02 12 06 13 09
  23423129.113    14039722.126 4
  20486999.270   -19809768.398 7 -14265154.285 2
  21818695.387     2157460.440 6   8095982.552 1
  19986413.379   -18583938.973 7   1842300.837 1
  19582181.387   -25216526.549 7    547777.170 2
 90 10 12 15 11 14.9960000  0  5 02 12 06 13 09
  23429885.621    14075240.201 4
  20480381.902   -19844540.039 7 -14292249.080 2
  21827923.191     2205947.299 6   8133764.414 1
  19990117.066   -18564475.416 7   1857467.205 1
  19585044.106   -25201480.080 7    559501.658 2
 90 10 12 15 11 29.9960000  0  5 02 12 06 13 09
  23436655.590    14110798.593 3
  20473787.371   -19879194.544 7 -14319252.597 2
  21837168.371     2254509.496 6   8171604.989 1
  19993831.707   -18544956.072 7   1872677.044 2
  19587937.746   -25186279.079 7    571346.563 2
 90 10 12 15 11 44.9960000  0  5 02 12 06 13 09
  23443433.910    14146398.548 4
  20467215.129   -19913730.829 7 -14346164.000 2
  21846420.965     2303147.454 6   8209504.595 1
  19997553.512   -18525380.495 7   1887930.702 1
  19590862.176   -25170923.067 7    583312.254 2
 90 10 12 15 11 59.9960000  0  5 02 12 06 13 09
  23450203.324    14182036.747 2
  20460666.363   -19948151.417 7 -14372985.243 2
  21855688.434     2351857.859 6   8247460.644 1
  20001291.098   -18505751.827 7   1903225.724 1
  19593810.777   -25155415.079 7    595396.373 2
 90 10 12 15 12 14.9960000  0  5 02 12 06 13 09
  23457005.105    14217714.557 4        -0.03811
  20454137.777   -19982454.809 7 -14399715.167 2
  21864969.856     2400641.524 6   8285473.785 1
  20005036.184   -18486068.833 7   1918563.082 2
  19596791.402   -25139754.092 7    607599.711 2
 90 10 12 15 12 29.9960000  0  5 02 12 06 13 09
  23463798.262    14253434.769 2     27833.649 1
  20447632.770   -20016637.697 7 -14426351.191 2
  21874274.160     2449501.136 6   8323546.101 1
  20008790.793   -18466329.156 7   1933944.606 1
  19599802.730   -25123937.165 7    619924.561 2
 90 10 12 15 12 44.9960000  0  5 02 12 06 13 09
  23470605.035    14289196.200 4     55699.403 1
  20441151.246   -20050701.141 7 -14452894.143 2
  21883584.043     2498435.010 6   8361676.286 1
  20012559.645   -18446534.391 7   1949369.057 1
  19602839.465   -25107965.778 7    632369.774 2
 90 10 12 15 12 59.9960000  0  5 02 12 06 13 09
  23477420.465    14324996.083 3     83595.308 1
  20434690.316   -20084647.249 7 -14479345.662 2
  21892903.856     2547440.263 5   8399862.091 1
  20016336.176   -18426687.145 7   1964834.402 1
  19605910.035   -25091842.557 7    644933.289 2
 90 10 12 15 13 14.9960000  0  5 02 12 06 13 09
  23484240.902    14360836.536 4
  20428254.309   -20118473.670 7 -14505703.920 2
  21902249.402     2596518.758 6   8438104.960 1
  20020122.481   -18406785.621 7   1980342.041 1
  19609007.816   -25075565.596 7    657616.616 2
 90 10 12 15 13 29.9960000  0  5 02 12 06 13 09
  23491067.473    14396719.592 3
  20421841.082   -20152178.059 7 -14531967.084 2
  21911602.152     2645672.187 6   8476406.222 1
  20023921.965   -18386828.021 7   1995893.375 1
  19612131.098   -25059133.043 7    670421.180 2
 90 10 12 15 13 44.9960000  0  5 02 12 06 13 09
  23497903.160    14432640.186 4
  20415448.926   -20185764.993 7 -14558138.727 2
  21920965.785     2694895.135 5   8514761.666 1
  20027728.481   -18366819.529 7   2011484.366 1
  19615287.848   -25042549.695 7    683343.238 2
 90 10 12 15 13 59.9960000  0  4 12 06 13 09
  20409079.973   -20219230.906 7 -14584216.066 2
  21930351.496     2744190.809 6   8553173.758 1
  20031545.465   -18346756.963 7   2027117.492 1
  19618475.066   -25025812.501 7    696385.180 2
 90 10 12 15 14 14.9960000  0  4 12 06 13 09
  20402736.582   -20252575.620 7 -14610198.965 2
  21939746.707     2793558.560 6   8591642.026 1
  20035373.606   -18326640.776 7   2042792.400 1
  19621689.238   -25008921.813 7    709546.724 2
 90 10 12 15 14 29.9960000  0  4 12 06 13 09
  20396414.176   -20285798.910 7 -14636087.249 2
  21949145.988     2842997.884 5   8630166.063 1
  20039211.629   -18306471.544 7   2058508.638 1
  19624933.762   -24991877.945 7    722827.633 2
 90 10 12 15 14 44.9960000  0  4 12 06 13 09
  20390113.895   -20318903.604 7 -14661883.119 2
  21958573.551     2892505.287 6   8668743.151 1
  20043058.621   -18286252.755 7   2074263.498 1
  19628205.027   -24974684.215 7    736225.316 2
 90 10 12 15 14 59.9960000  0  4 12 06 13 09
  20383837.965   -20351884.049 7 -14687582.172 2
  21968009.113     2942085.767 6   8707377.176 1
  20046918.098   -18265979.191 7   2090061.033 2
  19631505.848   -24957335.370 7    749743.866 2
 90 10 12 15 15 14.9960000  0  4 12 06 13 09
  20377583.949   -20384740.354 7 -14713184.492 2
  21977453.184     2991738.780 5   8746067.723 1
  20050787.285   -18245651.611 7   2105900.662 1
  19634833.684   -24939831.640 7    763383.101 2
 90 10 12 15 15 29.9960000  0  4 12 06 13 09
  20371356.926   -20417475.976 7 -14738692.778 2
  21986919.098     3041460.126 6   8784811.506 1
  20054664.387   -18225273.964 7   2121779.301 1
  19638193.059   -24922177.237 7    777139.747 2
 90 10 12 15 15 44.9960000  0  4 12 06 13 09
  20365150.691   -20450089.852 7 -14764106.192 2
  21996392.246     3091250.109 5   8823608.789 1
  20058549.051   -18204845.774 7   2137697.326 1
  19641584.543   -24904371.568 7    791014.266 2
 90 10 12 15 15 59.9960000  0  4 12 06 13 09
  20358965.902   -20482579.956 7 -14789423.165 2
  22005880.855     3141110.270 5   8862460.732 1
  20062449.090   -18184365.593 7   2153655.866 1
  19645001.699   -24886412.970 7    805007.947 2
 90 10 12 15 16 14.9960000  0  4 12 06 13 09
  20352808.410   -20514945.716 7 -14814643.245 2
  22015381.129     3191040.439 5   8901367.248 1
  20066355.629   -18163833.447 7   2169654.895 1
  19648446.512   -24868301.183 7    819120.992 2
 90 10 12 15 16 29.9960000  0  4 12 06 13 09
  20346672.027   -20547190.156 7 -14839768.791 2
  22024893.496     3241036.957 5   8940325.457 1
  20070272.074   -18143252.824 7   2185691.702 1
  19651924.270   -24850040.014 7    833350.439 2
 90 10 12 15 16 44.9960000  0  4 12 06 13 09
  20340560.645   -20579308.290 7 -14864795.920 2
  22034423.707     3291104.096 5   8979338.692 1
  20074198.316   -18122619.493 7   2201769.579 1
  19655426.441   -24831624.864 7    847699.872 2
 90 10 12 15 16 59.9960000  0  4 12 06 13 09
  20334471.707   -20611303.178 7 -14889727.012 2
  22043964.254     3341238.111 5   9018404.043 1
  20078135.496   -18101937.018 7   2217885.750 1
  19658959.598   -24813059.039 7    862166.718 2
 90 10 12 15 17 14.9960000  0  4 12 06 13 09
  20328406.543   -20643178.014 7 -14914564.558 2
  22053515.871     3391435.220 5   9057518.565 1
  20082078.223   -18081208.968 7   2234037.436 1
  19662522.566   -24794346.172 7    876748.142 2
 90 10 12 15 17 29.9960000  0  4 12 06 13 09
  20322365.723   -20674928.809 7 -14939305.450 2
  22063081.215     3441698.694 5   9096684.779 1
  20086031.949   -18060431.893 7   2250227.323 1
  19666110.426   -24775483.221 7    891446.516 2
 90 10 12 15 17 44.9960000  0  4 12 06 13 09
  20316346.106   -20706549.980 7 -14963945.335 2
  22072658.145     3492033.516 5   9135906.601 1
  20089997.316   -18039600.967 7   2266459.163 1
  19669727.152   -24756464.687 7    906266.119 2
 90 10 12 15 17 59.9960000  0  4 12 06 13 09
  20310352.660   -20738049.519 7 -14988490.445 2
  22082250.215     3542431.129 5   9175177.341 1
  20093970.348   -18018724.537 7   2282726.464 1
  19673374.754   -24737299.009 7    921200.385 2
 90 10 12 15 18 14.9960000  0  4 12 06 13 09
  20304383.254   -20769419.380 7 -15012934.506 2
  22091852.566     3592898.876 5   9214502.747 1
  20097953.434   -17997795.223 7   2299034.972 1
  19677051.184   -24717978.608 7    936255.211 2
 90 10 12 15 18 29.9960000  0  4 12 06 13 09
  20298438.473   -20800661.327 7 -15037278.896 2
  22101469.090     3643434.275 5   9253880.845 1
  20101944.621   -17976815.491 7   2315382.769 1
  19680756.746   -24698505.911 7    951428.704 2
 90 10 12 15 18 44.9960000  0  4 12 06 13 09
  20292516.121   -20831778.975 7 -15061526.428 2
  22111101.254     3694033.066 5   9293308.361 1
  20105945.793   -17955789.403 7   2331766.684 1
  19684490.590   -24678884.794 7    966717.849 2
 90 10 12 15 18 59.9960000  0  4 12 06 13 09
  20286619.559   -20862770.852 7 -15085675.959 2
  22120738.980     3744696.203 5   9332786.007 1
  20109956.152   -17934716.023 7   2348187.453 1
  19688254.215   -24659114.203 7    982123.468 2
 90 10 12 15 19 14.9960000  0  4 12 06 13 09
  20280746.152   -20893639.451 7 -15109729.428 2
  22130395.231     3795420.371 5   9372311.195 1
  20113973.457   -17913598.468 7   2364642.647 1
  19692045.551   -24639197.374 7    997643.033 2
 90 10 12 15 19 29.9960000  0  4 12 06 13 09
  20274896.637   -20924379.605 7 -15133682.811 2
  22140058.879     3846210.233 5   9411887.599 1
  20118002.746   -17892432.084 7   2381135.884 1
  19695864.574   -24619129.370 7   1013280.402 2
 90 10 12 15 19 44.9960000  0  4 12 06 13 09
  20269070.246   -20954993.602 7 -15157537.889 2
  22149731.707     3897062.703 5   9451512.773 1
  20122040.316   -17871219.977 7   2397664.757 1
  19699708.746   -24598913.170 7   1029033.250 2
 90 10 12 15 19 59.9960000  0  4 12 06 13 09
  20263267.746   -20985484.471 7 -15181297.022 2
  22159423.246     3947974.184 5   9491183.943 1
  20126081.606   -17849965.499 7   2414226.635 1
  19703587.715   -24578552.146 7   1044898.947 2
 90 10 12 15 20 14.9960000  0  4 12 06 13 09
  20257490.254   -21015841.416 7 -15204951.800 2
  22169123.715     3998954.762 5   9530908.955 1
  20130141.105   -17828658.385 7   2430829.535 1
  19707487.277   -24558036.104 7   1060885.432 2
 90 10 12 15 20 29.9960000  0  4 12 06 13 09
  20251739.301   -21046068.653 7 -15228505.504 2
  22178840.512     4049999.607 5   9570684.027 1
  20134201.262   -17807303.569 7   2447469.601 1
  19711424.809   -24537369.643 7   1076989.137 2
 90 10 12 15 20 44.9960000  0  4 12 06 13 09
  20246011.371   -21076168.304 7 -15251959.792 2
  22188562.871     4101106.015 5   9610507.067 1
  20138273.777   -17785903.491 7   2464144.947 1
  19715382.574   -24516555.139 7   1093208.196 2
 90 10 12 15 20 59.9960000  0  4 12 06 13 09
  20240308.793   -21106140.217 7 -15275314.545 2
  22198299.941     4152273.631 5   9650377.802 1
  20142355.980   -17764458.260 7   2480855.475 1
  19719370.098   -24495593.066 7   1109542.241 2
 90 10 12 15 21 14.9960000  0  4 12 06 13 09
  20234628.402   -21135982.019 7 -15298567.912 2
  22208045.410     4203504.051 5   9690297.490 1
  20146444.941   -17742966.436 7   2497602.306 1
  19723391.855   -24474481.540 7   1125992.742 2
 90 10 12 15 21 29.9960000  0  4 12 06 13 09
  20228975.027   -21165693.087 7 -15321719.406 2
  22217807.949     4254797.145 5   9730266.008 1
  20150541.504   -17721427.790 7   2514385.627 1
  19727438.004   -24453220.423 7   1142559.805 2
 90 10 12 15 21 44.9960000  0  4 12 06 13 09
  20223345.793   -21195275.293 7 -15344770.490 2
  22227582.152     4306150.603 5   9770281.574 1
  20154649.082   -17699844.775 7   2531203.514 1
  19731510.145   -24431812.037 7   1159241.631 2
 90 10 12 15 21 59.9960000  0  4 12 06 13 09
  20217741.965   -21224725.941 7 -15367719.064 2
  22237368.090     4357566.429 5   9810345.707 1
  20158766.223   -17678215.282 7
  19735612.309   -24410254.124 7
 90 10 12 15 22 14.9960000  0  4 12 06 13 09
  20212163.012   -21254043.094 7 -15390563.619 2
  22247164.223     4409045.969 5   9850459.520 1
  20162890.809   -17656538.042 7
  19739743.895   -24388545.110 7
 90 10 12 15 22 29.9960000  0  4 12 06 13 09
  20206608.871   -21283228.467 7 -15413305.482 2
  22256970.793     4460586.775 5   9890621.044 1
  20167024.496   -17634815.232 7   2581875.738 1
  19743904.496   -24366687.432 7   1209987.960 2
 90 10 12 15 22 44.9960000  0  4 12 06 13 09
  20201078.746   -21312287.431 7 -15435948.848 2
  22266787.441     4512182.839 5   9930825.647 1
  20171167.301   -17613052.657 7   2598833.544 1
  19748091.520   -24344686.547 7   1227131.477 2
 90 10 12 15 22 59.9960000  0  4 12 06 13 09
  20195574.238   -21341214.059 7 -15458489.094 2
  22276619.910     4563839.458 5   9971077.418 1
  20175316.574   -17591244.881 7   2615826.566 1
  19752303.004   -24322537.475 7   1244390.450 2
 90 10 12 15 23 14.9960000  0  4 12 06 13 09
  20190095.762   -21370003.494 7 -15480922.441 2
  22286460.387     4615560.898 5  10011379.714 1
  20179476.996   -17569387.612 7   2632858.152 1
  19756545.645   -24300235.579 7   1261768.511 2
 90 10 12 15 23 29.9960000  0  4 12 06 13 09
  20184643.176   -21398659.107 7 -15503251.508 2
  22296313.191     4667343.128 5  10051729.362 1
  20183642.645   -17547484.742 7   2649925.271 1
  19760822.051   -24277784.839 7   1279262.558 2
 90 10 12 15 23 44.9960000  0  4 12 06 13 09
  20179215.520   -21427180.622 7 -15525476.082 2
  22306179.668     4719185.772 5  10092126.112 1
  20187822.043   -17525536.566 7   2667027.697 1
  19765120.090   -24255185.192 7   1296872.628 2
 90 10 12 15 23 59.9960000  0  4 12 06 13 09
  20173812.207   -21455579.865 7 -15547605.379 2
  22316054.566     4771076.398 5  10132560.237 1
  20192002.137   -17503555.362 7   2684155.854 1
  19769448.910   -24232449.271 7   1314588.888 2
 90 10 12 15 24 14.9960000  0  4 12 06 13 09
  20168432.512   -21483846.405 7 -15569631.269 2
  22325940.059     4823024.801 5  10173039.371 1
  20196196.848   -17481531.137 7   2701317.537 1
  19773799.434   -24209566.925 7   1332419.250 2
 90 10 12 15 24 29.9960000  0  4 12 06 13 09
  20163077.629   -21511983.626 7 -15591556.388 2
  22335836.387     4875027.042 5  10213560.479 1
  20200391.160   -17459467.908 7   2718509.616 1
  19778185.426   -24186542.150 7   1350360.594 2
 90 10 12 15 24 44.9960000  0  4 12 06 13 09
  20157751.324   -21539982.667 7 -15613373.838 2
  22345746.027     4927091.246 5  10254129.844 1
  20204600.879   -17437357.337 7   2735738.570 1
  19782592.082   -24163366.326 7   1368419.640 2
 90 10 12 15 24 59.9960000  0  4 12 06 13 09
  20152447.871   -21567847.461 7 -15635086.676 2
  22355663.168     4979212.747 5  10294743.860 1
  20208817.777   -17415204.091 7   2753000.786 1
  19787029.121   -24140044.302 7   1386592.615 2
 90 10 12 15 25 14.9960000  0  4 12 06 13 09
  20147170.066   -21595579.257 7 -15656695.881 2
  22365596.309     5031389.673 5  10335401.070 1
  20213040.949   -17393009.948 7   2770294.881 1
  19791496.363   -24116577.529 7   1404878.373 2
 90 10 12 15 25 29.9960000  0  4 12 06 13 09
  20141917.465   -21623185.594 7 -15678207.330 2
  22375532.770     5083613.992 5  10376095.224 1
  20217268.449   -17370782.718 7   2787614.744 1
  19795990.020   -24092974.044 7   1423270.661 2
 90 10 12 15 25 44.9960000  0  4 12 06 13 09
  20136689.543   -21650653.348 7 -15699610.786 2
  22385482.566     5135898.126 5  10416835.959 1
  20221506.691   -17348509.762 7   2804970.241 1
  19800509.410   -24069221.224 7   1441779.313 2
 90 10 12 15 25 59.9960000  0  4 12 06 13 09
  20131488.957   -21677981.877 7 -15720905.758 2
  22395440.746     5188242.191 5  10457623.395 1
  20225755.246   -17326190.892 7   2822361.516 1
  19805058.566   -24045318.729 7   1460404.599 2
 90 10 12 15 26 14.9960000  0  4 12 06 13 09
  20126315.801   -21705169.223 7 -15742090.718 2
  22405415.840     5240647.464 5  10498458.522 1
  20230011.887   -17303825.046 7   2839789.395 1
  19809633.793   -24021265.381 7   1479147.426 2
 90 10 12 15 26 29.9960000  0  4 12 06 13 09
  20121168.574   -21732218.075 7 -15763167.758 2
  22415393.895     5293110.555 5  10539338.709 1
  20234276.730   -17281415.319 7   2857251.472 1
  19814238.082   -23997064.257 7   1498005.407 2
 90 10 12 15 26 44.9960000  0  4 12 06 13 09
  20116047.590   -21759129.335 7 -15784137.584 2
  22425391.777     5345630.029 5  10580262.837 1
  20238547.418   -17258963.216 7   2874746.562 1
  19818871.809   -23972716.728 7   1516977.469 2
 90 10 12 15 26 59.9960000  0  4 12 06 13 09
  20110951.731   -21785907.277 7 -15805003.521 2
  22435396.926     5398200.893 5  10621226.986 1
  20242827.324   -17236473.399 7   2892271.043 1
  19823535.465   -23948227.512 7   1536059.935 2
 90 10 12 15 27 14.9960000  0  4 12 06 13 09
  20105882.527   -21812549.722 7 -15825763.880 2
  22445405.402     5450824.858 5  10662232.548 1
  20247117.676   -17213944.003 7   2909826.361 1
  19828219.660   -23923594.992 7   1555254.065 2
 90 10 12 15 27 29.9960000  0  4 12 06 13 09
  20100839.731   -21839050.228 7 -15846413.637 2
  22455432.168     5503507.597 5  10703283.869 1
  20251411.598   -17191369.310 7   2927416.980 1
  19832936.293   -23898813.101 7   1574564.589 2
 90 10 12 15 27 44.9960000  0  4 12 06 13 09
  20095822.121   -21865413.387 7 -15866956.368 2
  22465467.457     5556244.047 5  10744377.067 1
  20255715.152   -17168754.222 7   2945039.069 1
  19837680.348   -23873886.961 7   1593987.517 2
 90 10 12 15 27 59.9960000  0  4 12 06 13 09
  20090831.316   -21891638.757 7 -15887391.734 2
  22475517.176     5609033.971 5  10785511.925 1
  20260024.660   -17146098.742 7   2962692.639 1
  19842451.168   -23848816.432 7   1613522.956 2
 90 10 12 15 28 14.9960000  0  4 12 06 13 09
  20085868.285   -21917724.645 7 -15907718.410 2
  22485573.371     5661878.357 5  10826689.215 1
  20264346.105   -17123402.029 7   2980378.336 1
  19847246.910   -23823600.716 7   1633171.525 2
 90 10 12 15 28 29.9960000  0  4 12 06 13 09
  20080930.777   -21943670.603 7 -15927936.053 2
  22495634.949     5714777.200 5  10867908.948 1
  20268671.824   -17100663.960 7   2998096.252 1
  19852076.074   -23798239.463 7   1652933.498 2
 90 10 12 15 28 44.9960000  0  4 12 06 13 09
  20076021.520   -21969471.008 7 -15948040.279 2
  22505716.355     5767735.454 5  10909174.963 1
  20273006.574   -17077879.489 7   3015850.337 1
  19856931.465   -23772727.598 7   1672812.832 2
 90 10 12 15 28 59.9960000  0  4 12 06 13 09
  20071138.918   -21995131.138 7 -15968035.197 2
  22515806.027     5820747.129 5  10950482.623 1
  20277351.449   -17055054.106 7   3033636.295 1
  19861812.504   -23747070.979 7   1692804.962 2
 90 10 12 15 29 14.9960000  0  4 12 06 13 09
  20066282.777   -22020647.293 7 -15987917.924 2
  22525902.637     5873815.427 5  10991834.382 1
  20281702.863   -17032184.535 7   3051456.688 1
  19866721.551   -23721266.400 7   1712912.382 2
 90 10 12 15 29 29.9960000  0  4 12 06 13 09
  20061453.410   -22046026.584 7 -16007694.016 2
  22536006.410     5926932.565 5  11033224.214 1
  20286062.895   -17009278.509 7   3069305.487 1
  19871658.184   -23695321.497 7   1733129.143 2
 90 10 12 15 29 44.9960000  0  4 12 06 13 09
  20056649.293   -22071270.251 7 -16027364.420 2
  22546123.793     5980096.744 5  11074650.691 1
  20290427.371   -16986337.798 7   3087181.315 1
  19876622.355   -23669237.844 7   1753454.023 2
 90 10 12 15 29 59.9960000  0  4 12 06 13 09
  20051872.566   -22096372.929 7 -16046924.968 2
  22556252.480     6033312.715 5  11116117.532 1
  20294799.004   -16963357.590 7   3105087.921 1
  19881614.551   -23643010.574 7   1773890.812 2
 90 10 12 15 30 14.9960000  0  4 12 06 13 09
  20047122.012   -22121332.712 7 -16066374.166 2
  22566389.543     6086581.853 5  11157625.797 1
  20299180.168   -16940336.235 7   3123026.582 1
  19886634.762   -23616638.252 7   1794440.630 2
 90 10 12 15 30 29.9960000  0  4 12 06 13 09
  20042399.418   -22146154.111 7 -16085715.538 2
  22576535.168     6139898.972 5  11199171.450 1
  20303568.699   -16917278.756 7   3140993.398 1
  19891679.434   -23590125.815 7   1815099.624 2
 90 10 12 15 30 44.9960000  0  4 12 06 13 09
  20037703.043   -22170833.016 7 -16104945.870 2
  22586695.332     6193267.513 5  11240757.150 1
  20307965.965   -16894181.769 7   3158990.993 1
  19896748.957   -23563469.801 7   1835870.502 2
 90 10 12 15 30 59.9960000  0  4 12 06 13 09
  20033034.715   -22195366.492 7 -16124062.885 2
  22596856.230     6246689.796 5  11282384.744 1
  20312367.020   -16871042.707 7   3177021.375 1
  19901853.293   -23536667.762 7   1856755.162 2
 90 10 12 15 31 14.9960000  0  4 12 06 13 09
  20028393.441   -22219760.059 7 -16143070.875 2
  22607030.129     6300159.803 5  11324049.538 1
  20316778.754   -16847867.576 7   3195079.860 1
  19906977.918   -23509725.712 7   1877748.922 2
 90 10 12 15 31 29.9960000  0  4 12 06 13 09
  20023778.621   -22244011.309 7 -16161967.975 2
  22617220.465     6353679.281 5  11365752.853 1
  20321193.918   -16824654.528 7   3213167.895 1
  19912133.520   -23482641.675 7   1898853.319 2
 90 10 12 15 31 44.9960000  0  4 12 06 13 09
  20019190.145   -22268122.621 7 -16180756.028 2
  22627415.957     6407245.188 5  11407492.368 1
  20325621.715   -16801406.205 7   3231283.416 1
  19917310.613   -23455418.460 7   1920066.171 2
 90 10 12 15 31 59.9960000  0  4 12 06 13 09
  20014628.363   -22292094.305 7 -16199435.280 2
  22637611.520     6460856.610 5  11449267.340 1
  20330049.020   -16778123.547 7   3249425.687 1
  19922520.137   -23428056.976 7   1941386.759 2
 90 10 12 15 32 14.9960000  0  4 12 06 13 09
  20010094.723   -22315920.665 7 -16218001.295 2
  22647824.801     6514518.782 5  11491081.842 1
  20334486.746   -16754801.405 7   3267598.728 1
  19927754.215   -23400552.013 7   1962819.152 2
 90 10 12 15 32 29.9960000  0  4 12 06 13 09
  20005586.434   -22339606.294 7 -16236457.647 2
  22658046.660     6568226.460 5  11532931.832 1
  20338933.832   -16731444.565 7   3285798.809 1
  19933011.254   -23372908.566 7   1984359.453 2
 90 10 12 15 32 44.9960000  0  4 12 06 13 09
  20001107.090   -22363149.566 7 -16254803.076 2
  22668275.746     6621980.732 5  11574818.104 1
  20343386.441   -16708052.031 7   3304026.701 1
  19938298.238   -23345125.316 7   2006008.692 2
 90 10 12 15 32 59.9960000  0  4 12 06 13 09
  19996655.481   -22386549.123 7 -16273036.517 2
  22678511.902     6675782.319 5  11616741.273 1
  20347842.863   -16684623.072 7   3322282.977 1
  19943612.981   -23317201.694 7   2027767.311 2
 90 10 12 15 33 14.9960000  0  4 12 06 13 09
  19992227.973   -22409808.439 7 -16291160.676 2
  22688761.027     6729627.054 5  11658698.023 1
  20352308.395   -16661161.481 7   3340564.681 1
  19948952.152   -23289141.490 7   2049632.355 2
 90 10 12 15 33 29.9960000  0  4 12 06 13 09
  19987828.793   -22432923.694 7 -16309172.584 2
  22699016.551     6783518.184 5  11700690.941 1
  20356779.230   -16637663.976 7   3358874.374 1
  19954318.379   -23260941.525 7   2071606.305 2
 90 10 12 15 33 44.9960000  0  4 12 06 13 09
  19983458.637   -22455897.962 7 -16327074.633 2
  22709278.262     6837451.990 5  11742717.125 1
  20361257.262   -16614134.057 7   3377209.321 1
  19959710.301   -23232605.346 7   2093686.395 2
 90 10 12 15 33 59.9960000  0  4 12 06 13 09
  19979112.949   -22478726.852 7 -16344863.397 2
  22719549.816     6891432.249 5  11784779.508 1
  20365740.981   -16590567.679 7   3395572.676 1
  19965131.270   -23204129.114 7   2115875.619 2
 90 10 12 15 34 14.9960000  0  4 12 06 13 09
  19974797.473   -22501412.535 7 -16362540.574 2
  22729831.910     6945456.369 5  11826876.053 1
  20370230.777   -16566967.466 7   3413962.403 1
  19970576.934   -23175515.427 7   2138171.951 2
 90 10 12 15 34 29.9960000  0  4 12 06 13 09
  19970507.426   -22523951.880 7 -16380103.720 2
  22740121.309     6999526.655 5  11869008.569 1
  20374731.356   -16543330.885 7   3432380.460 1
  19976047.504   -23146761.573 7   2160577.503 2
 90 10 12 15 34 44.9960000  0  4 12 06 13 09
  19966245.910   -22546349.186 7 -16397556.189 2
  22750417.981     7053638.427 5  11911173.405 1
  20379234.590   -16519662.687 7   3450823.162 1
  19981544.293   -23117872.440 7   2183088.468 2
 90 10 12 15 34 59.9960000  0  4 12 06 13 09
  19962010.527   -22568603.252 7 -16414897.042 2
  22760719.855     7107792.278 4  11953371.064 1
  20383744.176   -16495962.004 7   3469291.172 1
  19987069.887   -23088847.199 7   2205705.494 2
 90 10 12 15 35 14.9960000  0  4 12 06 13 09
  19957803.137   -22590711.676 7 -16432124.409 2
  22771034.184     7161989.884 5  11995602.787 1
  20388260.918   -16472226.941 7   3487785.968 1
  19992617.074   -23059684.033 7   2228429.983 2
 90 10 12 15 35 29.9960000  0  4 12 06 13 09
  19953626.535   -22612668.219 7 -16449233.426 2
  22781361.113     7216237.122 5  12037873.184 1
  20392784.770   -16448451.638 7   3506312.118 1
  19998195.191   -23030377.147 7   2251266.468 2
 90 10 12 15 35 44.9960000  0  4 12 06 13 09
  19949475.652   -22634477.921 7 -16466228.025 2
  22791689.715     7270528.221 5  12080177.757 1
  20397314.449   -16424641.742 7   3524865.224 1
  20003799.402   -23000931.864 7   2274210.796 2
 90 10 12 15 35 59.9960000  0  4 12 06 13 09
  19945351.973   -22656150.878 7 -16483116.066 2
  22802029.973     7324852.709 5
  20401851.481   -16400807.592 7   3543437.235 1
  20009424.855   -22971358.965 7   2297254.557 2
 90 10 12 15 36 14.9960000  0  4 12 06 13 09
  19941253.566   -22677678.455 7 -16499890.822 2
  22812371.543          -0.47514
  20406393.785   -16376940.906 7   3562034.598 1
  20015078.793   -22941650.184 7   2320404.207 2
 90 10 12 15 36 29.9960000  0  4 12 06 13 09
  19937184.738   -22699061.804 7 -16516553.194 2
  22822727.691       54404.945 5
  20410940.629   -16353043.393 7   3580655.982 1
  20020758.598   -22911807.196 7   2343658.430 2
 90 10 12 15 36 44.9960000  0  4 12 06 13 09
  19933147.871   -22720282.188 7 -16533088.579 2
  22833093.105      108868.039 4
  20415498.121   -16329096.719 7   3599315.675 1
  20026466.770   -22881811.786 7   2367031.429 2
 90 10 12 15 36 59.9960000  0  4 12 06 13 09
  19929138.410   -22741348.153 7 -16549503.639 2
  22843464.879      163379.748 4
  20420060.707   -16305109.872 7   3618006.675 1
  20032201.793   -22851673.047 7   2390516.107 2
 90 10 12 15 37 14.9960000  0  4 12 06 13 09
  19925157.918   -22762265.970 7 -16565803.254 2
  22853840.879      217933.244 4        -0.06511
  20424634.074   -16281089.535 7   3636723.764 1
  20037963.395   -22821397.690 7   2414107.244 2
 90 10 12 15 37 29.9960000  0  4 12 06 13 09
  19921205.754   -22783036.645 7 -16581988.218 2
  22864232.168      272526.877 4     42540.268 1
  20429210.926   -16257037.296 7   3655465.713 1
  20043749.277   -22790987.327 7   2437803.574 2
 90 10 12 15 37 44.9960000  0  4 12 06 13 09
  19917279.496   -22803665.994 7 -16598063.056 2
  22874629.465      327154.254 5     85106.882 1
  20433794.465   -16232959.330 7   3674227.706 1
  20049561.043   -22760448.081 7   2461600.339 2
 90 10 12 15 37 59.9960000  0  4 12 06 13 09
  19913381.863   -22824148.686 7 -16614023.614 2
  22885035.176      381820.175 5    127703.513 1
  20438379.434   -16208850.759 7   3693013.550 1
  20055399.285   -22729775.121 7   2485501.294 2
 90 10 12 15 38 14.9960000  0  4 12 06 13 09
  19909514.004   -22844478.775 7 -16629865.260 2
  22895449.543      436530.120 5    170334.444 1
  20442973.277   -16184705.837 7   3711827.719 1
  20061262.402   -22698962.959 7   2509510.713 2
 90 10 12 15 38 29.9960000  0  4 12 06 13 09
  19905673.105   -22864660.913 7 -16645591.621 2
  22905863.449      491278.820 5    212995.590 1
  20447575.363   -16160529.690 7   3730666.211 1
  20067149.660   -22668016.798 7   2533624.554 2
 90 10 12 15 38 44.9960000  0  4 12 06 13 09
  19901861.723   -22884690.271 7 -16661198.925 2
  22916288.574      546070.606 4    255690.285 1
  20452182.246   -16136317.954 7   3749532.438 1
  20073066.551   -22636932.218 7   2557846.256 2
 90 10 12 15 38 59.9960000  0  4 12 06 13 09
  19898078.934   -22904566.098 7 -16676686.597 2
  22926721.902      600905.537 4    298418.660 1
  20456797.238   -16112070.339 7   3768426.617 1
  20079006.231   -22605708.952 7   2582176.021 2
 90 10 12 15 39 14.9960000  0  4 12 06 13 09
  19894324.981   -22924294.990 7 -16692059.786 2
  22937164.801      655776.460 4    341175.022 1
  20461418.043   -16087794.115 7   3787343.094 1
  20084974.934   -22574354.176 7   2606608.260 2
 90 10 12 15 39 29.9960000  0  4 12 06 13 09
  19890598.801   -22943876.177 7 -16707317.867 2
  22947615.652      710683.644 4    383959.654 1
  20466040.715   -16063488.794 7   3806282.245 1
  20090966.285   -22542867.579 7   2631143.215 2
 90 10 12 15 39 44.9960000  0  4 12 06 13 09
  19886900.035   -22963313.539 7 -16722463.882 2
  22958072.902      765622.588 4    426769.016 1
  20470672.887   -16039158.519 7   3825240.835 1
  20096980.754   -22511253.458 7   2655777.541 2
 90 10 12 15 39 59.9960000  0  4 12 06 13 09
  19883230.449   -22982602.620 7 -16737494.353 2
  22968532.988      820597.215 4    469606.191 1
  20475307.621   -16014799.312 7   3844221.975 1
  20103021.512   -22479507.972 7   2680514.230 2
 90 10 12 15 40 14.9960000  0  4 12 06 13 09
  19879588.520   -23001736.367 7 -16752403.782 2
  22979003.199      875614.014 5    512476.226 1
  20479948.746   -15990404.513 7   3863230.847 1
  20109089.684   -22447624.389 7   2705358.527 2
 90 10 12 15 40 29.9960000  0  4 12 06 13 09
  19875976.832   -23020718.230 7 -16767194.866 2
  22989477.332      930668.981 5    555376.009 1
  20484597.848   -15965977.730 7   3882264.643 1
  20115183.996   -22415606.779 7   2730307.260 2
 90 10 12 15 40 44.9960000  0  4 12 06 13 09
  19872393.598   -23039551.006 7 -16781869.775 2
  22999966.113      985758.840 5    598303.013 1
  20489250.926   -15941522.331 7   3901320.734 1
  20121302.191   -22383458.285 7   2755357.979 2
 90 10 12 15 40 59.9960000  0  4 12 06 13 09
  19868837.598   -23058236.723 7 -16796430.095 2
  23010452.160     1040880.882 4    641255.063 1
  20493910.949   -15917040.765 7   3920397.221 1
  20127442.457   -22351181.604 7   2780508.583 2
 90 10 12 15 41 14.9960000  0  4 12 06 13 09
  19865308.590   -23076777.518 7 -16810877.489 2
  23020947.746     1096032.569 4    684230.228 1
  20498573.004   -15892535.551 7   3939492.129 1
  20133607.965   -22318779.140 7   2805757.202 2
 90 10 12 15 41 29.9960000  0  4 12 06 13 09
  19861810.012   -23095165.895 7 -16825206.117 2
  23031447.699     1151220.905 4    727233.921 1
  20503242.762   -15867999.588 7   3958610.997 1
  20139799.324   -22286243.902 7   2831109.278 2
 90 10 12 15 41 44.9960000  0  4 12 06 13 09
  19858339.512   -23113398.260 7 -16839413.174 2
  23041955.191     1206448.646 3    770268.322 1
  20507917.106   -15843429.744 7   3977756.274 1
  20146017.270   -22253572.815 7   2856567.208 2
 90 10 12 15 41 59.9960000  0  4 12 06 13 09
  19854899.926   -23131483.516 7 -16853505.605 2
  23052475.512     1261706.434 4    813326.140 1
  20512599.176   -15818835.187 7   3996920.799 1
  20152259.715   -22220775.488 7   2882123.515 2
 90 10 12 15 42 14.9960000  0  4 12 06 13 09
  19851484.871   -23149421.014 7 -16867482.898 2
  23062993.871     1316994.468 4    856407.543 1
  20517283.629   -15794215.933 7   4016104.572 1
  20158523.035   -22187851.382 7   2907778.607 2
 90 10 12 15 42 29.9960000  0  4 12 06 13 09
  19848101.223   -23167207.481 7 -16881342.506 2
  23073518.379     1372315.523 4    899514.638 1
  20521971.824   -15769568.991 7   4035309.923 1
  20164813.965   -22154797.949 7   2933534.475 2
 90 10 12 15 42 44.9960000  0  4 12 06 13 09
  19844744.605   -23184845.392 7 -16895086.357 2
  23084054.043     1427666.452 4    942645.038 1
  20526668.801   -15744896.932 7   4054534.845 1
  20171126.645   -22121617.963 7   2959388.953 2
 90 10 12 15 42 59.9960000  0  4 12 06 13 09
  19841415.371   -23202338.082 7 -16908717.045 2
  23094589.871     1483043.429 4    985795.729 1
  20531367.613   -15720203.630 7   4073776.312 1
  20177465.863   -22088315.407 7   2985338.938 2
 90 10 12 15 43 14.9960000  0  4 12 06 13 09
  19838116.309   -23219676.285 7 -16922227.348 2
  23105135.363     1538455.177 4   1028973.512 1
  20536072.527   -15695480.399 7   4093041.114 1
  20183827.004   -22054881.375 7   3011391.373 2
 90 10 12 15 43 29.9960000  0  4 12 06 13 09
  19834844.410   -23236869.089 7 -16935624.359 2
  23115683.051     1593892.112 4   1072170.914 1
  20540781.277   -15670736.389 7   4112322.098 1
  20190211.848   -22021325.544 7   3037538.718 2
 90 10 12 15 43 44.9960000  0  4 12 06 13 09
  19831601.606   -23253908.424 7 -16948901.783 2
  23126244.676     1649361.716 5   1115393.773 1
  20545494.387   -15645964.223 7   4131625.024 1
  20196623.332   -21987640.288 7   3063786.911 2
 90 10 12 15 43 59.9960000  0  4 12 06 13 09
  19828388.145   -23270796.151 7 -16962061.067 2
  23136801.293     1704861.795 4   1158640.418 1
  20550211.770   -15621165.887 7   4150948.346 1
  20203058.895   -21953827.906 7   3090134.167 2
 90 10 12 15 44 14.9960000  0  4 12 06 13 09
  19825202.957   -23287537.322 7 -16975106.151 2
  23147372.262     1760386.485 4   1201906.186 1
  20554936.090   -15596346.881 7   4170287.766 1
  20209513.801   -21919893.933 7   3116576.166 2
 90 10 12 15 44 29.9960000  0  4 12 06 13 09
  19822046.199   -23304125.658 7 -16988032.147 2
  23157945.270     1815941.637 4   1245195.690 1
  20559663.793   -15571501.200 7   4189647.978 1
  20215997.223   -21885832.564 7   3143117.434 2
 90 10 12 15 44 44.9960000  0  4 12 06 13 09
  19818916.824   -23320563.978 7 -17000841.247 2
  23168522.676     1871523.937 5   1288506.305 1
  20564397.668   -15546632.111 7   4209026.426 1
  20222501.473   -21851647.154 7   3169755.357 2
 90 10 12 15 44 59.9960000  0  4 12 06 13 09
  19815818.254   -23336851.461 7 -17013532.813 2
  23179100.309     1927133.582 4   1331838.304 1
  20569135.043   -15521739.359 7   4228423.321 1
  20229030.285   -21817337.383 7   3196490.187 2
 90 10 12 15 45 14.9960000  0  4 12 06 13 09
  19812748.199   -23352989.927 7 -17026108.261 2
  23189689.231     1982768.002 4   1375189.617 1
  20573876.895   -15496825.058 7   4247837.009 1
  20235582.332   -21782905.541 7   3223320.136 2
 90 10 12 15 45 29.9960000  0  4 12 06 13 09
  19809704.598   -23368976.595 7 -17038565.424 2
  23200282.504     2038429.810 4   1418562.210 1
  20578620.277   -15471886.701 7   4267269.433 1
  20242158.215   -21748349.203 7   3250247.096 2
 90 10 12 15 45 44.9960000  0  4 12 06 13 09
  19806691.816   -23384811.215 7 -17050904.103 2
  23210878.684     2094118.907 4   1461956.113 1
  20583371.473   -15446924.345 7   4286720.565 1
  20248758.410   -21713668.557 7   3277270.915 2
 90 10 12 15 45 59.9960000  0  4 12 06 13 09
  19803708.215   -23400488.809 7 -17063120.431 2
  23221481.488     2149839.535 3   1505374.567 1
  20588126.770   -15421933.211 7   4306194.119 1
  20255381.816   -21678859.087 7   3304395.121 2
 90 10 12 15 46 14.9960000  0  4 12 06 13 09
  19800755.137   -23416013.967 7 -17075217.978 2
  23232092.988     2205586.591 4   1548813.650 1
  20592886.137   -15396918.324 7   4325686.176 1
  20262029.106   -21643925.896 7   3331615.736 2
 90 10 12 15 46 29.9960000  0  4 12 06 13 09
  19797829.012   -23431385.639 7 -17087195.922 2
  23242702.254     2261360.525 4   1592273.579 1
  20597652.910   -15371879.092 7   4345197.202 1
  20268701.543   -21608868.414 7   3358933.198 2
 90 10 12 15 46 44.9960000  0  4 12 06 13 09
  19794932.566   -23446606.084 7 -17099056.026 2
  23253322.434     2317158.786 4   1635752.498 1
  20602420.301   -15346817.986 7   4364725.271 1
  20275395.887   -21573689.311 7   3386345.424 2
 90 10 12 15 46 59.9960000  0  4 12 06 13 09
  19792064.871   -23461682.785 7 -17110804.122 2
  23263944.410     2372973.247 3   1679244.114 1
  20607192.371   -15321742.858 7   4384264.277 1
  20282111.527   -21538396.647 7   3413846.142 2
 90 10 12 15 47 14.9960000  0  4 12 06 13 09
  19789225.004   -23476601.350 7 -17122428.997 2
  23274571.488     2428817.644 3   1722758.982 1
  20611969.871   -15296639.668 7   4403825.142 1
  20288851.832   -21502976.472 7   3441446.225 2
 90 10 12 15 47 29.9960000  0  4 12 06 13 09
  19786416.543   -23491362.037 7 -17133930.850 2
  23285201.301     2484691.152 4   1766296.514 1
  20616751.199   -15271509.291 7   4423407.190 1
  20295616.215   -21467429.608 7   3469145.020 2
 90 10 12 15 47 44.9960000  0  4 12 06 13 09
  19783635.059   -23505978.358 7 -17145320.209 2
  23295835.574     2540580.127 3   1809846.167 1
  20621537.527   -15246365.299 7   4442999.852 1
  20302401.199   -21431769.971 7   3496931.693 2
 90 10 12 15 47 59.9960000  0  4 12 06 13 09
  19780883.402   -23520438.338 7 -17156587.741 2
  23306478.020     2596495.747 3   1853416.569 1
  20626324.637   -15221196.271 7   4462612.022 1
  20309210.410   -21395985.998 7   3524815.247 2
 90 10 12 15 48 14.9960000  0  4 12 06 13 09
  19778160.988   -23534742.653 7 -17167733.979 2
  23317123.316     2652436.951 3   1897006.845 1
  20631120.527   -15196002.980 7   4482243.101 1
  20316043.777   -21360078.708 7   3552794.895 2
 90 10 12 15 48 29.9960000  0  4 12 06 13 09
  19775468.332   -23548898.395 7 -17178764.452 2
  23327770.941     2708396.227 3   1940611.256 1
  20635917.832   -15170792.856 7   4501887.293 1
  20322899.434   -21324055.807 7   3580864.625 2
 90 10 12 15 48 44.9960000  0  4 12 06 13 09
  19772803.004   -23562901.625 7 -17189676.081 2
  23338425.379     2764377.040 3   1984232.447 1
  20640718.293   -15145562.306 7   4521547.404 1
  20329777.512   -21287913.754 7   3609027.205 2
 90 10 12 15 48 59.9960000  0  4 12 06 13 09
  19770166.176   -23576755.085 7 -17200471.002 2
  23349081.606     2820375.940 3   2027867.708 1
  20645522.613   -15120314.333 7   4541221.087 1
  20336676.957   -21251655.910 7   3637280.009 2
 90 10 12 15 49 14.9960000  0  4 12 06 13 09
  19767560.418   -23590447.795 7 -17211140.669 2
  23359746.848     2876403.400 4   2071525.230 1
  20650332.879   -15095038.437 7   4560916.531 1
  20343600.020   -21215271.704 7   3665631.277 2
 90 10 12 15 49 29.9960000  0  4 12 06 13 09
  19764985.223   -23603987.121 7 -17221690.818 2
  23370415.918     2932451.684 3   2115198.966 1
  20655147.004   -15069742.366 7   4580627.695 1
  20350546.520   -21178768.824 7   3694075.019 2
 90 10 12 15 49 44.9960000  0  4 12 06 13 09
  19762436.629   -23617375.809 7 -17232123.579 2
  23381081.684     2988517.498 3   2158886.350 1
  20659963.762   -15044429.031 7   4600352.311 1
  20357516.293   -21142150.600 7   3722608.636 2
 90 10 12 15 49 59.9960000  0  4 12 06 13 09
  19759918.270   -23630612.143 7 -17242437.628 2
  23391752.965     3044601.991 3   2202588.364 1
  20664784.340   -15019097.096 7   4620091.427 1
  20364506.254   -21105415.796 7   3751233.096 2
 90 10 12 15 50 14.9960000  0  4 12 06 13 09
  19757428.871   -23643692.966 7 -17252630.505 2
  23402428.199     3100707.957 2   2246307.069 1
  20669608.887   -14993743.657 7   4639847.295 1
  20371518.715   -21068561.681 7   3779950.524 2
 90 10 12 15 50 29.9960000  0  4 12 06 13 09
  19754969.723   -23656617.573 7 -17262701.642 2
  23413112.934     3156835.740 3   2290042.706 1
  20674437.590   -14968368.485 7   4659620.096 1
  20378555.395   -21031587.896 7   3808761.203 2
 90 10 12 15 50 44.9960000  0  4 12 06 13 09
  19752538.582   -23669391.748 7 -17272655.567 2
  23423797.043     3212978.775 3   2333790.321 1
  20679270.504   -14942977.604 7   4679405.145 1
  20385612.574   -20994500.880 7   3837660.111 2
 90 10 12 15 50 59.9960000  0  4 12 06 13 09
  19750136.824   -23682014.715 7 -17282491.668 2
  23434483.402     3269137.719 3
  20684105.660   -14917570.642 7   4699202.711 1
  20392691.660   -20957300.293 7   3866647.517 2
 90 10 12 15 51 14.9960000  0  4 12 06 13 09
  19747762.715   -23694489.912 7 -17292212.625 2
  23445169.973     3325308.201 3
  20688942.629   -14892151.183 7   4719010.023 1
  20399792.152   -20919989.998 7   3895720.409 2
 90 10 12 15 51 29.9960000  0  4 12 06 13 09
  19745416.191   -23706814.468 7 -17301816.197 2
  23455855.910     3381492.749 2
  20693784.285   -14866716.763 7   4738828.993 1
  20406911.902   -20882567.494 7   3924880.735 2
 90 10 12 15 51 44.9960000  0  4 12 06 13 09
  19743101.559   -23718983.803 7 -17311298.815 2
  23466561.730     3437695.542 3
  20698624.777   -14841262.935 7   4758663.089 1
  20414055.691   -20845028.609 7   3954131.749 2
 90 10 12 15 51 59.9960000  0  4 12 06 13 09
  19740815.902   -23730999.131 7 -17320661.432 3
  23477251.348     3493915.001 2        -0.09411
  20703474.012   -14815791.436 7   4778510.946 1
  20421221.207   -20807375.245 7   3983471.968 2
 90 10 12 15 52 14.9960000  0  4 12 06 13 09
  19738557.699   -23742862.123 7 -17329905.341 2
  23487955.543     3550148.950 3
  20708324.106   -14790304.071 7   4798371.165 1
  20428407.723   -20769609.352 7   4012899.869 2
 90 10 12 15 52 29.9960000  0  4 12 06 13 09
  19736328.684   -23754575.081 7 -17339032.342 3
  23498657.129     3606394.347 4
  20713177.066   -14764803.329 7   4818241.815 1
  20435613.363   -20731733.654 7   4042413.331 2
 90 10 12 15 52 44.9960000  0  5 20 12 06 13 09
  23433714.738      -54850.492 4
  19734130.066   -23766132.452 7 -17348038.104 2
  23509365.145     3662656.538 3
  20718031.809   -14739284.068 7   4838126.887 1
  20442843.871   -20693743.111 7   4072016.288 2
 90 10 12 15 52 59.9960000  0  5 20 12 06 13 09
  23423272.738     -109726.770 5
  19731955.926   -23777550.470 7 -17356935.282 2
  23520075.340     3718918.828 3
  20722889.184   -14713762.818 7   4858013.514 1
  20450092.926   -20655654.463 7   4101695.686 2
 90 10 12 15 53 14.9960000  0  5 20 12 06 13 09
  23412833.606     -164609.572 5
  19729814.324   -23788809.634 7 -17365708.677 2
  23530785.316     3775200.160 3
  20727750.035   -14688220.478 7   4877916.565 1
  20457364.379   -20617448.557 7   4131466.452 2
 90 10 12 15 53 29.9960000  0  5 20 12 06 13 09
  23402382.356     -219501.151 4
  19727701.621   -23799912.448 7 -17374360.243 2
  23541493.426          -0.46412
  20732614.254   -14662659.567 7   4897834.098 1
  20464655.090   -20579128.452 7   4161326.207 2
 90 10 12 15 53 44.9960000  0  5 20 12 06 13 09
  23391937.473     -274404.903 4
  19725617.035   -23810862.312 7 -17382892.624 2
  23552209.996       56309.059 3
  20737480.379   -14637083.923 7   4917763.095 1
  20471969.191   -20540697.993 7   4191271.952 2
 90 10 12 15 53 59.9960000  0  5 20 12 06 13 09
  23381485.559     -329315.586 4
  19723564.082   -23821653.966 7 -17391301.733 2
  23562928.832      112635.460 3
  20742351.340   -14611488.571 7   4937707.453 1
  20479302.535   -20502152.303 7   4221307.489 2
 90 10 12 15 54 14.9960000  0  4 20 12 13 09
  23371036.387     -384229.441 4
  19721541.551   -23832283.919 7 -17399584.834 2
  20747225.605   -14585870.436 7   4957669.575 1
  20486660.824   -20463488.605 7   4251434.982 2
 90 10 12 15 54 29.9960000  0  4 20 12 13 09
  23360585.106     -439155.457 5
  19719547.762   -23842761.144 7 -17407748.928 2
  20752103.199   -14560238.794 7   4977642.211 1
  20494038.332   -20424715.966 7   4281647.353 2
 90 10 12 15 54 44.9960000  0  4 20 12 13 09
  23350126.559     -494090.152 3
  19717583.660   -23853082.155 7 -17415791.301 2
  20756985.473   -14534590.115 7   4997628.125 1
  20501438.957   -20385831.416 7   4311946.932 2
 90 10 12 15 54 59.9960000  0  4 20 12 13 09
  23339675.113     -549035.584 4        -0.14011
  19715649.043   -23863249.130 7 -17423713.642 2
  20761869.402   -14508927.133 7   5017625.180 1
  20508858.645   -20346837.669 7   4342331.597 2
 90 10 12 15 55 14.9960000  0  4 20 12 13 09
  23329218.957     -603997.237 4    -42827.446 1
  19713742.020   -23873267.775 7 -17431520.399 2
  20766752.926   -14483255.646 7   5037628.854 1
  20516299.090   -20307740.748 7   4372796.665 2
 90 10 12 15 55 29.9960000  0  4 20 12 13 09
  23318753.238     -658970.402 4    -85663.728 1
  19711865.746   -23883133.242 7 -17439207.803 2
  20771641.356   -14457571.368 7   5057642.496 1
  20523759.457   -20268536.480 7   4403345.370 2
 90 10 12 15 55 44.9960000  0  4 20 12 13 09
  23308293.441     -713949.254 4   -128504.447 1
  19710018.371   -23892839.703 7 -17446771.300 2
  20776533.059   -14431868.547 7   5077670.593 1
  20531240.941   -20229219.404 7   4433981.977 2
 90 10 12 15 55 59.9960000  0  4 20 12 13 09
  23297822.066     -768951.827 4   -171363.643 1
  19708197.606   -23902405.396 7 -17454225.107 2
  20781425.191   -14406165.596 7   5097698.792 1
  20538740.559   -20189808.142 7   4464691.986 2
 90 10 12 15 56 14.9960000  0  4 20 12 13 09
  23287357.543     -823965.643 5   -214231.550 1
  19706405.855   -23911818.002 7 -17461559.630 2
  20786315.410   -14380450.411 7   5117736.519 1
  20546261.332   -20150290.888 7   4495484.576 2
 90 10 12 15 56 29.9960000  0  4 20 12 13 09
  23276886.981     -878973.534 4   -257094.927 1
  19704647.059   -23921060.464 7 -17468761.571 2
  20791215.223   -14354706.393 7   5137796.720 1
  20553803.902   -20110650.888 7   4526372.816 2
 90 10 12 15 56 44.9960000  0  4 20 12 13 09
  23266417.418     -933986.381 5   -299962.101 1
  19702919.777   -23930143.814 7 -17475839.529 3
  20796116.449   -14328944.581 7   5157870.769 1
  20561368.559   -20070899.526 7   4557347.833 2
 90 10 12 15 56 59.9960000  0  4 20 12 13 09
  23255957.301     -989003.312 5   -342832.492 1
  19701221.629   -23939067.086 7 -17482792.748 2
  20801023.668   -14303164.326 7   5177959.200 1
  20568954.551   -20031036.384 7   4588409.947 2
 90 10 12 15 57 14.9960000  0  4 20 12 13 09
  23245478.395    -1044025.484 4   -385706.942 1
  19699553.309   -23947831.354 7 -17489622.067 2
  20805934.981   -14277366.944 7   5198060.974 1
  20576560.715   -19991063.047 7   4619557.930 2
 90 10 12 15 57 29.9960000  0  4 20 12 13 09
  23235007.441    -1099060.347 5   -428591.327 1
  19697914.840   -23956444.465 7 -17496333.601 3
  20810843.504   -14251560.622 7   5218169.715 1
  20584188.043   -19950987.698 7   4650785.406 2
 90 10 12 15 57 44.9960000  0  4 20 12 13 09
  23224534.152    -1154107.009 5   -471484.875 1
  19696304.520   -23964905.778 7 -17502926.856 3
  20815756.199   -14225744.893 7   5238285.788 1
  20591832.809   -19910810.225 7   4682092.452 1
 90 10 12 15 57 59.9960000  0  4 20 12 13 09
  23214064.957    -1209153.394 5   -514378.162 1
  19694725.176   -23973203.350 7 -17509392.514 3
  20820674.223   -14199907.663 7   5258418.616 1
  20599500.020   -19870518.984 7   4713488.153 2
 90 10 12 15 58 14.9960000  0  4 20 12 13 09
  23203587.020    -1264212.850 5   -557281.698 1
  19693176.105   -23981350.451 7 -17515740.926 2
  20825589.598   -14174062.787 7   5278557.410 1
  20607187.434   -19830127.758 7   4744961.765 1
 90 10 12 15 58 29.9960000  0  4 20 12 13 09
  23193102.973    -1319282.249 5   -600192.971 1
  19691654.176   -23989343.810 7 -17521969.539 2
  20830511.457   -14148207.538 7   5298704.277 1
  20614891.816   -19789633.782 7   4776515.439 2
 90 10 12 15 58 44.9960000  0  4 20 12 13 09
  23182620.840    -1374357.163 5   -643108.539 1
  19690162.887   -23997179.370 7 -17528075.191 2
  20835434.301   -14122337.681 7   5318862.525 1
  20622619.457   -19749033.274 7   4808152.122 2
 90 10 12 15 58 59.9950000  0  4 20 12 13 09
  23172139.624    -1429435.010 5   -686026.397 1
  19688701.663   -24004857.985 7 -17534058.544 2
  20840358.046   -14096456.638 7   5339029.491 1
  20630361.905   -19708330.785 7   4839868.280 2
 90 10 12 15 59 14.9950000  0  4 20 12 13 09
  23161657.983    -1484526.944 5   -728955.233 1
  19687270.030   -24012384.375 7 -17539923.286 3
  20845287.093   -14070565.054 7   5359204.681 1
  20638129.772   -19667525.116 7   4871664.828 2
 90 10 12 15 59 29.9950000  0  4 20 12 13 09
  23151175.554    -1539623.815 5   -771887.898 1
  19685866.812   -24019752.755 7 -17545664.898 2
  20850216.171   -14044659.463 7   5379390.781 1
  20645914.819   -19626613.965 7   4903543.572 1
 90 10 12 15 59 44.9950000  0  4 20 12 13 09
  23140685.796    -1594728.685 5   -814826.811 1
  19684496.507   -24026966.332 8 -17551285.890 2
  20855148.640   -14018743.365 7   5399585.058 1
  20653718.226   -19585601.065 7   4935501.603 2
 90 10 12 15 59 59.9950000  0  4 20 12 13 09
  23130196.866    -1649840.181 5   -857770.909 1
  19683152.390   -24034023.752 7 -17556785.197 2
  20860081.437   -13992815.454 7   5419788.557 1
  20661542.390   -19544485.518 7   4967539.616 1
 90 10 12 16  0 14.9950000  0  4 20 12 13 09
  23119714.093    -1704961.659 5   -900722.737 1
  19681836.897   -24040928.529 7 -17562165.567 3
  20865015.483   -13966879.456 7   5439998.345 1
  20669385.960   -19503271.239 7   4999654.563 2
 90 10 12 16  0 29.9950000  0  4 20 12 13 09
  23109215.655    -1760094.170 5   -943683.206 1
  19680553.382   -24047681.902 8 -17567427.955 2
  20869952.952   -13940936.806 7   5460213.320 1
  20677247.249   -19461959.758 7   5031845.256 1
 90 10 12 16  0 44.9950000  0  4 20 12 13 09
  23098727.765    -1815237.894 5   -986652.394 1
  19679296.991   -24054284.260 7 -17572572.672 2
  20874892.233   -13914988.215 7   5480432.925 1
  20685126.382   -19420552.047 7   5064110.931 2
 90 10 12 16  0 59.9950000  0  4 20 12 13 09
  23088229.765    -1870389.427 5  -1029627.700 1
  19678069.585   -24060732.089 7 -17577596.977 3
  20879831.444   -13889030.430 7   5500659.695 1
  20693025.632   -19379044.891 7   5096454.091 2
 90 10 12 16  1 14.9950000  0  4 20 12 13 09
  23077737.929    -1925550.085 5  -1072610.053 1
  19676872.468   -24067026.874 7 -17582502.029 3
  20884773.265   -13863065.334 7   5520892.162 1
  20700942.499   -19337440.429 7   5128873.083 1
 90 10 12 16  1 29.9950000  0  4 20 12 13 09
  23067239.616    -1980717.098 5  -1115597.425 1
  19675704.257   -24073166.212 7 -17587285.949 3
  20889716.913   -13837090.475 7   5541132.234 1
  20708879.351   -19295736.476 7   5161369.594 1
 90 10 12 16  1 44.9950000  0  4 20 12 13 09
  23056738.351    -2035889.280 5  -1158588.801 1
  19674564.749   -24079148.970 7 -17591947.861 3
  20894660.226   -13811104.952 7   5561380.621 1
  20716833.476   -19253932.235 7   5193944.256 1
 90 10 12 16  1 59.9950000  0  4 20 12 13 09
  23046235.116    -2091064.296 5  -1201582.380 1
  19673457.007   -24084972.703 7 -17596485.862 2
  20899607.444   -13785106.488 7   5581639.092 1
  20724808.765   -19212025.868 7   5226598.494 2
 90 10 12 16  2 14.9950000  0  4 20 12 13 09
  23035735.866    -2146246.326 5  -1244581.397 1
  19672378.530   -24090641.918 7 -17600903.456 3
  20904556.944   -13759099.805 7   5601903.964 1
  20732801.132   -19170022.093 7   5259328.637 1
 90 10 12 16  2 29.9950000  0  4 20 12 13 09
  23025241.640    -2201436.671 5  -1287586.906 1
  19671327.671   -24096158.293 7 -17605201.952 3
  20909507.858   -13733086.704 7   5622173.838 1
  20740811.780   -19127923.106 7   5292132.959 1
 90 10 12 16  2 44.9950000  0  4 20 12 13 09
  23014728.069    -2256634.833 5  -1330598.526 1
  19670308.327   -24101521.431 7 -17609381.044 3
  20914458.522   -13707066.867 7   5642448.969 1
  20748841.757   -19085728.944 7   5325011.457 1
 90 10 12 16  2 59.9950000  0  4 20 12 13 09
  23004229.023    -2311833.420 5  -1373610.449 1
  19669317.866   -24106723.798 7 -17613434.862 3
  20919413.944   -13681033.328 7   5662734.767 1
  20756889.780   -19043432.410 6   5357969.725 1
 90 10 12 16  3 14.9950000  0  4 20 12 13 09
  22993719.804    -2367043.386 5  -1416631.256 1
  19668356.273   -24111776.536 7 -17617372.083 3
  20924367.046   -13654997.214 7   5683022.577 1
  20764957.632   -19001045.206 7   5390998.643 1
 90 10 12 16  3 29.9950000  0  4 20 12 13 09
  22983217.515    -2422257.255 5  -1459655.065 1
  19667424.601   -24116672.553 7 -17621187.186 3
  20929325.585   -13628951.643 7   5703317.754 1
  20773041.241   -18958560.552 6   5424103.493 1
 90 10 12 16  3 44.9950000  0  4 20 12 13 09
  22972706.608    -2477479.931 5  -1502685.771 1
  19666522.241   -24121416.712 7 -17624883.955 3
  20934276.827   -13602901.656 7   5723616.361 1
  20781143.655   -18915983.924 6   5457280.016 1
 90 10 12 16  3 59.9950000  0  4 20 12 13 09
  22962195.960    -2532706.434 5  -1545719.440 1
  19665648.616   -24126004.481 7 -17628458.867 2
  20939240.468   -13576842.863 7   5743921.844 1
  20789263.819   -18873310.952 6   5490531.607 1
 90 10 12 16  4 14.9950000  0  4 20 12 13 09
  22951687.030    -2587941.745 5  -1588759.972 1
  19664803.827   -24130440.718 7 -17631915.700 3
  20944200.538   -13550780.562 7   5764230.054 1
  20797402.296   -18830547.031 6   5523854.066 1
 90 10 12 16  4 29.9950000  0  4 20 12 13 09
  22941174.077    -2643177.416 5  -1631800.792 1
  19663991.773   -24134717.124 7 -17635247.988 2
  20949160.288   -13524706.298 7   5784547.591 1
  20805558.577   -18787684.115 6   5557253.668 1
 90 10 12 16  4 44.9950000  0  4 20 12 13 09
  22930663.202    -2698419.501 5  -1674846.598 1
  19663206.765   -24138839.893 7 -17638460.561 3
  20954124.273   -13498626.639 7   5804869.327 1
  20813733.444   -18744728.941 6   5590725.155 1
 90 10 12 16  4 59.9950000  0  4 20 12 13 09
  22920143.897    -2753670.126 5  -1717899.076 1
  19662451.608   -24142811.602 8 -17641555.427 3
  20959088.280   -13472544.008 7   5825193.388 1
  20821923.952   -18701684.327 6   5624266.333 1
 90 10 12 16  5 14.9950000  0  4 20 12 13 09
  22909635.632    -2808923.909 5  -1760953.960 1
  19661725.710   -24146626.930 8 -17644528.436 3
  20964051.452   -13446453.505 7   5845523.573 1
  20830133.233   -18658545.493 6   5657880.934 1
 90 10 12 16  5 29.9950000  0  4 20 12 13 09
  22899120.187    -2864186.673 5  -1804015.910 1
  19661027.366   -24150291.813 8 -17647384.215 3
  20969018.444   -13420361.277 7   5865855.108 1
  20838358.788   -18615318.661 6   5691564.103 1
 90 10 12 16  5 44.9950000  0  4 20 12 13 09
  22888598.648    -2919451.613 5  -1847079.531 1
  19660360.796   -24153799.589 7 -17650117.572 3
  20973983.515   -13394260.674 7   5886193.170 1
  20846603.155   -18571997.553 6   5725320.730 1
 90 10 12 16  5 59.9950000  0  4 20 12 13 09
  22878086.726    -2974719.555 5  -1890145.481 1
  19659721.780   -24157151.302 7 -17652729.323 3
  20978955.452   -13368152.778 7   5906536.920 1
  20854864.296   -18528583.797 6   5759149.550 1
 90 10 12 16  6 14.9950000  0  4 20 12 13 09
  22867563.358    -3029997.259 5  -1933219.039 1
  19659112.530   -24160354.071 7 -17655225.012 3
  20983918.585   -13342044.989 7   5926880.577 1
  20863141.741   -18485084.684 6   5793044.887 1
 90 10 12 16  6 29.9950000  0  4 20 12 13 09
  22857043.069    -3085277.753 5  -1976294.779 1
  19658532.272   -24163400.992 7 -17657599.264 2
  20988892.671   -13315930.719 7   5947229.282 1
  20871436.398   -18441493.861 6   5827011.677 1
 90 10 12 16  6 44.9950000  0  4 20 12 13 09
  22846524.476    -3140558.530 5  -2019370.722 1
  19657983.140   -24166289.682 7 -17659850.218 3
  20993860.523   -13289807.527 7   5967584.942 1
  20879751.491   -18397809.231 6   5861051.567 1
 90 10 12 16  6 59.9950000  0  4 20 12 13 09
  22836008.241    -3195842.227 5  -2062448.943 1
  19657462.413   -24169023.035 7 -17661980.131 3
  20998835.007   -13263678.786 7   5987944.931 1
  20888078.562   -18354034.214 6   5895161.884 1
 90 10 12 16  7 14.9950000  0  4 20 12 13 09
  22825481.382    -3251131.078 5  -2105531.202 1
  19656972.601   -24171603.238 8 -17663990.706 3
  21003805.819   -13237546.644 7   6008307.576 1
  20896427.147   -18310171.329 6   5929340.673 1
 90 10 12 16  7 29.9950000  0  4 20 12 13 09
  22814965.280    -3306425.268 5  -2148617.580 1
  19656510.327   -24174030.891 7 -17665882.417 2
  21008780.843   -13211411.878 7   6028672.248 1
  20904790.937   -18266221.526 6   5963587.187 1
 90 10 12 16  7 44.9950000  0  4 20 12 13 09
  22804444.382    -3361723.132 5  -2191706.852 1
  19656077.757   -24176304.434 7 -17667654.038 3
  21013754.562   -13185273.174 7   6049039.993 1
  20913169.890   -18222183.625 6   5997902.357 1
 90 10 12 16  7 59.9950000  0  4 20 12 13 09
  22793915.312    -3417024.737 5  -2234799.019 1
  19655673.796   -24178424.159 7 -17669305.803 3
  21018728.046   -13159130.846 7   6069410.567 1
  20921566.288   -18178058.483 6   6032285.497 1
 90 10 12 16  8 14.9950000  0  4 20 12 13 09
  22783389.390    -3472330.199 5  -2277894.210 1
  19655299.812   -24180390.533 7 -17670838.073 3
  21023704.554   -13132985.442 7   6089783.530 1
  20929979.937   -18133846.816 6   6066736.066 1
 90 10 12 16  8 29.9950000  0  4 20 12 13 09
  22772864.999    -3527642.670 5  -2320994.858 1
  19654955.882   -24182206.836 7 -17672253.406 2
  21028680.515   -13106840.220 7   6110156.358 1
  20938408.054   -18089552.232 6   6101251.240 1
 90 10 12 16  8 44.9950000  0  4 20 12 13 09
  22762343.648    -3582954.672 5  -2364095.137 1
  19654639.554   -24183865.786 7 -17673546.124 2
  21033654.616   -13080688.214 7   6130534.468 1
  20946854.991   -18045168.017 6   6135836.261 1
 90 10 12 16  8 59.9950000  0  4 20 12 13 09
  22751809.179    -3638271.723 5  -2407199.355 1
  19654352.460   -24185373.186 7 -17674720.757 3
  21038634.171   -13054535.327 7   6150913.263 1
  20955318.460   -18000699.940 6   6170486.624 1
 90 10 12 16  9 14.9950000  0  4 20 12 13 09
  22741289.780    -3693588.913 5  -2450303.668 1
  19654095.655   -24186724.290 7 -17675773.592 3
  21043612.062   -13028376.827 7   6171296.435 1
  20963796.546   -17956143.889 6   6205205.542 1
 90 10 12 16  9 29.9950000  0  4 20 12 13 09
  22730762.007    -3748908.738 5  -2493410.058 1
  19653866.319   -24187921.985 7 -17676706.890 3
  21048589.187   -13002215.878 7   6191681.516 1
  20972291.288   -17911503.097 6   6239990.491 1
 90 10 12 16  9 44.9950000  0  4 20 12 13 09
  22720236.476    -3804231.442 5  -2536518.696 1
  19653668.343   -24188966.569 7 -17677520.879 2
  21053567.483   -12976052.921 7   6212068.160 1
  20980803.835   -17866778.223 6   6274840.960 1
 90 10 12 16  9 59.9950000  0  4 20 12 13 09
  22709704.835    -3859554.401 5  -2579627.515 1
  19653498.187   -24189855.712 7 -17678213.745 2
  21058546.905   -12949885.645 7   6232458.172 1
  20989331.241   -17821967.236 6   6309758.525 1
 90 10 12 16 10 14.9950000  0  4 20 12 13 09
  22699178.101    -3914878.107 5  -2622736.928 1
  19653359.171   -24190590.094 7 -17678786.022 3
  21063527.546   -12923714.698 7   6252851.040 1
  20997873.171   -17777071.358 6   6344742.240 1
 90 10 12 16 10 29.9950000  0  4 20 12 13 09
  22688648.905    -3970202.413 5  -2665846.809 1
  19653248.780   -24191169.864 7 -17679237.817 3
  21068507.804   -12897540.284 7   6273246.609 1
  21006432.069   -17732091.041 6   6379791.753 1
 90 10 12 16 10 44.9950000  0  4 20 12 13 09
  22678122.358    -4025531.217 5  -2708960.198 1
  19653165.741   -24191598.917 7 -17679572.172 3
  21073489.655   -12871366.530 7   6293641.660 1
  21015006.804   -17687030.467 6   6414903.804 1
 90 10 12 16 10 59.9950000  0  4 20 12 13 09
  22667592.733    -4080859.540 5  -2752073.193 1
  19653116.444   -24191872.482 7 -17679785.368 3
  21078473.327   -12845188.777 7   6314039.834 1
  21023598.944   -17641885.370 6   6450081.717 1
 90 10 12 16 11 14.9950000  0  4 20 12 13 09
  22657062.171    -4136187.963 5  -2795186.291 1
  19653090.921   -24191991.540 7
  21083449.374   -12819008.335 6   6334440.106 1
  21032204.468   -17596657.151 6   6485324.392 1
 90 10 12 16 11 29.9950000  0  4 20 12 13 09
  22646534.913    -4191523.731 5  -2838305.102 1
  19653100.273   -24191963.632 7
  21088435.741   -12792832.823 7   6354836.535 1
  21040825.687   -17551353.564 6   6520625.810 1
 90 10 12 16 11 44.9950000  0  4 20 12 13 09
  22635999.499    -4246862.653 5  -2881426.364 1
  19653129.835   -24191784.795 7
  21093415.960   -12766658.302 7   6375232.190 1
  21049463.179   -17505970.928 6   6555988.813 1
 90 10 12 16 11 59.9950000  0  4 20 12 13 09
  22625471.929    -4302202.328 5  -2924548.223 1
  19653194.413   -24191452.841 7
  21098396.202   -12740482.559 7   6395628.806 1
  21058113.476   -17460507.613 6   6591414.698 1
 90 10 12 16 12 14.9950000  0  4 20 12 13 09
  22614940.944    -4357537.587 5  -2967666.622 1
  19653290.030   -24190962.933 7        -0.25713
  21103380.116   -12714300.937 7   6416029.997 1
  21066781.468   -17414959.071 6   6626906.975 1
 90 10 12 16 12 29.9950000  0  4 20 12 13 09
  22604414.015    -4412874.403 5  -3010786.236 1
  19653411.108   -24190321.253 7       499.726 3
  21108359.905   -12688119.703 7   6436430.885 1
  21075463.358   -17369331.816 6   6662460.601 1
 90 10 12 16 12 44.9950000  0  4 20 12 13 09
  22593888.218    -4468212.484 5  -3053906.845 1
  19653560.515   -24189527.786 7      1117.983 3
  21113341.671   -12661938.869 7   6456831.456 1
  21084160.351   -17323626.197 6   6698075.285 1
 90 10 12 16 12 59.9950000  0  4 20 12 13 09
  22583352.788    -4523548.265 5  -3097025.641 1
  19653742.499   -24188579.061 7      1857.222 3
  21118326.804   -12635754.980 7   6477234.413 1
  21092873.866   -17277839.138 6   6733753.422 1
 90 10 12 16 13 14.9950000  0  4 20 12 13 09
  22572823.046    -4578884.964 5  -3140145.170 1
  19653952.483   -24187478.722 7      2714.603 3
  21123307.858   -12609571.799 7   6497636.813 1
  21101603.429   -17231974.584 6   6769491.955 1
 90 10 12 16 13 29.9950000  0  4 20 12 13 09
  22562293.624    -4634217.218 5  -3183261.215 1
  19654191.210   -24186221.475 7      3694.246 3
  21128291.257   -12583384.282 6   6518042.597 1
  21110346.679   -17186027.505 6   6805294.788 1
 90 10 12 16 13 44.9950000  0  4 20 12 13 09
  22551759.671    -4689549.911 5  -3226377.618 1
  19654458.890   -24184812.474 7      4792.142 2
  21133273.335   -12557197.644 6   6538447.697 1
  21119105.015   -17140003.501 6   6841157.559 1
 90 10 12 16 13 59.9950000  0  4 20 12 13 09
  22541233.374    -4744879.530 5  -3269491.619 1
  19654757.702   -24183248.463 7      6010.822 3
  21138256.835   -12531008.793 6   6558854.524 1
  21127877.522   -17093899.859 6   6877082.381 1
 90 10 12 16 14 14.9950000  0  4 20 12 13 09
  22530705.624    -4800207.921 5  -3312604.667 1
  19655083.491   -24181531.479 7      7348.707 2
  21143242.265   -12504819.779 6   6579261.481 1
  21136665.085   -17047718.900 6   6913067.458 1
 90 10 12 16 14 29.9950000  0  4 20 12 13 09
  22520177.749    -4855533.473 5  -3355715.483 1
  19655440.976   -24179660.307 7      8806.735 3
  21148226.913   -12478629.364 7   6599669.526 1
  21145467.999   -17001459.689 6   6949113.503 1
 90 10 12 16 14 44.9950000  0  4 20 12 13 09
  22509648.819    -4910859.814 5  -3398826.936 1
  19655824.608   -24177638.962 7     10381.783 2
  21153210.179   -12452441.713 7   6620075.400 1
  21154285.405   -16955126.677 6   6985217.063 1
 90 10 12 16 14 59.9950000  0  4 20 12 13 09
  22499122.835    -4966179.802 5  -3441933.432 1
  19656240.179   -24175460.494 7     12079.260 3
  21158195.585   -12426249.979 7   6640484.469 1
  21163116.343   -16908713.111 6   7021383.390 1
 90 10 12 16 15 14.9950000  0  4 20 12 13 09
  22488595.343    -5021497.071 5  -3485037.809 1
  19656682.905   -24173128.748 7     13896.179 3
  21163177.632   -12400058.124 7   6660893.624 1
  21171964.866   -16862223.252 6   7057609.154 1
 90 10 12 16 15 29.9950000  0  4 20 12 13 09
  22478067.296    -5076813.709 5  -3528141.702 1
  19657155.937   -24170646.168 7     15830.631 3
  21168162.093   -12373868.429 7   6681301.103 1
  21180824.687   -16815659.823 6   7093892.256 1
 90 10 12 16 15 44.9950000  0  4 20 12 13 09
  22467543.108    -5132124.400 5  -3571240.965 1
  19657657.366   -24168007.610 7     17886.624 3
  21173146.905   -12347675.662 7   6701710.972 1
  21189700.757   -16769018.057 6   7130236.400 1
 90 10 12 16 15 59.9950000  0  4 20 12 13 09
  22457016.351    -5187433.230 5  -3614338.761 1
  19658188.905   -24165217.550 7     20060.669 3
  21178130.733   -12321484.481 7   6722119.600 1
  21198590.882   -16722302.746 6   7166637.846 1
 90 10 12 16 16 14.9950000  0  4 20 12 13 09
  22446497.054    -5242738.560 5  -3657433.827 1
  19658747.632   -24162274.784 7     22353.708 3
  21183113.241   -12295293.858 6   6742527.807 1
  21207494.663   -16675512.881 6   7203097.380 1
 90 10 12 16 16 29.9950000  0  4 20 12 13 09
  22435969.843    -5298039.835 5  -3700525.740 1
  19659337.257   -24159178.962 7     24766.011 3
  21188095.952   -12269103.389 6   6762935.896 1
  21216411.749   -16628648.656 6   7239614.873 1
 90 10 12 16 16 44.9950000  0  4 20 12 13 09
  22425452.218    -5353338.378 5  -3743615.519 1
  19659955.491   -24155931.544 7     27296.440 3
  21193081.671   -12242914.675 6   6783342.613 1
  21225344.710   -16581711.731 6   7276189.004 1
 90 10 12 16 16 59.9950000  0  4 20 12 13 09
  22414926.890    -5408632.643 5  -3786701.970 1
  19660601.999   -24152531.212 7     29946.027 3
  21198063.905   -12216726.557 6   6803748.853 1
  21234289.976   -16534701.272 6   7312820.436 1
 90 10 12 16 17 14.9950000  0  4 20 12 13 09
  22404407.015    -5463917.873 5  -3829781.375 1
  19661279.710   -24148973.754 7     32718.045 3
  21203048.140   -12190534.932 6   6824157.844 1
  21243249.577   -16487613.482 6   7349512.129 1
 90 10 12 16 17 29.9950000  0  4 20 12 13 09
  22393880.796    -5519198.435 5  -3872857.138 1
  19661984.882   -24145263.590 7     35609.061 3
  21208032.726   -12164343.943 6   6844566.327 1
  21252224.905   -16440452.750 6   7386260.661 1
 90 10 12 16 17 44.9950000  0  4 20 12 13 09
  22383371.405    -5574476.663 5  -3915931.084 1
  19662720.499   -24141403.504 7     38616.898 3
  21213016.483   -12138156.526 6   6864972.032 1
  21261212.226   -16393222.483 6   7423063.375 1
 90 10 12 16 17 59.9950000  0  4 20 12 13 09
  22372850.952    -5629753.664 5  -3959004.088 1
  19663482.562   -24137394.962 7     41740.416 3
  21217998.194   -12111974.105 6   6885373.833 1
  21270213.562   -16345924.317 6   7459918.988 1
 90 10 12 16 18 14.9950000  0  4 20 12 13 09
  22362330.866    -5685023.386 5  -4002071.403 1
  19664275.304   -24133232.063 7     44984.212 3
  21222981.124   -12085791.033 6   6905776.152 1
  21279228.374   -16298552.678 6   7496831.858 1
 90 10 12 16 18 29.9950000  0  4 20 12 13 09
  22351812.702    -5740288.742 5  -4045135.322 1
  19665096.030   -24128918.217 7     48345.624 3
  21227962.679   -12059610.654 6   6926176.361 1
  21288255.624   -16251111.336 6   7533799.043 1
 90 10 12 16 18 44.9950000  0  4 20 12 13 09
  22341298.640    -5795547.058 5  -4088193.752 1
  19665946.163   -24124450.924 7     51826.607 3
  21232942.944   -12033430.259 6   6946576.591 1
  21297298.226   -16203598.162 6   7570822.202 1
 90 10 12 16 18 59.9950000  0  4 20 12 13 09
  22330786.679    -5850799.795 5  -4131247.823 1
  19666825.851   -24119832.026 7     55425.727 3
  21237927.312   -12007251.743 6   6966975.351 1
  21306351.062   -16156015.277 6   7607899.678 1
 90 10 12 16 19 14.9950000  0  4 20 12 13 09
  22320273.538    -5906047.482 5  -4174297.965 1
  19667733.608   -24115062.360 7     59142.325 3
  21242910.101   -11981076.372 7   6987371.659 1
  21315419.663   -16108364.010 6   7645030.436 1
 90 10 12 16 19 29.9950000  0  4 20 12 13 09
  22309760.952    -5961287.821 5  -4217342.390 1
  19668668.905   -24110139.770 7     62978.085 3
  21247891.022   -11954901.870 6   7007767.289 1
  21324501.601   -16060642.292 6   7682216.085 1
 90 10 12 16 19 44.9950000  0  4 20 12 13 09
  22299251.812    -6016523.863 5  -4260383.465 1
  19669635.296   -24105067.687 7     66930.331 3
  21252866.796   -11928731.642 6   7028159.580 1
  21333594.296   -16012853.930 6   7719453.671 1
 90 10 12 16 19 59.9950000  0  4 20 12 13 09
  22288738.312    -6071748.678 5  -4303415.801 1
  19670630.069   -24099839.541 7     71004.182 3
  21257849.312   -11902559.162 6   7048553.643 1
  21342703.023   -15964992.589 6   7756748.126 1
 90 10 12 16 20 14.9950000  0  4 20 12 13 09
  22278232.030    -6126961.712 5  -4346438.932 1
  19671654.194   -24094455.233 7     75199.716 3
  21262832.171   -11876384.315 6   7068949.537 1
  21351823.819   -15917058.641 6   7794099.154 1
 90 10 12 16 20 29.9950000  0  4 20 12 13 09
  22267728.968    -6182166.567 5  -4389455.706 1
  19672708.358   -24088918.610 7     79513.941 3
  21267812.288   -11850210.649 6   7089344.506 1
  21360958.023   -15869056.286 6   7831503.489 1
 90 10 12 16 20 44.9950000  0  4 20 12 13 09
  22257223.866    -6237361.312 5  -4432464.602 1
  19673791.648   -24083228.145 7     83948.037 3
  21272790.937   -11824036.703 6   7109739.701 1
  21370105.772   -15820984.112 6   7868962.221 1
 90 10 12 16 20 59.9950000  0  4 20 12 13 09
  22246716.741    -6292547.545 5  -4475466.874 1
  19674902.327   -24077385.618 7     88500.624 3
  21277770.421   -11797864.679 6   7130133.394 1
  21379267.476   -15772844.324 6   7906473.645 1
 90 10 12 16 21 14.9950000  0  4 20 12 13 09
  22236227.601    -6347724.390 6  -4518461.802 1
  19676043.163   -24071390.337 7     93172.241 3
  21282754.257   -11771693.850 6   7150526.157 1
  21388442.663   -15724636.598 6   7944037.999 1
 90 10 12 16 21 29.9950000  0  4 20 12 13 09
  22225723.374    -6402890.090 5  -4561448.069 1
  19677212.944   -24065240.994 7     97963.905 3
  21287732.780   -11745522.617 6   7170919.233 1
  21397628.983   -15676359.811 6   7981656.173 1
 90 10 12 16 21 44.9950000  0  4 20 12 13 09
  22215225.257    -6458047.567 5  -4604427.933 1
  19678413.101   -24058940.775 7    102873.136 3
  21292711.327   -11719354.056 6   7191310.245 1
  21406828.194   -15628017.621 6   8019325.314 1
 90 10 12 16 21 59.9950000  0  4 20 12 13 09
  22204735.554    -6513195.387 6  -4647400.248 1
  19679641.413   -24052488.682 7    107900.710 3
  21297691.585   -11693187.389 6   7211699.764 1
  21416039.624   -15579609.198 6   8057046.062 1
 90 10 12 16 22 14.9950000  0  4 20 12 13 09
  22194241.663    -6568330.098 5  -4690362.359 1
  19680897.343   -24045881.862 7    113048.851 3
  21302671.187   -11667019.828 6   7232089.976 1
  21425264.132   -15531131.969 6   8094820.423 1
 90 10 12 16 22 29.9950000  0  4 20 12 13 09
  22183749.835    -6623459.780 5  -4733320.548 1
  19682181.913   -24039128.711 7    118311.019 3
  21307653.023   -11640859.775 6   7252474.352 1
  21434501.991   -15482594.578 6   8132641.668 1
 90 10 12 16 22 44.9950000  0  4 20 12 13 09
  22173257.054    -6678577.068 5  -4776269.082 1
  19683496.718   -24032221.899 7    123692.918 3
  21312629.187   -11614699.936 6   7272858.546 1
  21443750.944   -15433989.960 6   8170515.298 1
 90 10 12 16 22 59.9950000  0  4 20 12 13 09
  22162779.015    -6733680.811 5  -4819207.055 1
  19684841.085   -24025160.541 7    129195.248 3
  21317603.624   -11588539.260 6   7293243.396 1
  21453012.952   -15385317.829 6   8208441.534 1
 90 10 12 16 23 14.9950000  0  4 20 12 13 09
  22152291.968    -6788771.529 5  -4862134.890 1
  19686213.624   -24017945.959 7    134816.969 2
  21322584.155   -11562378.896 6   7313628.017 1
  21462287.522   -15336579.574 6   8246419.297 1
 90 10 12 16 23 29.9950000  0  4 20 12 13 09
  22141815.155    -6843849.974 6  -4905053.151 1
  19687616.694   -24010579.174 7    140557.292 3
  21327562.733   -11536219.976 6   7334011.504 1
  21471574.515   -15287776.386 6   8284447.656 1
 90 10 12 16 23 44.9950000  0  4 20 12 13 09
  22131364.437    -6898780.030 6  -4947855.786 1
  19689072.335   -24002924.317 7    146522.086 3
  21332565.351   -11509926.584 6   7354499.777 1
  21480899.554   -15238772.794 6   8322632.174 1
 90 10 12 16 23 59.9950000  0  4 20 12 13 09
  22120923.312    -6953620.336 5  -4990588.488 1
  19690572.507   -23995040.437 7    152665.339 2
  21337583.366   -11483557.744 6   7375046.848 1
  21490250.960   -15189628.090 6   8360926.651 1
 90 10 12 16 24 14.9950000  0  4 20 12 13 09
  22110491.765    -7008447.035 6  -5033310.591 1
  19692102.030   -23987003.886 7    158927.557 2
  21342602.046   -11457189.837 6   7395593.189 1
  21499615.210   -15140418.942 6   8399271.351 1
 90 10 12 16 24 29.9950000  0  4 20 12 13 09
  22100063.085    -7063263.717 6  -5076024.883 1
  19693659.398   -23978818.558 7    165305.704 3
  21347619.523   -11430826.627 6   7416135.864 1
  21508990.866   -15091149.573 6   8437662.969 1
 90 10 12 16 24 44.9950000  0  4 20 12 13 09
  22089635.101    -7118069.403 6  -5118730.605 1
  19695244.999   -23970483.879 7    171800.228 3
  21352633.351   -11404467.644 6   7436675.255 1
  21518379.663   -15041819.675 6   8476101.756 1
 90 10 12 16 24 59.9950000  0  4 20 12 13 09
  22079204.569    -7172863.229 6  -5161427.085 1
  19696860.390   -23961999.446 7    178411.446 3
  21357647.640   -11378112.606 6   7457211.563 1
  21527777.819   -14992429.057 6   8514587.847 1
 90 10 12 16 25 14.9950000  0  4 20 12 13 09
  22068782.827    -7227644.531 6  -5204113.802 1
  19698503.866   -23953364.927 7    185139.613 2
  21362665.015   -11351761.069 6   7477745.131 1
  21537188.921   -14942977.974 6   8553121.062 1
 90 10 12 16 25 29.9950000  0  4 20 12 13 09
  22058356.116    -7282414.687 6  -5246791.827 1
  19700175.093   -23944582.131 7    191983.314 3
  21367677.343   -11325414.729 6   7498274.669 1
  21546608.351   -14893468.233 6   8591699.982 1
 90 10 12 16 25 44.9950000  0  4 20 12 13 09
  22047938.952    -7337172.971 6  -5289460.618 1
  19701874.530   -23935650.838 7    198942.736 3
  21372687.608   -11299072.994 6   7518800.627 1
  21556041.843   -14843900.069 6   8630324.421 1
 90 10 12 16 25 59.9950000  0  4 20 12 13 09
  22037521.030    -7391921.120 6  -5332121.500 1
  19703602.280   -23926572.969 7    206016.367 2
  21377705.124   -11272737.968 6   7539321.319 1
  21565484.585   -14794275.490 6   8668992.837 1
 90 10 12 16 26 14.9950000  0  4 20 12 13 09
  22027105.015    -7446655.249 6  -5374771.460 1
  19705357.796   -23917345.188 7    213206.816 2
  21382713.124   -11246406.171 6   7559839.544 1
  21574939.218   -14744591.452 6   8707707.572 1
